[[{"header":{"parameterUnit":"m.s-1","parameterCategory":1,"la1":31.0,"la2":29.5877,"lo1":-88.7671,"lo2":-86.6584,"dy":0.0162,"dx":0.0185,"nx":115,"ny":88,"refTime":"2023-10-02T18:00:00:Z","depth":0,"parameterNumber":2,"parameterNumberName":"U-component_of_WINDS"},"data":[0.0,0.0,0.0,0.0,0.0,0.0,0.0,0.0,0.0,0.0,0.0,0.0,0.0,0.0,0.0,0.0,0.0,0.0,0.0,0.0,0.0,0.0,0.0,0.0,0.0,0.0,0.0,0.0,0.0,0.0,0.0,0.0,0.0,0.0,0.0,0.0,0.0,0.0,0.0,0.0,0.0,0.0,0.0,0.0,0.0,0.0,0.0,0.0,0.0,0.0,0.0,0.0,0.0,0.0,0.0,0.0,0.0,0.0,0.0,0.0,0.0,0.0,0.0,0.0,0.0,0.0,0.0,0.0,0.0,0.0,0.0,0.0,0.0,0.0,0.0,0.0,0.0,0.0,0.0,0.0,0.0,0.0,0.0,0.0,0.0,0.0,0.0,0.0,0.0,0.0,0.0,0.0,0.0,0.0,0.0,0.0,0.0,0.0,0.0,0.0,0.0,0.0,0.0,0.0,0.0,0.0,0.0,0.0,0.0,0.0,0.0,0.0,0.0,0.0,0.0,0.0,0.0,0.0,0.0,0.0,0.0,0.0,0.0,0.0,0.0,0.0,0.0,0.0,0.0,0.0,0.0,0.0,0.0,0.0,0.0,0.0,0.0,0.0,0.0,0.0,0.0,0.0,0.0,0.0,0.0,0.0,0.0,0.0,0.0,0.0,0.0,0.0,0.0,0.0,0.0,0.0,0.0,0.0,0.0,0.0,0.0,0.0,0.0,0.0,0.0,0.0,0.0,0.0,0.0,0.0,0.0,0.0,0.0,0.0,0.0,0.0,0.0,0.0,0.0,0.0,0.0,0.0,0.0,0.0,0.0,0.0,0.0,0.0,0.0,0.0,0.0,0.0,0.0,0.0,0.0,0.0,0.0,0.0,0.0,0.0,0.0,0.0,0.0,0.0,0.0,0.0,0.0,0.0,0.0,0.0,0.0,0.0,0.0,0.0,0.0,0.0,0.0,0.0,0.0,0.0,0.0,0.0,0.0,0.0,0.0,0.0,0.0,0.0,0.0,0.0,0.0,0.0,0.0,0.0,0.0,0.0,0.0,0.0,0.0,0.0,0.0,0.0,0.0,0.0,0.0,0.0,0.0,0.0,0.0,0.0,0.0,0.0,0.0,0.0,0.0,0.0,0.0,0.0,0.0,0.0,0.0,0.0,0.0,0.0,0.0,0.0,0.0,0.0,0.0,0.0,0.0,0.0,0.0,0.0,0.0,0.0,0.0,0.0,0.0,0.0,0.0,0.0,0.0,0.0,0.0,0.0,0.0,0.0,0.0,0.0,0.0,0.0,0.0,0.0,0.0,0.0,0.0,0.0,0.0,0.0,0.0,0.0,0.0,0.0,0.0,0.0,0.0,0.0,0.0,0.0,0.0,0.0,0.0,0.0,0.0,0.0,0.0,0.0,0.0,0.0,0.0,0.0,0.0,0.0,0.0,0.0,0.0,0.0,0.0,0.0,0.0,0.0,0.0,0.0,0.0,0.0,0.0,0.0,0.0,0.0,0.0,0.0,0.0,0.0,0.0,0.0,0.0,0.0,0.0,0.0,0.0,0.0,0.0,0.0,0.0,0.0,0.0,0.0,0.0,0.0,0.0,0.0,0.0,0.0,0.0,0.0,0.0,0.0,0.0,0.0,0.0,0.0,0.0,0.0,0.0,0.0,0.0,0.0,0.0,0.0,0.0,0.0,0.0,0.0,0.0,0.0,0.0,0.0,0.0,0.0,0.0,0.0,0.0,0.0,0.0,0.0,0.0,0.0,0.0,0.0,0.0,0.0,0.0,0.0,0.0,0.0,0.0,0.0,0.0,0.0,0.0,0.0,0.0,0.0,0.0,0.0,0.0,0.0,0.0,0.0,0.0,0.0,0.0,0.0,0.0,0.0,0.0,0.0,0.0,0.0,0.0,0.0,0.0,0.0,0.0,0.0,0.0,0.0,0.0,0.0,0.0,0.0,0.0,0.0,0.0,0.0,0.0,0.0,0.0,0.0,0.0,0.0,0.0,0.0,0.0,0.0,0.0,0.0,0.0,0.0,0.0,0.0,0.0,0.0,0.0,0.0,0.0,0.0,0.0,0.0,0.0,0.0,0.0,0.0,0.0,0.0,0.0,0.0,0.0,0.0,0.0,0.0,0.0,0.0,0.0,0.0,0.0,0.0,0.0,0.0,0.0,0.0,0.0,0.0,0.0,0.0,0.0,0.0,0.0,0.0,0.0,0.0,0.0,0.0,0.0,0.0,0.0,0.0,0.0,0.0,0.0,0.0,0.0,0.0,0.0,0.0,0.0,0.0,0.0,0.0,0.0,0.0,0.0,0.0,0.0,0.0,0.0,0.0,0.0,0.0,0.0,0.0,0.0,0.0,0.0,0.0,0.0,0.0,0.0,0.0,0.0,0.0,0.0,0.0,0.0,0.0,0.0,0.0,0.0,0.0,0.0,0.0,0.0,0.0,0.0,0.0,0.0,0.0,0.0,0.0,0.0,0.0,0.0,0.0,0.0,0.0,0.0,0.0,0.0,0.0,0.0,0.0,0.0,0.0,0.0,0.0,0.0,0.0,0.0,0.0,0.0,0.0,0.0,0.0,0.0,0.0,0.0,0.0,0.0,0.0,0.0,0.0,0.0,0.0,0.0,0.0,0.0,0.0,0.0,0.0,0.0,0.0,0.0,0.0,0.0,0.0,0.0,0.0,0.0,0.0,0.0,0.0,0.0,0.0,0.0,0.0,0.0,0.0,0.0,0.0,0.0,0.0,0.0,0.0,0.0,0.0,0.0,0.0,0.0,0.0,0.0,0.0,0.0,0.0,0.0,0.0,0.0,0.0,0.0,0.0,0.0,0.0,0.0,0.0,0.0,0.0,0.0,0.0,0.0,0.0,0.0,0.0,0.0,0.0,0.0,0.0,0.0,0.0,0.0,0.0,0.0,0.0,0.0,0.0,0.0,0.0,0.0,0.0,0.0,0.0,0.0,0.0,0.0,0.0,0.0,0.0,0.0,0.0,0.0,0.0,0.0,0.0,0.0,0.0,0.0,0.0,0.0,0.0,0.0,0.0,0.0,0.0,0.0,0.0,0.0,0.0,0.0,0.0,0.0,0.0,0.0,0.0,0.0,0.0,0.0,0.0,0.0,0.0,0.0,0.0,0.0,0.0,0.0,0.0,0.0,0.0,0.0,0.0,0.0,0.0,0.0,0.0,0.0,0.0,0.0,0.0,0.0,0.0,0.0,0.0,0.0,0.0,0.0,0.0,0.0,0.0,0.0,0.0,0.0,0.0,0.0,0.0,0.0,0.0,0.0,0.0,0.0,0.0,0.0,0.0,0.0,0.0,0.0,0.0,0.0,0.0,0.0,0.0,0.0,0.0,0.0,0.0,0.0,0.0,0.0,0.0,0.0,0.0,0.0,0.0,0.0,0.0,0.0,0.0,0.0,0.0,0.0,0.0,0.0,0.0,0.0,0.0,0.0,0.0,0.0,0.0,0.0,0.0,0.0,0.0,0.0,0.0,0.0,0.0,0.0,0.0,0.0,0.0,0.0,0.0,0.0,0.0,0.0,0.0,0.0,0.0,0.0,0.0,0.0,0.0,0.0,0.0,0.0,0.0,0.0,0.0,0.0,0.0,0.0,0.0,0.0,0.0,0.0,0.0,0.0,0.0,0.0,0.0,0.0,0.0,0.0,0.0,0.0,0.0,0.0,0.0,0.0,0.0,0.0,0.0,0.0,0.0,0.0,0.0,0.0,0.0,0.0,0.0,0.0,0.0,0.0,0.0,0.0,0.0,0.0,0.0,0.0,0.0,0.0,0.0,0.0,0.0,0.0,0.0,0.0,0.0,0.0,0.0,0.0,0.0,0.0,0.0,0.0,0.0,0.0,0.0,0.0,0.0,0.0,0.0,0.0,0.0,0.0,0.0,0.0,0.0,0.0,0.0,0.0,0.0,0.0,0.0,0.0,0.0,0.0,0.0,0.0,0.0,0.0,0.0,0.0,0.0,0.0,0.0,0.0,0.0,0.0,0.0,0.0,0.0,0.0,0.0,0.0,0.0,0.0,0.0,0.0,0.0,0.0,0.0,0.0,0.0,0.0,0.0,0.0,0.0,0.0,0.0,0.0,0.0,0.0,0.0,0.0,0.0,0.0,0.0,0.0,0.0,0.0,0.0,0.0,0.0,0.0,0.0,0.0,0.0,0.0,0.0,0.0,0.0,0.0,0.0,0.0,0.0,0.0,0.0,0.0,0.0,0.0,0.0,0.0,0.0,0.0,0.0,0.0,0.0,0.3219,0.0,0.0,0.0,0.0,0.0,0.0,0.0,0.0,0.0,0.0,0.0,0.0,0.0,0.0,0.0,0.0,0.0,0.0,0.0,0.0,0.0,0.0,0.0,0.0,0.0,0.0,0.0,0.0,0.0,0.0,0.0,0.0,0.0,0.0,0.0,0.0,0.0,0.0,0.0,0.0,0.0,0.0,0.0,0.0,0.0,0.0,0.0,0.0,0.0,0.0,0.0,0.0,0.0,0.0,0.0,0.0,0.0,0.0,0.0,0.0,0.0,0.0,0.0,0.0,0.0,0.0,0.0,0.0,0.0,0.0,0.0,0.0,0.0,0.0,0.0,0.0,0.0,0.0,0.0,0.0,0.0,0.0,0.0,0.0,0.0,0.0,0.0,0.0,0.0,0.0,0.0,0.0,0.0,0.0,0.0,0.0,0.0,0.0,0.0,0.0,0.0,0.0,0.0,0.0,0.0,0.0,0.0,0.0,0.0,0.0,0.3911,0.3911,0.3911,0.3723,0.3379,0.0,0.0,0.0,0.0,0.0,0.0,0.0,0.0,0.0,0.0,0.0,0.0,0.0,0.0,0.0,0.0,0.0,0.0,0.0,0.0,0.0,0.0,0.0,0.0,0.0,0.0,0.0,0.0,0.0,0.0,0.0,0.0,0.0,0.0,0.0,0.0,0.0,0.0,0.0,0.0,0.0,0.0,0.0,0.0,0.0,0.0,0.0,0.0,0.0,0.0,0.0,0.0,0.0,0.0,0.0,0.0,0.0,0.0,0.0,0.0,0.0,0.0,0.0,0.0,0.0,0.0,0.0,0.0,0.0,0.0,0.0,0.0,0.0,0.0,0.0,0.0,0.0,0.0,0.0,0.0,0.0,0.0,0.0,0.0,0.0,0.0,0.0,0.0,0.0,0.0,0.0,0.0,0.0,0.0,0.0,0.0,0.0,0.0,0.0,0.0,0.0,0.0,0.0,0.0,0.0,0.0,0.0,0.0,0.0,0.0,0.0,0.0,0.4073,0.3937,0.361,0.0,0.0,0.0,0.0,0.0,0.0,0.0,0.0,0.0,0.0,0.0,0.0,0.0,0.0,0.0,0.0,0.0,0.0,0.0,0.0,0.0,0.0,0.0,0.0,0.0,0.0,0.0,0.0,0.0,0.0,0.0,0.0,0.0,0.0,0.0,0.0,0.0,0.0,0.0,0.0,0.0,0.0,0.0,0.0,0.0,0.0,0.0,0.0,0.0,0.0,0.0,0.0,0.0,0.0,0.0,0.0,0.0,0.0,0.0,0.0,0.0,0.0,0.0,0.0,0.0,0.0,0.0,0.0,0.0,0.0,0.0,0.0,0.0,0.0,0.0,0.0,0.0,0.0,0.0,0.0,0.0,0.0,0.0,0.0,0.0,0.0,0.0,0.0,0.0,0.0,0.0,0.0,0.0,0.0,0.0,0.0,0.0,0.0,0.0,0.0,0.0,0.0,0.0,0.0,0.0,0.0,0.0,0.0,0.0,0.0,0.4256,0.4256,0.4559,0.0,0.3993,0.0,0.0,0.0,0.0,0.0,0.0,0.0,0.0,0.0,0.0,0.0,0.0,0.0,0.0,0.0,0.0,0.0,0.0,0.0,0.0,0.0,0.0,0.0,0.0,0.0,0.0,0.0,0.0,0.0,0.0,0.0,0.0,0.0,0.0,0.0,0.0,0.0,0.0,0.0,0.0,0.0,0.0,0.0,0.0,0.0,0.0,0.0,0.0,0.0,0.0,0.0,0.0,0.0,0.0,0.0,0.0,0.0,0.0,0.0,0.0,0.0,0.0,0.0,0.0,0.0,0.0,0.0,0.0,0.0,0.0,0.0,0.0,0.0,0.0,0.0,0.0,0.0,0.0,0.0,0.0,0.0,0.0,0.0,0.0,0.0,0.0,0.0,0.0,0.0,0.0,0.0,0.0,0.0,0.0,0.0,0.0,0.0,0.0,0.0,0.0,0.0,0.0,0.0,0.0,0.0,0.0,0.0,0.0,0.0,0.0,0.4685,0.4881,0.5019,0.4819,0.0,0.0,0.0,0.0,0.0,0.0,0.0,0.0,0.0,0.0,0.0,0.0,0.0,0.0,0.0,0.0,0.0,0.0,0.0,0.0,0.0,0.0,0.0,0.0,0.0,0.0,0.0,0.0,0.0,0.0,0.0,0.0,0.0,0.0,0.0,0.0,0.0,0.0,0.0,0.0,0.0,0.0,0.0,0.0,0.0,0.0,0.0,0.0,0.0,0.0,0.0,0.0,0.0,0.0,0.0,0.0,0.0,0.0,0.0,0.0,0.0,0.0,0.0,0.0,0.0,0.0,0.0,0.0,0.0,0.0,0.0,0.0,0.0,0.0,0.0,0.0,0.0,0.0,0.0,0.0,0.0,0.0,0.0,0.0,0.0,0.0,0.0,0.0,0.0,0.0,0.0,0.0,0.0,0.0,0.0,0.0,0.0,0.0,0.0,0.0,0.0,0.0,0.0,0.0,0.0,0.0,0.0,0.0,0.0,0.0,0.472,0.5129,0.5546,0.5576,0.5209,0.446,0.0,0.0,0.0,0.0,0.0,0.0,0.0,0.0,0.0,0.0,0.0,0.0,0.0,0.0,0.0,0.0,0.0,0.0,0.0,0.0,0.0,0.0,0.0,0.0,0.0,0.0,0.0,0.0,0.0,0.0,0.0,0.0,0.0,0.0,0.0,0.0,0.0,0.0,0.0,0.0,0.0,0.0,0.0,0.0,0.0,0.0,0.0,0.0,0.0,0.0,0.0,0.0,0.0,0.0,0.0,0.0,0.0,0.0,0.0,0.0,0.0,0.0,0.0,0.0,0.0,0.0,0.0,0.0,0.0,0.0,0.0,0.0,0.0,0.0,0.0,0.0,0.0,0.0,0.0,0.0,0.0,0.0,0.0,0.0,0.0,0.0,0.0,0.0,0.0,0.0,0.0,0.0,0.0,0.0,0.0,0.0,0.0,0.0,0.0,0.0,0.0,0.0,0.0,0.0,0.0,0.0,0.0,0.0,0.432,0.4954,0.559,0.6215,0.6253,0.5803,0.0,0.0,0.0,0.0,0.0,0.0,0.0,0.0,0.0,0.0,0.0,0.0,0.0,0.0,0.0,0.0,0.0,0.0,0.0,0.0,0.0,0.0,0.0,0.0,0.0,0.0,0.0,0.0,0.0,0.0,0.0,0.0,0.0,0.0,0.0,0.0,0.0,0.0,0.0,0.0,0.0,0.0,0.0,0.0,0.0,0.0,0.0,0.0,0.0,0.0,0.0,0.0,0.0,0.0,0.0,0.0,0.0,0.0,0.0,0.0,0.0,0.0,0.0,0.0,0.0,0.0,0.0,0.0,0.0,0.0,0.0,0.0,0.0,0.0,0.0,0.0,0.0,0.0,0.0,0.0,0.0,0.0,0.0,0.0,0.0,0.0,0.0,0.0,0.0,0.0,0.0,0.0,0.0,0.0,0.0,0.0,0.0,0.0,0.0,0.0,0.0,0.0,0.0,0.0,0.0,0.0,0.0,0.0,0.0,0.4939,0.5772,0.6304,0.6547,0.6397,0.5921,0.0,0.0,0.0,0.0,0.0,0.0,0.0,0.0,0.0,0.0,0.0,0.0,0.0,0.0,0.0,0.0,0.0,0.0,0.0,0.0,0.0,0.0,0.0,0.0,0.0,0.0,0.0,0.0,0.0,0.0,0.0,0.0,0.0,0.0,0.0,0.0,0.0,0.0,0.0,0.0,0.0,0.0,0.0,0.0,0.0,0.0,0.0,0.0,0.0,0.0,0.0,0.0,0.0,0.0,0.0,0.0,0.0,0.0,0.0,0.0,0.0,0.0,0.0,0.0,0.0,0.0,0.0,0.0,0.0,0.0,0.0,0.0,0.0,0.0,0.0,0.0,0.0,0.0,0.0,0.0,0.0,0.0,0.0,0.0,0.0,0.0,0.0,0.0,0.0,0.0,0.0,0.0,0.0,0.0,0.0,0.0,0.0,0.0,0.0,0.0,0.0,0.0,0.0,0.0,0.0,0.0,0.0,0.0,0.0,0.5721,0.0,0.6846,0.6864,0.6799,0.6251,0.0,0.0,0.0,0.0,0.0,0.0,0.0,0.0,0.0,0.0,0.0,0.0,0.0,0.0,0.0,0.0,0.0,0.0,0.0,0.0,0.0,0.0,0.0,0.0,0.0,0.0,0.0,0.0,0.0,0.0,0.0,0.0,0.0,0.0,0.0,0.0,0.0,0.0,0.0,0.0,0.0,0.0,0.0,0.0,0.0,0.0,0.0,0.0,0.0,0.0,0.0,0.0,0.0,0.0,0.0,0.0,0.0,0.0,0.0,0.0,0.0,0.0,0.0,0.0,0.0,0.0,0.0,0.0,0.0,0.0,0.0,0.0,0.0,0.0,0.0,0.0,0.0,0.0,0.0,0.0,0.0,0.0,0.0,0.0,0.0,0.0,0.0,0.0,0.0,0.0,0.0,0.0,0.0,0.0,0.0,0.0,0.0,0.0,0.0,0.0,0.0,0.0,0.0,0.0,0.0,0.0,0.0,0.0,0.5137,0.6637,0.7039,0.7268,0.7229,0.7486,0.6771,0.0,0.0,0.0,0.0,0.0,0.0,0.0,0.0,0.0,0.0,0.0,0.0,0.0,0.0,0.0,0.0,0.0,0.0,0.0,0.0,0.0,0.0,0.0,0.0,0.0,0.0,0.0,0.0,0.0,0.0,0.0,0.0,0.0,0.0,0.0,0.0,0.0,0.0,0.0,0.0,0.0,0.0,0.0,0.0,0.0,0.0,0.0,0.0,0.0,0.0,0.0,0.0,0.0,0.0,0.0,0.0,0.0,0.0,0.0,0.0,0.0,0.0,0.0,0.0,0.0,0.0,0.0,0.0,0.0,0.0,0.0,0.0,0.0,0.0,0.0,0.0,0.0,0.0,0.0,0.0,0.0,0.0,0.0,0.0,0.0,0.0,0.0,0.0,0.0,0.0,0.0,0.0,0.0,0.0,0.0,0.0,0.0,0.0,0.0,0.0,0.0,0.0,0.0,0.0,0.0,0.0,0.0,0.0,0.0,0.7039,0.7833,0.8238,0.8224,0.7672,0.6976,0.0,0.0,0.0,0.0,0.0,0.0,0.0,0.0,0.0,0.0,0.0,0.0,0.0,0.0,0.0,0.0,0.0,0.0,0.0,0.0,0.0,0.0,0.0,0.0,0.0,0.0,0.0,0.0,0.0,0.0,0.0,0.0,0.0,0.0,0.0,0.0,0.0,0.0,0.0,0.0,0.0,0.0,0.0,0.0,0.0,0.0,0.0,0.0,0.0,0.0,0.0,0.0,0.0,0.0,0.0,0.0,0.0,0.0,0.0,0.0,0.0,0.0,0.0,0.0,0.0,0.0,0.0,0.0,0.0,0.0,0.0,0.0,0.0,0.0,0.0,0.0,0.0,0.0,0.0,0.0,0.0,0.0,0.0,0.0,0.0,0.0,0.0,0.0,0.0,0.0,0.0,0.0,0.0,0.0,0.0,0.0,0.0,0.0,0.0,0.0,0.0,0.0,0.0,0.0,0.0,0.0,0.0,0.0,0.0,0.9165,0.9583,0.9773,0.9787,0.9043,0.8154,0.7107,0.0,0.0,0.0,0.0,0.0,0.0,0.0,0.0,0.0,0.0,0.0,0.0,0.0,0.0,0.0,0.0,0.0,0.0,0.0,0.0,0.0,0.0,0.0,0.0,0.0,0.0,0.0,0.0,0.0,0.0,0.0,0.0,0.0,0.0,0.0,0.0,0.0,0.0,0.0,0.0,0.0,0.0,0.0,0.0,0.0,0.0,0.0,0.0,0.0,0.0,0.0,0.0,0.0,0.0,0.0,0.0,0.0,0.0,0.0,0.0,0.0,0.0,0.0,0.0,0.0,0.0,0.0,0.0,0.0,0.0,0.0,0.0,0.0,0.0,0.0,0.0,0.0,0.0,0.0,0.0,0.0,0.0,0.0,0.0,0.0,0.0,0.0,0.0,0.0,0.0,0.0,0.0,0.0,0.0,0.0,0.0,0.0,0.0,0.0,0.0,0.0,0.0,0.0,0.0,0.0,0.0,0.0,0.0,1.264,1.2208,1.1914,1.1782,1.1371,1.0126,0.0,0.0,0.0,0.0,0.0,0.0,0.0,0.0,0.0,0.0,0.0,0.0,0.0,0.0,0.0,0.0,0.0,0.0,0.0,0.0,0.0,0.0,0.0,0.0,0.0,0.0,0.0,0.0,0.0,0.0,0.0,0.0,0.0,0.0,0.0,0.0,0.0,0.0,0.0,0.0,0.0,0.0,0.0,0.0,0.0,0.0,0.0,0.0,0.0,0.0,0.0,0.0,0.0,0.0,0.0,0.0,0.0,0.0,0.0,0.0,0.0,0.0,0.0,0.0,0.0,0.0,0.0,0.0,0.0,0.0,0.0,0.0,0.0,0.0,0.0,0.0,0.0,0.0,0.0,0.0,0.0,0.0,0.0,0.0,0.0,0.0,0.0,0.0,0.0,0.0,0.0,0.0,0.0,0.0,0.0,0.0,0.0,0.0,0.0,0.0,0.0,0.0,0.0,0.0,0.0,0.0,0.0,0.0,0.0,1.4584,1.5657,1.5475,1.4073,1.2801,1.1414,0.0,0.0,0.0,0.0,0.0,0.0,0.0,0.0,0.0,0.0,0.0,0.0,0.0,0.0,0.0,0.0,0.0,0.0,0.0,0.0,0.0,0.0,0.0,0.0,0.0,0.0,0.0,0.0,0.0,0.0,0.0,0.0,0.0,0.0,0.0,0.0,0.0,0.0,0.0,0.0,0.0,0.0,0.0,0.0,0.0,0.0,0.0,0.0,0.0,0.0,0.0,0.0,0.0,0.0,0.0,0.0,0.0,0.0,0.0,0.0,0.0,0.0,0.0,0.0,0.0,0.0,0.0,0.0,0.0,0.0,0.0,0.0,0.0,0.0,0.0,0.0,0.0,0.0,0.0,0.0,0.0,0.0,0.0,0.0,0.0,0.0,0.0,0.0,0.0,0.0,0.0,0.0,0.0,0.0,0.0,0.0,0.0,0.0,0.0,0.0,0.0,0.0,0.0,0.0,0.0,0.0,0.0,0.0,1.4073,1.6177,1.7901,1.8281,1.7147,1.49,1.3064,0.0,0.0,0.0,0.0,0.0,0.0,0.0,0.0,0.0,0.0,0.0,0.0,0.0,0.0,0.0,0.0,0.0,0.0,0.0,0.0,0.0,0.0,0.0,0.0,0.0,0.0,0.0,0.0,0.0,0.0,0.0,0.0,0.0,0.0,0.0,0.0,0.0,0.0,0.0,0.0,0.0,0.0,0.0,0.0,0.0,0.0,0.0,0.0,0.0,0.0,0.0,0.0,0.0,0.0,0.0,0.0,0.0,0.0,0.0,0.0,0.0,0.0,0.0,0.0,0.0,0.0,0.0,0.0,0.0,0.0,0.0,0.0,0.0,0.0,0.0,0.0,0.0,0.0,0.0,0.0,0.0,0.0,0.0,0.0,0.0,0.0,0.0,0.0,0.0,0.0,0.0,0.0,0.0,0.0,0.0,0.0,0.0,0.0,0.0,0.0,0.0,0.0,0.0,0.0,0.0,0.0,0.0,0.0,1.5496,1.7375,1.9275,2.0241,2.0225,1.7258,1.4827,0.0,0.0,0.0,0.0,0.0,0.0,0.0,0.0,0.0,0.0,0.0,0.0,0.0,0.0,0.0,0.0,0.0,0.0,0.0,0.0,0.0,0.0,0.0,0.0,0.0,0.0,0.0,0.0,0.0,0.0,0.0,0.0,0.0,0.0,0.0,0.0,0.0,0.0,0.0,0.0,0.0,0.0,0.0,0.0,0.0,0.0,0.0,0.0,0.0,0.0,0.0,0.0,0.0,0.0,0.0,0.0,0.0,0.0,0.0,0.0,0.0,0.0,0.0,0.0,0.0,0.0,0.0,0.0,0.0,0.0,0.0,0.0,0.0,0.0,0.0,0.0,0.0,0.0,0.0,0.0,0.0,0.0,0.0,0.0,0.0,0.0,0.0,0.0,0.0,0.0,0.0,0.0,0.0,0.0,0.0,0.0,0.0,0.0,0.0,0.0,0.0,0.0,0.0,0.0,0.0,0.0,0.0,0.0,1.6133,1.8057,1.9713,2.0722,2.0955,1.8325,1.6148,0.0,0.0,0.0,0.0,0.0,0.0,0.0,0.0,0.0,0.0,0.0,0.0,0.0,0.0,0.0,0.0,0.0,0.0,0.0,0.0,0.0,0.0,0.0,0.0,0.0,0.0,0.0,0.0,0.0,0.0,0.0,0.0,0.0,0.0,0.0,0.0,0.0,0.0,0.0,0.0,0.0,0.0,0.0,0.0,0.0,0.0,0.0,0.0,0.8126,0.0,0.0,0.0,0.0,0.0,0.0,0.0,0.0,0.0,0.0,0.0,0.0,0.0,0.0,0.0,0.0,0.0,0.0,0.0,0.0,0.0,0.0,0.0,0.0,0.0,0.0,0.0,0.0,0.0,0.0,0.0,0.0,0.0,0.0,0.0,0.0,0.0,0.0,0.0,0.0,0.0,0.0,0.0,0.0,0.0,0.0,0.0,0.0,0.0,0.0,0.0,0.0,0.0,0.0,0.0,0.0,0.0,0.0,0.0,1.6813,1.8716,2.002,2.0853,2.113,1.9286,1.734,0.0,0.0,0.0,0.0,0.0,0.0,0.0,0.0,0.0,0.0,0.0,0.0,0.0,0.0,0.0,0.0,0.0,0.0,0.0,0.0,0.0,0.0,0.0,0.0,0.0,0.0,0.0,0.0,0.0,0.0,0.0,0.0,0.0,0.0,0.0,0.0,0.0,0.0,0.0,0.0,0.0,0.0,0.0,0.0,0.0,0.0,0.0,0.0,0.0,0.0,0.0,0.0,0.0,0.0,0.0,0.0,0.0,0.0,0.0,0.0,0.0,0.0,0.0,0.0,0.0,0.0,0.0,0.0,0.0,0.0,0.0,0.0,0.0,0.0,0.0,0.0,0.0,0.0,0.0,0.0,0.0,0.0,0.0,0.0,0.0,0.0,0.0,0.0,0.0,0.0,0.0,0.0,0.0,0.0,0.0,0.0,0.0,0.0,0.0,0.0,0.0,0.0,0.0,0.0,0.0,0.0,0.0,1.518,1.7431,1.9312,2.0296,2.0897,2.1174,1.9945,1.8257,1.6052,0.0,0.0,0.0,0.0,0.0,0.0,0.0,0.0,0.0,0.0,0.0,0.0,0.0,0.0,0.0,0.0,0.0,0.0,0.0,0.0,0.0,0.0,0.0,0.0,0.0,0.0,0.0,0.0,0.0,0.0,0.0,0.0,0.0,0.0,0.0,0.0,0.0,0.0,0.7794,0.9057,0.0,0.0,0.0,0.0,0.0,0.0,0.0,0.0,0.9952,0.0,0.0,0.0,0.0,0.0,0.0,0.0,0.0,0.0,0.0,0.0,0.0,0.0,0.0,0.0,0.0,0.0,0.0,0.0,0.0,0.0,0.0,0.0,0.0,0.0,0.0,0.0,0.0,0.0,0.0,0.0,0.0,0.0,0.0,0.0,0.0,0.0,0.0,0.0,0.0,0.0,0.0,0.0,0.0,0.0,0.0,0.0,0.0,0.0,0.0,0.0,0.0,0.0,0.0,0.0,0.0,1.3316,1.5641,1.7768,1.9664,2.0633,2.1131,2.1174,1.9959,1.836,1.6345,0.0,0.0,0.0,0.0,0.0,0.0,0.0,0.0,0.0,0.0,0.0,0.0,0.0,0.0,0.0,0.0,0.0,0.0,0.0,0.0,0.0,0.0,0.0,0.0,0.0,0.0,0.0,0.0,0.0,0.0,0.0,0.0,0.0,0.0,0.0,0.0,0.0,0.0,0.0,1.0402,1.0975,0.0,0.0,0.0,0.0,0.0,0.0,0.0,0.0,1.0585,0.0,0.0,0.0,0.0,0.0,0.0,0.0,0.0,0.0,0.0,0.0,0.0,0.0,0.0,0.0,0.0,0.0,0.0,0.0,0.0,0.0,0.0,0.0,0.0,0.0,0.0,0.0,0.0,0.0,0.0,0.0,0.0,0.0,0.0,0.0,0.0,0.0,0.0,0.0,0.0,0.0,0.0,0.0,0.0,0.0,0.0,0.0,0.0,0.0,0.0,0.0,0.0,0.0,0.0,0.0,1.3964,1.6052,1.8043,1.9945,2.0633,2.0926,2.0925,1.9898,1.8301,0.0,0.0,0.0,0.0,0.0,0.0,0.0,0.0,0.0,0.0,0.0,0.0,0.0,0.0,0.0,0.0,0.0,0.0,0.0,0.0,0.0,0.0,0.0,0.0,0.0,0.0,0.0,0.0,0.0,0.0,0.0,0.0,0.0,0.0,0.0,0.0,0.0,0.0,0.0,0.0,1.1417,1.1989,1.2017,0.0,0.0,0.0,0.0,0.0,0.0,1.1832,1.1756,0.0,0.0,0.0,0.0,0.0,0.0,0.0,0.0,0.0,0.0,0.0,0.0,0.0,0.0,0.0,0.0,0.0,0.0,0.0,0.0,0.0,0.0,0.0,0.0,0.0,0.0,0.0,0.0,0.0,0.0,0.0,0.0,0.0,0.0,0.0,0.0,0.0,0.0,0.0,0.0,0.0,0.0,0.0,0.0,0.0,0.0,0.0,0.0,0.0,0.0,0.0,0.0,0.0,0.0,0.0,1.4364,1.6389,1.8281,2.0035,2.0374,2.0507,2.0492,1.9485,1.7897,0.0,0.0,0.0,0.0,0.0,0.0,0.0,0.0,0.0,0.0,0.0,0.0,0.0,0.0,0.0,0.0,0.0,0.0,0.0,0.0,0.0,0.0,0.0,0.0,0.0,0.0,0.0,0.0,0.0,0.0,0.0,0.0,0.0,0.0,0.0,0.0,0.0,0.0,0.0,0.0,0.0,1.2941,1.2779,1.3182,0.0,0.0,0.0,0.0,1.3041,1.3332,0.0,0.0,0.0,0.0,0.0,0.0,0.0,0.0,0.0,0.0,0.0,0.0,0.0,0.0,0.0,0.0,0.0,0.0,0.0,0.0,0.0,0.0,0.0,0.0,0.0,0.0,0.0,0.0,0.0,0.0,0.0,0.0,0.0,0.0,0.0,0.0,0.0,0.0,0.0,0.0,0.0,0.0,0.0,0.0,0.0,0.0,0.0,0.0,0.0,0.0,0.0,0.0,0.0,0.0,0.0,0.0,1.4037,1.6491,1.8423,1.9755,1.9876,1.9883,1.9869,1.8422,1.6836,0.0,0.0,0.0,0.0,0.0,0.0,0.0,0.0,0.0,0.0,0.0,0.0,0.0,0.0,0.0,0.0,0.0,0.0,0.0,0.0,0.0,0.0,0.0,0.0,0.0,0.0,0.0,0.0,0.0,0.0,0.0,0.0,0.0,0.0,0.0,0.0,0.0,0.0,0.0,0.0,0.0,1.3606,1.365,1.4129,1.4198,0.0,0.0,1.4129,1.358,1.4621,0.0,0.0,0.0,0.0,0.0,0.0,0.0,0.0,0.0,0.0,0.0,0.0,0.0,0.0,0.0,0.0,0.0,0.0,0.0,0.0,0.0,0.0,0.0,0.0,0.0,0.0,0.0,0.0,0.0,0.0,0.0,0.0,0.0,0.0,0.0,0.0,0.0,0.0,0.0,0.0,0.0,0.0,0.0,0.0,0.0,0.0,0.0,0.0,0.0,0.0,0.0,0.0,0.0,0.0,0.0,1.2089,1.4482,1.6674,1.8452,1.9737,1.9806,1.9717,1.9501,1.8168,1.667,0.0,0.0,0.0,0.0,0.0,0.0,0.0,0.0,0.0,0.0,0.0,0.0,0.0,0.0,0.0,0.0,0.0,0.0,0.0,0.0,0.0,0.0,0.0,0.0,0.0,0.0,0.0,0.0,0.0,0.0,0.0,0.0,0.0,0.0,0.0,0.0,0.0,0.0,0.0,0.0,0.0,0.0,1.409,1.4758,0.0,0.0,0.0,1.4256,1.423,0.0,0.0,0.0,0.0,0.0,0.0,0.0,0.0,0.0,0.0,0.0,0.0,0.0,0.0,0.0,0.0,0.0,0.0,0.0,0.0,0.0,0.0,0.0,0.0,0.0,0.0,0.0,0.0,0.0,0.0,0.0,0.0,0.0,0.0,0.0,0.0,0.0,0.0,0.0,0.0,0.0,0.0,0.0,0.0,0.0,0.0,0.0,0.0,0.0,0.0,0.0,0.0,0.0,0.0,0.0,0.0,0.0,1.479,1.6802,1.8371,1.9394,1.9399,1.9211,1.8872,1.7906,0.0,0.0,0.0,0.0,0.0,0.0,0.0,0.0,0.0,0.0,0.0,0.0,0.0,0.0,0.0,0.0,0.0,0.0,0.0,0.0,0.0,0.0,0.0,0.0,0.0,0.0,0.0,0.6172,0.0,0.0,0.0,0.0,0.0,0.0,0.0,0.0,0.0,0.0,0.0,0.0,0.0,0.0,1.3779,1.3716,1.4551,1.4643,0.0,0.0,1.4385,1.4631,1.4867,1.4822,0.0,0.0,0.0,0.0,0.0,0.0,0.0,0.0,0.0,0.0,0.0,0.0,0.0,0.0,0.0,0.0,0.0,0.0,0.0,0.0,0.0,0.0,0.0,0.0,0.0,0.0,0.0,0.0,0.0,0.0,0.0,0.0,0.0,0.0,0.0,0.0,0.0,0.0,0.0,0.0,0.0,0.0,0.0,0.0,0.0,0.0,0.0,0.0,0.0,0.0,0.0,0.0,0.0,0.0,1.254,1.4528,1.6741,1.811,1.8489,1.8254,1.7999,1.7711,1.7328,1.6209,0.0,0.0,0.0,0.0,0.0,0.0,0.0,0.0,0.0,0.0,0.0,0.0,0.0,0.0,0.0,0.0,0.0,0.0,0.0,0.0,0.0,0.0,0.0,0.0,0.0,0.0,0.0,0.0,0.0,0.0,0.0,0.0,0.0,0.0,0.0,0.0,0.0,0.0,0.0,0.0,0.0,1.1966,1.2137,1.2861,1.3278,0.0,1.4173,1.5002,1.4646,1.6309,1.6631,1.3681,0.0,0.0,0.0,0.0,0.0,0.0,0.0,0.0,0.0,0.0,0.0,0.0,0.0,0.0,0.0,0.0,0.0,0.0,0.0,0.0,0.0,0.0,0.0,0.0,0.0,0.0,0.0,0.0,0.0,0.0,0.0,0.0,0.0,0.0,0.0,0.0,0.0,0.0,0.0,0.0,0.0,0.0,0.0,0.0,0.0,0.0,0.0,0.0,0.0,0.0,0.0,0.0,0.0,1.2867,1.4792,1.689,1.8105,1.8382,1.8472,1.8421,1.8152,1.7661,1.6638,0.0,0.0,0.0,0.0,0.0,0.0,0.0,0.0,0.0,0.0,0.0,0.0,0.0,0.0,0.0,0.0,0.0,0.0,0.0,0.0,0.0,0.0,0.0,0.0,0.0,0.0,0.0,0.0,1.1012,1.1366,1.0392,0.0,0.0,0.0,0.0,0.0,0.0,0.0,0.0,0.0,0.0,1.2137,1.2615,1.3088,0.0,0.0,1.2657,1.3095,1.2967,1.3528,1.3684,1.27,1.2134,0.0,0.0,0.0,0.0,0.0,0.0,0.0,0.0,0.0,0.0,0.0,0.0,0.0,0.0,0.0,0.0,0.0,0.0,0.0,0.0,0.0,0.0,0.0,0.0,0.0,0.0,0.0,0.0,0.0,0.0,0.0,0.0,0.0,0.0,0.0,0.0,0.0,0.0,0.0,0.0,0.0,0.0,0.0,0.0,0.0,0.0,0.0,0.0,0.0,0.0,0.0,0.0,1.3101,1.5134,1.704,1.8154,1.8436,1.8643,1.8645,1.836,1.8047,1.7287,0.0,0.0,0.0,0.0,0.0,0.0,0.0,0.0,0.0,0.0,0.0,0.0,0.0,0.0,0.0,0.0,0.0,0.0,0.0,0.0,0.0,0.0,0.0,0.0,0.0,0.0,0.0,0.0,1.1591,1.1458,0.9954,0.0,0.0,0.0,0.0,0.0,0.0,0.0,0.0,0.0,0.0,1.1373,1.2024,1.2285,1.2117,1.1317,1.1532,1.1798,1.182,1.2117,1.2225,1.1846,0.0,0.0,0.0,0.0,0.0,0.0,0.0,0.0,0.0,0.0,0.0,0.0,0.0,0.0,0.0,0.0,0.0,0.0,0.0,0.0,0.0,0.0,0.0,0.0,0.0,0.0,0.0,0.8911,0.0,0.0,0.6595,0.0,0.0,0.0,0.0,0.0,0.0,0.0,0.0,0.0,0.0,0.0,0.0,0.0,0.0,0.0,0.0,0.0,0.0,0.0,0.0,0.0,0.0,1.3215,1.5445,1.7147,1.817,1.8492,1.8505,1.8371,1.8049,1.8317,1.801,1.7,0.0,0.0,0.0,0.0,0.0,0.0,0.0,0.0,0.0,0.0,0.0,0.0,0.0,0.0,0.0,0.0,0.0,0.0,0.0,0.0,0.0,0.0,0.0,0.0,0.0,0.0,0.982,1.015,1.0007,0.0,0.0,0.0,0.0,0.0,0.0,0.0,0.0,0.0,0.904,0.9049,0.9207,0.9817,0.9906,1.0046,1.031,1.1094,1.1669,1.1661,1.2947,1.3319,0.0,0.0,0.0,0.0,0.0,0.0,0.0,0.0,0.0,0.0,0.0,0.0,0.0,0.0,0.0,0.0,0.0,0.0,0.0,0.0,0.0,0.0,0.0,0.0,0.0,0.0,0.0,1.016,1.0634,0.0,0.0,0.0,0.0,0.0,0.0,0.0,0.0,0.0,0.0,0.0,1.3144,1.3337,0.0,0.0,0.0,0.0,0.0,0.0,0.0,0.0,0.0,0.0,0.0,0.0,1.3601,1.5286,1.7078,1.8171,1.8477,1.8677,1.8703,1.8609,1.8689,1.8251,1.7162,0.0,0.0,0.0,0.0,0.0,0.0,0.0,0.0,0.0,0.0,0.0,0.0,0.0,0.0,0.0,0.0,0.0,0.0,0.0,0.0,0.0,0.0,0.0,0.0,0.0,0.9481,0.0,0.0,0.0,0.0,0.0,0.0,0.0,0.0,0.0,0.0,0.0,0.8195,0.8864,0.9209,0.9442,0.9647,0.9669,0.9702,0.0,0.0,0.0,0.0,0.0,0.0,0.0,0.0,0.0,0.0,0.0,0.0,0.0,0.0,0.8098,0.7245,0.7246,0.7559,0.816,0.0,0.0,0.0,0.0,0.0,0.0,0.0,0.0,0.0,0.0,0.0,0.0,0.0,0.0,1.2104,0.0,1.1935,0.0,0.0,0.0,0.0,0.0,0.0,0.0,0.0,1.4393,1.5004,1.5181,1.5336,1.5432,0.0,1.4832,1.3543,0.0,0.0,0.0,0.0,0.0,0.0,0.0,0.0,1.4281,1.5821,1.7447,1.8476,1.8784,1.8985,1.9078,1.9078,1.9078,1.8664,1.7822,1.6752,1.5431,0.0,0.0,0.0,0.0,0.0,0.0,0.0,0.0,0.0,0.0,0.0,0.0,0.0,0.0,0.0,0.0,0.0,0.0,0.0,0.0,0.0,0.0,0.0,0.9292,0.0,0.0,0.0,0.0,0.0,0.0,0.0,0.0,0.0,0.8049,0.8141,0.8335,0.8899,0.9293,0.9472,0.9398,0.0,0.0,0.0,0.0,0.0,0.0,0.0,0.9019,0.8544,0.8743,0.898,0.8922,0.9112,0.9172,0.8904,0.0,0.0,0.7356,0.7273,0.7768,0.8958,0.9061,0.9065,0.9534,0.9763,1.0109,0.0,0.0,0.0,0.0,0.0,0.0,0.0,0.0,1.4207,1.4442,0.0,1.4089,0.0,0.0,0.0,0.0,1.2294,1.3863,0.0,0.0,1.6867,1.7527,1.7286,1.7286,1.7286,1.7246,1.6683,1.6314,1.6011,1.3633,0.0,0.0,0.0,0.0,0.0,0.0,1.5111,1.6862,1.8075,1.8922,1.9187,1.9243,1.9272,1.9301,1.9301,1.9168,1.889,1.8076,1.7341,1.67,1.4015,0.0,0.0,0.0,0.0,0.0,0.0,0.0,0.0,0.0,0.0,0.0,0.0,0.0,0.0,0.0,0.0,0.0,0.0,0.0,0.0,0.8935,0.0,0.0,0.0,0.0,0.0,0.0,0.0,0.0,0.0,0.7936,0.8748,0.8593,0.858,0.9054,0.0,0.0,0.0,0.0,0.957,0.922,0.9194,0.9126,0.9036,0.9224,0.9271,0.8923,0.0,0.0,0.9314,0.932,0.9353,0.9326,0.9314,0.9026,0.8171,0.8001,0.8401,0.9533,0.9901,1.0017,0.9869,1.0049,1.0297,1.569,0.0,0.0,0.0,0.0,1.396,1.5035,1.6741,1.6541,1.6523,1.6612,1.5979,0.0,0.0,0.0,0.0,0.0,0.0,1.6323,1.7177,1.8306,1.89,1.9052,1.9252,1.9239,1.9025,1.8692,1.8385,1.8077,1.7138,1.5612,1.3537,0.0,0.0,0.0,0.0,1.4578,1.5974,1.6167,1.635,1.6691,1.6703,1.7114,1.801,1.8052,1.8435,1.921,1.9013,1.8411,1.7394,1.6351,0.0,0.0,0.0,0.0,0.0,0.0,0.0,0.0,0.0,0.0,0.0,0.0,0.0,0.0,0.0,0.0,0.0,0.0,0.0,0.8329,0.8427,0.8177,0.0,0.0,0.0,0.0,0.0,0.0,0.0,0.0,0.0,0.8784,0.8741,0.8822,0.0,0.0,0.9116,0.8842,0.8992,0.9107,0.901,0.8857,0.0,0.9038,0.9129,0.9081,0.8743,0.9102,0.9503,0.9684,0.9929,1.0029,0.99,0.9736,0.944,0.8842,0.8994,0.9396,0.9881,1.0144,1.0232,1.0019,1.0169,1.0468,1.8646,1.7334,1.5846,1.5586,1.6211,1.6433,1.7286,1.8441,1.8266,1.8185,1.8158,1.7686,1.6882,1.5911,1.5879,0.0,0.0,0.0,1.7814,1.8684,1.9239,1.9665,1.9973,2.0117,1.9832,1.918,1.9013,1.8538,1.7774,1.7505,1.6508,1.4764,0.0,0.0,1.4045,1.3844,1.4268,1.5254,1.5299,1.54,1.5599,1.5599,1.5954,1.6691,1.675,1.7103,1.786,1.7877,1.7551,1.683,1.6201,1.4651,0.0,0.0,0.0,0.0,0.0,0.0,0.0,0.0,0.0,0.0,0.0,0.6096,0.6863,0.0,0.0,0.0,0.8475,0.8746,0.869,0.8503,0.0,0.0,0.0,0.0,0.0,0.0,0.0,0.7482,0.7987,0.8365,0.8441,0.8602,0.8828,0.9062,0.9115,0.9054,0.8697,0.0,0.9096,0.8929,0.8822,0.8788,0.8963,0.9064,0.9063,0.8901,0.9166,0.9491,0.9764,0.9998,1.0081,0.9993,0.9897,0.9674,0.9269,0.952,0.9771,0.9847,1.0003,1.0159,1.0257,1.0481,1.0706,2.1042,2.0583,1.7884,1.7146,1.7765,1.8306,1.898,1.9589,1.9548,1.9535,1.9508,1.9145,1.86,1.8007,1.7972,0.0,1.8737,1.8861,1.9149,1.9565,1.9681,1.9839,1.9964,1.9964,1.9351,1.8125,1.8089,1.7418,1.6219,1.5892,1.5421,1.4861,1.5063,1.4455,1.3148,1.3496,1.4016,1.4618,1.5051,1.5273,1.5302,1.5302,1.5362,1.5451,1.5451,1.548,1.554,1.5569,1.554,1.5478,1.4449,1.3642,1.3046,0.0,0.0,0.0,0.0,0.0,0.0,0.0,0.0,0.0,0.0,0.0,0.0,0.0,0.0,0.817,0.8605,0.0,0.956,0.896,0.0,0.0,0.0,0.8111,0.8292,0.8274,0.8186,0.8006,0.0,0.0,0.7971,0.8307,0.8684,0.8847,0.9004,0.8984,0.8695,0.9137,0.9329,0.9027,0.8962,0.8941,0.8932,0.9035,0.916,0.9264,0.9313,0.9414,0.9633,0.973,0.9747,0.9824,0.9813,0.9775,0.9753,0.9725,0.9731,0.9752,0.9731,0.9919,1.0485,1.0736,1.0832,2.1937,2.1649,2.0935,2.0644,2.06,2.0748,2.1025,2.1309,2.0895,2.0695,2.0641,1.9907,1.9403,1.903,1.9248,1.8832,1.803,1.9545,1.9246,1.7641,1.8836,1.8947,1.8158,1.8136,1.7972,1.7653,1.7291,1.6956,1.6615,1.62,1.5453,1.4411,1.4281,1.4252,1.4231,1.346,1.3327,1.3917,1.312,1.2702,1.2694,1.2694,1.3174,1.4113,1.4143,1.447,1.5173,1.5213,1.5084,1.4837,1.4583,1.3649,1.2072,1.1453,0.0,0.0,0.0,0.0,0.0,0.0,0.0,0.0,0.0,0.6827,0.7576,0.0,0.9196,0.0,0.9355,0.9548,0.9471,0.9301,0.0,0.0,0.8638,0.8455,0.8398,0.8538,0.8462,0.8005,0.8343,0.852,0.8327,0.847,0.8645,0.8811,0.8888,0.8934,0.8992,0.9158,0.9361,0.934,0.9336,0.9358,0.9325,0.9271,0.9276,0.9427,0.9367,0.9389,0.9665,0.9703,0.9731,0.9927,0.9937,0.9926,0.9932,0.9938,0.9932,0.9938,0.9938,0.9944,1.0052,1.0157,1.0324,2.1822,2.1679,2.1712,2.1699,2.1693,2.1859,2.2031,2.2151,2.183,2.1664,2.1611,2.094,2.0077,1.9256,1.9379,1.8692,1.751,1.8617,1.8366,1.7076,1.8038,1.8161,1.7511,1.7478,1.7175,1.6557,1.6281,1.5814,1.5157,1.4905,1.4322,1.3513,1.3375,1.3428,1.3608,1.2781,1.2445,1.2616,1.1841,1.1462,1.1462,1.1432,1.1718,1.2294,1.2315,1.251,1.2951,1.2971,1.2854,1.2707,1.2678,1.2235,1.1215,1.0785,0.974,0.0,0.0,0.0,0.0,0.0,0.0,0.0,0.0,0.0,0.0,0.0,0.9678,0.9527,0.9685,0.9727,0.9503,0.9329,0.8968,0.8177,0.7925,0.7538,0.6927,0.69,0.7325,0.8347,0.7443,0.6709,0.6585,0.6689,0.6811,0.6901,0.695,0.7562,0.8923,0.9351,0.9529,0.9557,0.9515,0.9531,0.9633,0.9639,0.9606,0.9568,0.9514,0.953,0.9709,0.9791,0.9883,1.0057,1.0101,1.0085,0.9991,1.0019,1.0019,1.0019,1.0019,0.9998,0.9899,0.9937,1.0097,2.1077,2.1052,2.0885,2.0975,2.1217,2.1582,2.1852,2.202,2.1994,2.1888,2.1675,2.1299,2.0243,1.8823,1.8747,1.8005,1.6762,1.7017,1.6957,1.6645,1.7053,1.7123,1.6885,1.6987,1.6376,1.5158,1.514,1.4461,1.3131,1.3073,1.287,1.258,1.2491,1.2395,1.2202,1.1896,1.1582,1.1247,1.111,1.103,1.0977,1.0977,1.0859,1.0636,1.0628,1.0516,1.0287,1.0258,1.0214,1.0185,1.0207,1.0296,1.0473,0.9785,0.922,0.0,0.7949,0.0,0.0,0.0,0.0,0.0,0.0,0.0,0.0,0.9239,0.9617,0.9584,0.9468,0.9318,0.9099,0.8762,0.8074,0.6954,0.6647,0.6052,0.5023,0.4672,0.5541,0.8108,0.5967,0.4279,0.4225,0.4319,0.4493,0.4671,0.4871,0.5832,0.8084,0.8965,0.9243,0.9435,0.9537,0.9645,0.9796,0.9921,0.9921,0.9737,0.9703,0.9747,0.9775,0.9872,1.0036,1.0161,1.0193,1.0166,1.0068,1.0041,0.9997,1.009,1.0101,1.004,1.0052,1.0008,1.0008,1.9936,1.9739,1.8649,1.8156,1.8089,1.8151,1.8895,2.005,1.9837,1.9049,1.798,1.8428,1.8306,1.7751,1.7429,1.657,1.5346,1.6386,1.5603,1.3461,1.5165,1.5149,1.3782,1.4285,1.4285,1.3712,1.3862,1.3641,1.3087,1.2937,1.2665,1.2289,1.2025,1.1848,1.1803,0.0,0.0,0.0,1.1127,1.111,1.1015,1.0977,1.0911,1.0778,1.0651,0.0,1.0155,1.0033,0.9845,0.9591,0.9673,0.0,0.0,0.0,0.0,0.0,0.0,0.0,0.0,0.0,0.0,0.0,0.9207,0.9254,0.9247,0.9564,0.9414,0.8584,0.7713,0.6956,0.6318,0.593,0.5599,0.5362,0.5136,0.4913,0.4673,0.4436,0.4361,0.4046,0.4176,0.3986,0.3286,0.3911,0.446,0.4325,0.466,0.5,0.5497,0.6878,0.7755,0.7971,0.8977,0.985,0.997,0.9915,0.9932,0.9835,0.9758,0.9726,0.978,0.9823,0.996,1.0155,1.0204,1.021,1.0244,1.0112,1.0106,1.0351,1.0351,1.0286,1.0193,1.0166,1.0199,1.7888,1.776,1.7086,1.6748,0.0,1.666,1.6695,1.6791,1.7764,1.7689,1.6889,1.7207,1.6827,1.5905,1.5639,1.4814,1.3583,1.4156,1.3717,1.2585,1.3576,1.3629,1.2789,1.3182,1.3253,1.3039,1.3168,1.3091,1.2795,1.2711,1.2524,1.2227,1.2029,1.1948,1.1948,1.1618,1.1286,1.0999,1.092,1.0824,1.0746,1.077,1.0632,1.0398,1.035,0.0,0.0,0.0,0.0,0.0,0.0,0.0,0.0,0.9762,0.0,0.9526,0.9325,0.9257,0.9318,0.9339,0.9206,0.8909,0.82,0.808,0.8708,0.8736,0.8221,0.7083,0.6004,0.5328,0.5191,0.492,0.4467,0.3813,0.3526,0.3141,0.2461,0.2228,0.2,0.1607,0.1866,0.1989,0.1544,0.1909,0.2272,0.2273,0.2369,0.0,0.2654,0.4589,0.6342,0.7022,0.877,0.956,0.8722,0.9428,0.9964,0.9894,0.9878,0.9867,0.9878,0.9937,1.0063,1.0182,1.0204,1.021,1.0226,1.021,1.0215,1.0275,1.0422,1.046,1.0269,1.0204,1.0221,1.5744,1.5672,1.5425,1.5319,1.5318,1.5318,1.4635,1.3678,0.0,0.0,0.0,1.6065,1.5323,1.4036,1.3866,1.3209,1.2204,1.2003,1.2091,1.2348,1.2389,1.244,1.2565,1.2672,1.2708,1.2644,1.2738,1.2686,1.2461,1.2453,1.2317,1.2115,1.2086,1.2049,1.2027,1.1744,1.1423,1.1056,1.074,1.0588,1.0534,1.0534,1.036,1.0069,1.0055,1.0001,0.991,0.9873,0.9903,0.9903,0.9903,0.99,0.9978,0.992,0.9879,0.9856,0.9819,0.9797,0.974,0.9754,0.9329,0.8215,0.6681,0.6357,0.7614,0.7285,0.6543,0.5352,0.4134,0.3592,0.4062,0.3935,0.3342,0.2162,0.1872,0.1258,0.0,0.0,0.0,0.0,0.0,0.0,0.0,0.0,0.0,0.0,0.0,0.0,0.0,0.2696,0.4885,0.5886,0.7441,0.827,0.6926,0.7616,0.9094,0.9305,0.9431,0.9612,0.9881,1.0068,1.0144,1.0193,1.0204,1.0215,1.0237,1.0291,1.0337,1.0083,1.0378,1.0538,1.034,1.0248,1.0242,1.4305,1.411,1.2894,1.2337,1.2223,1.2223,1.2186,1.2147,1.2712,1.2888,1.2866,1.3207,1.3227,1.2998,1.2628,1.2394,1.2194,1.1817,1.1688,1.1722,1.1945,1.1896,1.1635,1.2235,1.2375,1.2171,1.2579,1.2602,1.2273,1.223,1.2037,1.1716,1.1564,1.1469,1.1345,1.1303,1.1234,1.1173,1.1104,1.0941,1.0664,1.069,1.0548,1.027,1.0249,1.0243,1.0215,1.0222,1.0215,1.0215,1.0247,1.0331,1.0535,1.0434,1.0507,1.0704,1.0691,1.0171,0.8884,0.8889,0.8172,0.6483,0.5767,0.5688,0.6111,0.533,0.4465,0.3667,0.1861,0.0752,0.1121,0.0987,0.0,0.0,0.0,0.0,0.0,0.0,0.0,0.0,0.0,0.0,0.0,0.0,0.0,0.0,0.0,0.0,0.0,0.1603,0.2992,0.3738,0.4834,0.5031,0.4402,0.4828,0.6146,0.7511,0.7709,0.8165,0.9463,0.9653,0.981,1.0155,1.0161,1.021,1.0297,1.0307,1.032,1.0264,1.0351,1.0378,1.0462,1.0424,1.0346,1.2712,1.2589,1.194,1.1644,1.159,1.1701,1.1816,1.1982,1.2068,1.2102,1.1982,1.2079,1.2151,1.2108,1.1888,1.1795,1.1864,1.1514,1.1463,1.1599,1.1676,1.1565,1.1459,1.1748,1.1811,1.1713,1.1917,1.2002,1.1864,1.1871,1.1763,1.1613,1.1545,1.1477,1.1416,1.1409,1.1409,1.1409,1.1281,1.1132,1.0962,1.0962,1.0894,1.0791,1.0791,1.0791,1.0791,1.0791,1.0791,1.0791,1.0791,1.0853,1.0948,1.0112,0.9555,0.9463,0.8673,0.7809,0.691,0.6156,0.5397,0.455,0.3392,0.2837,0.3,0.35,0.3209,0.1927,0.0833,0.0291,0.0287,0.0108,0.0,0.0,0.0,0.0,0.0,0.0,0.0,0.0,0.0,0.0,0.0,0.0,0.0,0.0,0.0,0.0,0.0,0.0,0.0,0.1529,0.1953,0.2481,0.2721,0.2411,0.339,0.5569,0.6036,0.6732,0.8096,0.8446,0.8835,0.973,0.9916,0.996,1.0074,1.0117,1.0144,1.0182,1.0324,1.0378,1.0313,1.0269,1.0313,1.1584,1.1584,1.1584,1.1584,1.1597,1.1732,1.1904,1.2043,1.2009,1.1911,1.1786,1.1678,1.1617,1.1606,1.1491,1.1504,1.1543,1.1375,1.1396,1.1592,1.1463,1.1431,1.1431,1.1431,1.1431,1.1396,1.1423,1.1525,1.1617,1.1667,1.1631,1.1624,1.1597,1.1584,1.1584,1.1584,1.1584,1.1606,1.1417,1.1281,1.1247,1.1247,1.1234,1.12,1.1227,1.1247,1.1254,1.0857,1.0626,1.0626,1.0212,0.9962,0.9916,0.8751,0.7931,0.7597,0.6516,0.5579,0.4929,0.3493,0.2626,0.265,0.1256,0.0433,0.0582,0.1732,0.1972,0.0647,0.0435,0.0328,0.0,0.0,0.0,0.0,0.0,0.0,0.0,0.0,0.0,0.0,0.0,0.0,0.0,0.0,0.0,0.0,0.0,0.0,0.0,0.0,0.0,0.0,0.0,0.0,0.1665,0.0992,0.1472,0.4001,0.4377,0.5089,0.6223,0.6724,0.7381,0.8619,0.9113,0.931,0.9644,0.9873,0.9932,0.996,1.0117,1.0253,1.0144,1.0161,1.0259,1.159,1.1584,1.1597,1.1584,1.1611,1.1739,1.1813,1.1807,1.1685,1.1692,1.1786,1.178,1.1698,1.159,1.1563,1.1563,1.1584,1.1592,1.155,1.1599,1.1463,1.1431,1.1431,1.1431,1.1431,1.1409,1.1446,1.1539,1.1759,1.1773,1.1773,1.1759,1.1644,1.1548,1.1548,1.1548,1.1548,1.1584,1.1556,1.1511,1.1417,1.141,1.1301,1.12,1.1301,1.1369,1.1193,0.9805,0.8924,0.8806,0.718,0.6251,0.6303,0.594,0.5754,0.5856,0.565,0.5071,0.3724,0.1924,0.0908,0.0801,0.04,0.0,0.0,0.0,0.0,0.0,0.0,0.0,0.0,0.0,0.0,0.0,0.0,0.0,0.0,0.0,0.0,0.0,0.0,0.0,0.0,0.0,0.0,0.0,0.0,0.0,0.0,0.0,0.0,0.0,0.0,0.0,0.0,0.0,0.0,0.2269,0.2559,0.3306,0.444,0.5123,0.5543,0.7033,0.7485,0.7944,0.9103,0.9736,0.9634,0.9764,0.9873,0.997,1.0117,1.0193,1.028,1.1252,1.1473,1.1473,1.1657,1.1891,1.1945,1.2002,1.1959,1.1904,1.1864,1.1793,1.1793,1.1719,1.1584,1.1584,1.1584,1.1584,1.1584,1.1584,1.1577,1.1552,1.1477,1.1396,1.1431,1.1431,1.129,1.0557,1.0695,1.1663,1.1918,1.1475,1.0547,1.0377,1.0317,1.0203,0.9327,0.9765,1.1476,0.9585,0.894,0.9834,1.0947,1.1355,1.1018,1.0268,0.9679,0.9328,0.7855,0.7002,0.693,0.6141,0.5738,0.5772,0.4818,0.4192,0.3963,0.2922,0.2027,0.1456,0.0657,0.0255,0.0255,0.0109,0.0,0.0,0.0,0.0,0.0,0.0,0.0,0.0,0.0,0.0,0.0,0.0,0.0,0.0,0.0,0.0,0.0,0.0,0.0,0.0,0.0,0.0,0.0,0.0,0.0,0.0,0.0,0.0,0.0,0.0,0.0,0.0,0.0,0.0,0.0,0.0948,0.1499,0.2856,0.3335,0.3857,0.5502,0.5696,0.6385,0.7872,0.8257,0.8416,0.9072,0.9769,0.9888,1.0248,1.0253,1.0291,1.094,1.1232,1.1239,1.14,1.1702,1.1702,1.1713,1.168,1.1754,1.143,1.0821,1.0888,1.0577,1.0131,1.0635,1.0966,1.0923,1.0527,1.0347,1.0341,1.0341,1.0257,1.0202,1.0196,1.0196,1.0019,0.9054,0.9228,1.0462,1.0679,1.0125,0.9017,0.8701,0.8624,0.8404,0.7226,0.7733,0.9534,0.7445,0.6812,0.7956,0.9267,0.9872,0.9518,0.8528,0.7761,0.744,0.5881,0.5011,0.4975,0.4504,0.4216,0.4143,0.3128,0.2401,0.2037,0.0802,0.0,0.0,0.0,0.0,0.0,0.0,0.0,0.0,0.0,0.0,0.0,0.0,0.0,0.0,0.0,0.0,0.0,0.0,0.0,0.0,0.0,0.0,0.0,0.0,0.0,0.0,0.0,0.0,0.0,0.0,0.0,0.0,0.0,0.0,0.0,0.0,0.0,0.0,0.0,0.0,0.0,0.0,0.0511,0.1457,0.1603,0.2184,0.3663,0.3901,0.4704,0.6217,0.6717,0.7703,0.9026,0.9704,0.9802,1.0047,1.0095,1.0161,1.0706,1.0827,1.0902,1.0798,1.0669,1.0633,1.0632,1.0354,1.0781,0.9963,0.8507,0.8688,0.7842,0.6467,0.8362,0.9363,0.9183,0.7991,0.7412,0.7412,0.7381,0.7259,0.7219,0.7178,0.7251,0.7459,0.713,0.7152,0.7445,0.7578,0.7439,0.7273,0.6811,0.6548,0.6421,0.5927,0.59,0.6301,0.5815,0.5758,0.5887,0.6028,0.6026,0.597,0.5953,0.5881,0.5663,0.4032,0.3016,0.3054,0.1457,0.0,0.0,0.0,0.0,0.0,0.0,0.0,0.0,0.0,0.0,0.0,0.0,0.0,0.0,0.0,0.0,0.0,0.0,0.0,0.0,0.0,0.0,0.0,0.0,0.0,0.0,0.0,0.0,0.0,0.0,0.0,0.0,0.0,0.0,0.0,0.0,0.0,0.0,0.0,0.0,0.0,0.0,0.0,0.0,0.0,0.0,0.0,0.0,0.0,0.0,0.0292,0.0,0.0,0.2221,0.3094,0.455,0.6024,0.7486,0.8661,0.9356,0.9645,0.9895,0.9845,0.9888,1.0424,1.0612,0.9872,0.943,0.9128,0.8164,0.7637,0.7517,0.7625,0.7295,0.6725,0.6772,0.6466,0.581,0.5638,0.6121,0.6942,0.6443,0.6246,0.6217,0.6223,0.6219,0.6213,0.6246,0.6217,0.6105,0.5229,0.4827,0.5114,0.6064,0.606,0.5101,0.4793,0.464,0.4376,0.3436,0.3736,0.5353,0.3698,0.2939,0.375,0.2755,0.2073,0.2137,0.3322,0.3817,0.3562,0.1929,0.102,0.102,0.0,0.0,0.0,0.0,0.0,0.0,0.0,0.0,0.0,0.0,0.0,0.0,0.0,0.0,0.0,0.0,0.0,0.0,0.0,0.0,0.0,0.0,0.0,0.0,0.0,0.0,0.0,0.0,0.0,0.0,0.0,0.0,0.0,0.0,0.0,0.0,0.0,0.0,0.0,0.0,0.0,0.0,0.0,0.0,0.0,0.0,0.0,0.0,0.0,0.0,0.0,0.0,0.0,0.0,0.0,0.1749,0.3278,0.5168,0.6727,0.7847,0.8565,0.9202,0.9703,0.9764,0.9845,0.8512,0.8586,0.7859,0.7435,0.719,0.6059,0.5546,0.5452,0.5558,0.5268,0.4805,0.4802,0.4538,0.3856,0.2807,0.2875,0.3905,0.4159,0.4325,0.429,0.4322,0.4319,0.4292,0.4325,0.4305,0.4165,0.3314,0.2804,0.2991,0.4082,0.403,0.2968,0.279,0.2651,0.2394,0.1409,0.198,0.3128,0.1569,0.0956,0.1673,0.068,0.0,0.0,0.1291,0.1828,0.153,0.0547,0.0,0.0,0.0,0.0,0.0,0.0,0.0,0.0,0.0,0.0,0.0,0.0,0.0,0.0,0.0,0.0,0.0,0.0,0.0,0.0,0.0,0.0,0.0,0.0,0.0,0.0,0.0,0.0,0.0,0.0,0.0,0.0,0.0,0.0,0.0,0.0,0.0,0.0,0.0,0.0,0.0,0.0,0.0,0.0,0.0,0.0,0.0,0.0,0.0,0.0,0.0,0.0,0.0,0.0,0.0,0.0,0.0,0.0,0.2221,0.4146,0.5554,0.6738,0.7709,0.843,0.9042,0.9753,0.9829,0.5056,0.5089,0.4809,0.4891,0.4872,0.4513,0.4564,0.4452,0.4769,0.3828,0.2591,0.2735,0.2028,0.0,0.0,0.0,0.0605,0.1289,0.1553,0.1514,0.1479,0.1479,0.1514,0.1551,0.1549,0.1508,0.1285,0.1233,0.1323,0.157,0.1503,0.1232,0.0978,0.0912,0.0655,0.0346,0.0,0.0,0.0,0.0,0.0,0.0,0.0,0.0,0.0,0.0,0.0,0.0,0.0,0.0,0.0,0.0,0.0,0.0,0.0,0.0,0.0,0.0,0.0,0.0,0.0,0.0,0.0,0.0,0.0,0.0,0.0,0.0,0.0,0.0,0.0,0.0,0.0,0.0,0.0,0.0,0.0,0.0,0.0,0.0,0.0,0.0,0.0,0.0,0.0,0.0,0.0,0.0,0.0,0.0,0.0,0.0,0.0,0.0,0.0,0.0,0.0,0.0,0.0,0.0,0.0,0.0,0.0,0.0,0.0,0.0,0.0,0.2983,0.4109,0.5262,0.6367,0.7564,0.8381,0.9062,0.9704,0.4964,0.4784,0.367,0.3227,0.3058,0.1964,0.1456,0.0,0.0,0.0,0.0814,0.0857,0.0527,0.0,0.0,0.0,0.0,0.0272,0.0,0.0,0.0,0.0,0.0,0.0,0.0382,0.0379,0.0379,0.0,0.0,0.0,0.0412,0.0338,0.0,0.0189,0.0,0.0,0.0,0.0,0.0,0.0,0.0,0.0,0.0,0.0,0.0,0.0,0.0,0.0,0.0,0.0,0.0,0.0,0.0,0.0,0.0,0.0,0.0,0.0,0.0,0.0,0.0,0.0,0.0,0.0,0.0,0.0,0.0,0.0,0.0,0.0,0.0,0.0,0.0,0.0,0.0,0.0,0.0,0.0,0.0,0.0,0.0,0.0,0.0,0.0,0.0,0.0,0.0,0.0,0.0,0.0,0.0,0.0,0.0,0.0,0.0,0.0,0.0,0.0,0.0,0.0,0.0,0.0,0.0,0.0,0.0,0.0,0.0,0.1639,0.2803,0.4049,0.5275,0.6458,0.7555,0.84,0.9063,0.3135,0.3014,0.2023,0.1547,0.1464,0.0382,0.0,0.0,0.0,0.0,0.0,0.0,0.0,0.0,0.0,0.0,0.0,0.0,0.0,0.0,0.0,0.0,0.0,0.0,0.0,0.0,0.0,0.0,0.0,0.0,0.0,0.0,0.0,0.0,0.0,0.0,0.0,0.0,0.0,0.0,0.0,0.0,0.0,0.0,0.0,0.0,0.0,0.0,0.0,0.0,0.0,0.0,0.0,0.0,0.0,0.0,0.0,0.0,0.0,0.0,0.0,0.0,0.0,0.0,0.0,0.0,0.0,0.0,0.0,0.0,0.0,0.0,0.0,0.0,0.0,0.0,0.0,0.0,0.0,0.0,0.0,0.0,0.0,0.0,0.0,0.0,0.0,0.0,0.0,0.0,0.0,0.0,0.0,0.0,0.0,0.0,0.0,0.0,0.0,0.0,0.0,0.0,0.0,0.0,0.0,0.0,0.0,0.0,0.1639,0.2926,0.4187,0.5299,0.6418,0.7719,0.8431,0.0,0.0,0.0,0.0,0.0,0.0,0.0,0.0,0.0,0.0,0.0,0.0,0.0,0.0,0.0,0.0,0.0,0.0,0.0,0.0,0.0,0.0,0.0,0.0,0.0,0.0,0.0,0.0,0.0,0.0,0.0,0.0,0.0,0.0,0.0,0.0,0.0,0.0,0.0,0.0,0.0,0.0,0.0,0.0,0.0,0.0,0.0,0.0,0.0,0.0,0.0,0.0,0.0,0.0,0.0,0.0,0.0,0.0,0.0,0.0,0.0,0.0,0.0,0.0,0.0,0.0,0.0,0.0,0.0,0.0,0.0,0.0,0.0,0.0,0.0,0.0,0.0,0.0,0.0,0.0,0.0,0.0,0.0,0.0,0.0,0.0,0.0,0.0,0.0,0.0,0.0,0.0,0.0,0.0,0.0,0.0,0.0,0.0,0.0,0.0,0.0,0.0,0.0,0.0,0.0,0.0,0.0,0.0,0.0,0.1727,0.2913,0.4105,0.5175,0.6278,0.7251,0.0,0.0,0.0,0.0,0.0,0.0,0.0,0.0,0.0,0.0,0.0,0.0,0.0,0.0,0.0,0.0,0.0,0.0,0.0,0.0,0.0,0.0,0.0,0.0,0.0,0.0,0.0,0.0,0.0,0.0,0.0,0.0,0.0,0.0,0.0,0.0,0.0,0.0,0.0,0.0,0.0,0.0,0.0,0.0,0.0,0.0,0.0,0.0,0.0,0.0,0.0,0.0,0.0,0.0,0.0,0.0,0.0,0.0,0.0,0.0,0.0,0.0,0.0,0.0,0.0,0.0,0.0,0.0,0.0,0.0,0.0,0.0,0.0,0.0,0.0,0.0,0.0,0.0,0.0,0.0,0.0,0.0,0.0,0.0,0.0,0.0,0.0,0.0,0.0,0.0,0.0,0.0,0.0,0.0,0.0,0.0,0.0,0.0,0.0,0.0,0.0,0.0,0.0,0.0,0.0,0.0,0.0,0.0,0.0,0.0,0.1742,0.2902,0.3448,0.4346,0.5325,0.0,0.0,0.0,0.0,0.0,0.0,0.0,0.0,0.0,0.0,0.0,0.0,0.0,0.0,0.0,0.0,0.0,0.0,0.0,0.0,0.0,0.0,0.0,0.0,0.0,0.0,0.0,0.0,0.0,0.0,0.0,0.0,0.0,0.0,0.0,0.0,0.0,0.0,0.0,0.0,0.0,0.0,0.0,0.0,0.0,0.0,0.0,0.0,0.0,0.0,0.0,0.0,0.0,0.0,0.0,0.0,0.0,0.0,0.0,0.0,0.0,0.0,0.0,0.0,0.0,0.0,0.0,0.0,0.0,0.0,0.0,0.0,0.0,0.0,0.0,0.0,0.0,0.0,0.0,0.0,0.0,0.0,0.0,0.0,0.0,0.0,0.0,0.0,0.0,0.0,0.0,0.0,0.0,0.0,0.0,0.0,0.0,0.0,0.0,0.0,0.0,0.0,0.0,0.0,0.0,0.0,0.0,0.0,0.0,0.0,0.0,0.1916,0.2804,0.297,0.3869,0.0,0.0,0.0,0.0,0.0,0.0,0.0,0.0,0.0,0.0,0.0,0.0,0.0,0.0,0.0,0.0,0.0,0.0,0.0,0.0,0.0,0.0,0.0,0.0,0.0,0.0,0.0,0.0,0.0,0.0,0.0,0.0,0.0,0.0,0.0,0.0,0.0,0.0,0.0,0.0,0.0,0.0,0.0,0.0,0.0,0.0,0.0,0.0,0.0,0.0,0.0,0.0,0.0,0.0,0.0,0.0,0.0,0.0,0.0,0.0,0.0,0.0,0.0,0.0,0.0,0.0,0.0,0.0,0.0,0.0,0.0,0.0,0.0,0.0,0.0,0.0,0.0,0.0,0.0,0.0,0.0,0.0,0.0,0.0,0.0,0.0,0.0,0.0,0.0,0.0,0.0,0.0,0.0,0.0,0.0,0.0,0.0,0.0,0.0,0.0,0.0,0.0,0.0,0.0,0.0,0.0,0.0,0.0,0.0,0.0,0.0,0.0,0.3112,0.262,0.298,-0.0268,0.0,0.0,0.0,0.0,0.0,0.0,0.0,0.0,0.0,0.0,0.0,0.0,0.0,0.0,0.0,0.0,0.0,0.0,0.0,0.0,0.0,0.0,0.0,0.0,0.0,0.0,0.0,0.0,0.0,0.0,0.0,0.0,0.0,0.0,0.0,0.0,0.0,0.0,0.0,0.0,0.0,0.0,0.0,0.0,0.0,0.0,0.0,0.0,0.0,0.0,0.0,0.0,0.0,0.0,0.0,0.0,0.0,0.0,0.0,0.0,0.0,0.0,0.0,0.0,0.0,0.0,0.0,0.0,0.0,0.0,0.0,0.0,0.0,0.0,0.0,0.0,0.0,0.0,0.0,0.0,0.0,0.0,0.0,0.0,0.0,0.0,0.0,0.0,0.0,0.0,0.0,0.0,0.0,0.0,0.0,0.0,0.0,0.0,0.0,0.0,0.0,0.0,0.0,0.0,0.0,0.0,0.0,0.0,0.0,0.0,0.0,0.1862,0.1752,0.2144,-0.0646,-0.0306,-0.0273,-0.0157,0.0,0.0,0.0,0.0,0.0,0.0,0.0,0.0,0.0,0.0,0.0,0.0,0.0,0.0,0.0,0.0,0.0,0.0,0.0,0.0,0.0,0.0,0.0,0.0,0.0,0.0,0.0,0.0,0.0,0.0,0.0,0.0,0.0,0.0,0.0,0.0,0.0,0.0,0.0,0.0,0.0,0.0,0.0,0.0,0.0,0.0,0.0,0.0,0.0,0.0,0.0,0.0,0.0,0.0,0.0,0.0,0.0,0.0,0.0,0.0,0.0,0.0,0.0,0.0,0.0,0.0,0.0,0.0,0.0,0.0,0.0,0.0,0.0,0.0,0.0,0.0,0.0,0.0,0.0,0.0,0.0,0.0,0.0,0.0,0.0,0.0,0.0,0.0,0.0,0.0,0.0,0.0,0.0,0.0,0.0,0.0,0.0,0.0,0.0,0.0,0.0,0.0,0.0,0.0,0.0,0.0,0.0,0.0,0.0977,0.1797,0.2111,-0.1058,-0.0721,-0.0698,-0.0509,-0.0196,0.0,0.0,0.0,0.0,0.0,0.0,0.0,0.0,0.0,0.0,0.0,0.0,0.0,0.0,0.0,0.0,0.0,0.0,0.0,0.0,0.0,0.0,0.0,0.0,0.0,0.0,0.0,0.0,0.0,0.0,0.0,0.0,0.0,0.0,0.0,0.0,0.0,0.0,0.0,0.0,0.0,0.0,0.0,0.0,0.0,0.0,0.0,0.0,0.0,0.0,0.0,0.0,0.0,0.0,0.0,0.0,0.0,0.0,0.0,0.0,0.0,0.0,0.0,0.0,0.0,0.0,0.0,0.0,0.0,0.0,0.0,0.0,0.0,0.0,0.0,0.0,0.0,0.0,0.0,0.0,0.0,0.0,0.0,0.0,0.0,0.0,0.0,0.0,0.0,0.0,0.0,0.0,0.0,0.0,0.0,0.0,0.0,0.0,0.0,0.0,0.0,0.0,0.0,0.0,0.0,0.0,0.0,0.1019,0.196,0.0,-0.1462,-0.1099,-0.1115,-0.1045,-0.0968,-0.0626,-0.051,-0.0432,-0.0157,0.0,0.0,0.0,0.0,0.0,0.0,0.0,0.0,0.0,0.0,0.0,0.0,0.0,0.0,0.0,0.0,0.0,0.0,0.0,0.0,0.0,0.0,0.0,0.0,0.0,0.0,0.0,0.0,0.0,0.0,0.0,0.0,0.0,0.0,0.0,0.0,0.0,0.0,0.0,0.0,0.0,0.0,0.0,0.0,0.0,0.0,0.0,0.0,0.0,0.0,0.0,0.0,0.0,0.0,0.0,0.0,0.0,0.0,0.0,0.0,0.0,0.0,0.0,0.0,0.0,0.0,0.0,0.0,0.0,0.0,0.0,0.0,0.0,0.0,0.0,0.0,0.0,0.0,0.0,0.0,0.0,0.0,0.0,0.0,0.0,0.0,0.0,0.0,0.0,0.0,0.0,0.0,0.0,0.0,0.0,0.0,0.0,0.0,0.0,0.0,0.0,0.0,0.0,0.0,0.0,0.0,-0.1901,-0.1501,-0.152,-0.1375,-0.1185,-0.0999,-0.0886,-0.0848,-0.0501,-0.0309,-0.0232,0.0,0.0,0.0,0.0,0.0,0.0,0.0,0.0,0.0,0.0,0.0,0.0,0.0,0.0,0.0,0.0,0.0,0.0,0.0,0.0,0.0,0.0,0.0,0.0,0.0,0.0,0.0,0.0,0.0,0.0,0.0,0.0,0.0,0.0,0.0,0.0,0.0,0.0,0.0,0.0,0.0,0.0,0.0,0.0,0.0,0.0,0.0,0.0,0.0,0.0,0.0,0.0,0.0,0.0,0.0,0.0,0.0,0.0,0.0,0.0,0.0,0.0,0.0,0.0,0.0,0.0,0.0,0.0,0.0,0.0,0.0,0.0,0.0,0.0,0.0,0.0,0.0,0.0,0.0,0.0,0.0,0.0,0.0,0.0,0.0,0.0,0.0,0.0,0.0,0.0,0.0,0.0,0.0,0.0,0.0,0.0,0.0,0.0,0.0,0.0,0.0,0.0,0.0,0.0,-0.2184,-0.1926,-0.1913,-0.1735,-0.1471,-0.1324,-0.1326,-0.1249,-0.0909,-0.0724,-0.0652,0.0,0.0,0.0,0.0,0.0,0.0,0.0,0.0,0.0,0.0,0.0,0.0,0.0,0.0,0.0,0.0,0.0,0.0,0.0,0.0,0.0,0.0,0.0,0.0,0.0,0.0,0.0,0.0,0.0,0.0,0.0,0.0,0.0,0.0,0.0,0.0,0.0,0.0,0.0,0.0,0.0,0.0,0.0,0.0,0.0,0.0,0.0,0.0,0.0,0.0,0.0,0.0,0.0,0.0,0.0,0.0,0.0,0.0,0.0,0.0,0.0,0.0,0.0,0.0,0.0,0.0,0.0,0.0,0.0,0.0,0.0,0.0,0.0,0.0,0.0,0.0,0.0,0.0,0.0,0.0,0.0,0.0,0.0,0.0,0.0,0.0,0.0,0.0,0.0,0.0,0.0,0.0,0.0,0.0,0.0,0.0,0.0,0.0,0.0,0.0,0.0,0.0,0.0,0.0,-0.2265,-0.2231,-0.2297,-0.2309,-0.2163,-0.1844,-0.174,-0.1664,-0.1284,-0.1136,-0.1099,-0.0712,-0.0522,-0.0446,-0.0147,0.0,0.0,0.0,0.0,0.0,0.0,0.0,0.0,0.0,0.0,0.0,0.0,0.0,0.0,0.0,0.0,0.0,0.0,0.0,0.0,0.0,0.0,0.0,0.0,0.0,0.0,0.0,0.0,0.0,0.0,0.0,0.0,0.0,0.0,0.0,0.0,0.0,0.0,0.0,0.0,0.0,0.0,0.0,0.0,0.0,0.0,0.0,0.0,0.0,0.0,0.0,0.0,0.0,0.0,0.0,0.0,0.0,0.0,0.0,0.0,0.0,0.0,0.0,0.0,0.0,0.0,0.0,0.0,0.0,0.0,0.0,0.0,0.0,0.0,0.0,0.0,0.0,0.0,0.0,0.0,0.0,0.0,0.0,0.0,0.0,0.0,0.0,0.0,0.0,0.0,0.0,0.0,0.0,0.0,0.0,0.0,0.0,0.0,0.0,0.0,-0.2296,-0.2297,-0.2311,-0.2352,-0.2318,-0.2145,-0.2076,-0.2002,-0.1705,-0.1526,-0.1456,-0.111,-0.092,-0.0845,-0.0512,0.0,-0.0292,-0.0109,0.0,0.0,0.0,0.0,0.0,0.0,0.0,0.0,0.0,0.0,0.0,0.0,0.0,0.0,0.0,0.0,0.0,0.0,0.0,0.0,0.0,0.0,0.0,0.0,0.0,0.0,0.0,0.0,0.0,0.0,0.0,0.0,0.0,0.0,0.0,0.0,0.0,0.0,0.0,0.0,0.0,0.0,0.0,0.0,0.0,0.0,0.0,0.0,0.0,0.0,0.0,0.0,0.0,0.0,0.0,0.0,0.0,0.0,0.0,0.0,0.0,0.0,0.0,0.0,0.0,0.0,0.0,0.0,0.0,0.0,0.0,0.0,0.0,0.0,0.0,0.0,0.0,0.0,0.0,0.0,0.0,0.0,0.0,0.0,0.0,0.0,0.0,0.0,0.0,0.0,0.0,0.0,0.0,0.0,0.0,0.0,0.0,-0.2296,-0.2296,-0.2296,-0.2296,-0.2296,-0.2296,-0.2297,-0.2261,-0.2043,-0.1906,-0.1804,-0.1502,-0.1314,-0.1168,-0.0876,-0.0766,-0.073,-0.0328,-0.0182,-0.0146,0.0,0.0,0.0,0.0,0.0,0.0,0.0,0.0,0.0,0.0,0.0,0.0,0.0,0.0,0.0,0.0,0.0,0.0,0.0,0.0,0.0,0.0,0.0,0.0,0.0,0.0,0.0,0.0,0.0,0.0,0.0,0.0,0.0,0.0,0.0,0.0,0.0,0.0,0.0,0.0,0.0,0.0,0.0,0.0,0.0,0.0,0.0,0.0,0.0,0.0,0.0,0.0,0.0,0.0,0.0,0.0,0.0,0.0,0.0,0.0,0.0,0.0,0.0,0.0,0.0,0.0,0.0,0.0,0.0,0.0,0.0,0.0,0.0,0.0,0.0,0.0,0.0,0.0,0.0,0.0,0.0,0.0,0.0,0.0,0.0,0.0,0.0,0.0,0.0,0.0,0.0,0.0,0.0,0.0,0.0,-0.2296,-0.2296,-0.2296,-0.2296,-0.2296,-0.2296,-0.2296,-0.2296,-0.226,-0.2225,-0.2193,-0.1896,-0.1568,-0.1313,-0.124,-0.1167,-0.1131,-0.0766,-0.062,-0.0436,0.0,0.0,0.0,0.0,0.0,0.0,0.0,0.0,0.0,0.0,0.0,0.0,0.0,0.0,0.0,0.0,0.0,0.0,0.0,0.0,0.0,0.0,0.0,0.0,0.0,0.0,0.0,0.0,0.0,0.0,0.0,0.0,0.0,0.0,0.0,0.0,0.0,0.0,0.0,0.0,0.0,0.0,0.0,0.0,0.0,0.0,0.0,0.0,0.0,0.0,0.0,0.0,0.0,0.0,0.0,0.0,0.0,0.0,0.0,0.0,0.0,0.0,0.0,0.0,0.0,0.0,0.0,0.0,0.0,0.0,0.0,0.0,0.0,0.0,0.0,0.0,0.0,0.0,0.0,0.0,0.0,0.0,0.0,0.0,0.0,0.0,0.0,0.0,0.0,0.0,0.0,0.0,0.0,0.0,0.0,-0.2296,-0.2296,-0.2296,-0.2296,-0.2296,-0.2296,-0.2296,-0.2296,-0.2296,-0.2296,-0.2296,-0.215,-0.2005,-0.186,-0.1641,-0.1568,-0.1532,-0.1168,-0.1021,-0.0908,-0.0758,-0.068,-0.0604,-0.0424,0.0,-0.0247,0.0,0.0,0.0,0.0,0.0,0.0,0.0,0.0,0.0,0.0,0.0,0.0,0.0,0.0,0.0,0.0,0.0,0.0,0.0,0.0,0.0,0.0,0.0,0.0,0.0,0.0,0.0,0.0,0.0,0.0,0.0,0.0,0.0,0.0,0.0,0.0,0.0,0.0,0.0,0.0,0.0,0.0,0.0,0.0,0.0,0.0,0.0,0.0,0.0,0.0,0.0,0.0,0.0,0.0,0.0,0.0,0.0,0.0,0.0,0.0,0.0,0.0,0.0,0.0,0.0,0.0,0.0,0.0,0.0,0.0,0.0,0.0,0.0,0.0,0.0,0.0,0.0,0.0,0.0,0.0,0.0,0.0,0.0,0.0,0.0,0.0,0.0,0.0,0.0,-0.2296,-0.2296,-0.2296,-0.2296,-0.2296,-0.2296,-0.2296,-0.2296,-0.2296,-0.2296,-0.2296,-0.2296,-0.2296,-0.2223,-0.2078,-0.1932,-0.182,-0.1563,-0.1418,-0.1301,-0.1178,-0.1133,-0.1019,-0.0837,-0.0621,-0.048,-0.0312,0.0,0.0,0.0,0.0,0.0,0.0,0.0,0.0,0.0,0.0,0.0,0.0,0.0,0.0,0.0,0.0,0.0,0.0,0.0,0.0,0.0,0.0,0.0,0.0,0.0,0.0,0.0,0.0,0.0,0.0,0.0,0.0,0.0,0.0,0.0,0.0,0.0,0.0,0.0,0.0,0.0,0.0,0.0,0.0,0.0,0.0,0.0,0.0,0.0,0.0,0.0,0.0,0.0,0.0,0.0,0.0,0.0,0.0,0.0,0.0,0.0,0.0,0.0,0.0,0.0,0.0,0.0,0.0,0.0,0.0,0.0,0.0,0.0,0.0,0.0,0.0,0.0,0.0,0.0,0.0,0.0,0.0,0.0,0.0,0.0,0.0,0.0,0.0,-0.2297,-0.2296,-0.2297,-0.2297,-0.2296,-0.2296,-0.2296,-0.2296,-0.2296,-0.2296,-0.2296,-0.2296,-0.2293,-0.2293,-0.2221,-0.2184,-0.2142,-0.1876,-0.1733,-0.1698,-0.149,-0.1267,-0.1226,-0.1146,-0.0995,-0.0661,-0.0453,-0.0243,-0.0034,0.0,0.0,0.0,0.0,0.0,0.0,0.0,0.0,0.0,0.0,0.0,0.0,0.0,0.0,0.0,0.0,0.0,0.0,0.0,0.0,0.0,0.0,0.0,0.0,0.0,0.0,0.0,0.0,0.0,0.0,0.0,0.0,0.0,0.0,0.0,0.0,0.0,0.0,0.0,0.0,0.0,0.0,0.0,0.0,0.0,0.0,0.0,0.0,0.0,0.0,0.0,0.0,0.0,0.0,0.0,0.0,0.0,0.0,0.0,0.0,0.0,0.0,0.0,0.0,0.0,0.0,0.0,0.0,0.0,0.0,0.0,0.0,0.0,0.0,0.0,0.0,0.0,0.0,0.0,0.0,0.0,0.0,0.0,0.0,0.0,0.0,-0.2363,-0.2363,-0.2363,-0.2352,-0.2297,-0.2296,-0.2296,-0.2296,-0.2296,-0.2296,-0.2296,-0.2296,-0.2284,-0.2279,-0.2287,-0.2288,-0.2273,-0.2252,-0.211,-0.2069,-0.1883,-0.1957,-0.184,-0.1603,-0.1409,-0.1176,-0.0866,-0.0522,-0.0349,-0.0181,0.0,0.0,0.0,0.0,0.0,0.0,0.0,0.0,0.0,0.0,0.0,0.0,0.0,0.0,0.0,0.0,0.0,0.0,0.0,0.0,0.0,0.0,0.0,0.0,0.0,0.0,0.0,0.0,0.0,0.0,0.0,0.0,0.0,0.0,0.0,0.0,0.0,0.0,0.0,0.0,0.0,0.0,0.0,0.0,0.0,0.0,0.0,0.0,0.0,0.0,0.0,0.0,0.0,0.0,0.0,0.0,0.0,0.0,0.0,0.0,0.0,0.0,0.0,0.0,0.0,0.0,0.0,0.0,0.0,0.0,0.0,0.0,0.0,0.0,0.0,0.0,0.0,0.0,0.0,0.0,0.0,0.0,0.0,0.0,0.0,-0.2394,-0.2394,-0.2394,-0.2376,-0.2349,-0.2301,-0.2296,-0.2296,-0.2296,-0.2296,-0.2296,-0.2296,-0.2288,-0.228,-0.2284,-0.2291,-0.2307,-0.2275,-0.2292,-0.2288,-0.2255,-0.2219,-0.2136,-0.2039,-0.1814,-0.1602,-0.1258,-0.0843,-0.0495,-0.0329,0.0,0.0,0.0,0.0,0.0,0.0,0.0,0.0,0.0,0.0,0.0,0.0,0.0,0.0,0.0,0.0,0.0,0.0,0.0,0.0,0.0,0.0,0.0,0.0,0.0,0.0,0.0,0.0,0.0,0.0,0.0,0.0,0.0,0.0,0.0,0.0,0.0,0.0,0.0,0.0,0.0,0.0,0.0,0.0,0.0,0.0,0.0,0.0,0.0,0.0,0.0,0.0,0.0,0.0,0.0,0.0,0.0,0.0,0.0,0.0,0.0,0.0,0.0,0.0,0.0,0.0,0.0,0.0,0.0,0.0,0.0,0.0,0.0,0.0,0.0,0.0,0.0,0.0,0.0,0.0,0.0,0.0,0.0,0.0,0.0,-0.2421,-0.2423,-0.2424,-0.2405,-0.2375,-0.2348,-0.2299,-0.2296,-0.2296,-0.2296,-0.2296,-0.2296,-0.2291,-0.2292,-0.2295,-0.2292,-0.2287,-0.2305,-0.228,-0.228,-0.2256,-0.2265,-0.2263,-0.2204,-0.205,-0.1878,-0.1563,-0.1141,-0.0682,-0.0408,-0.0229,0.0,0.0,0.0,0.0,0.0,0.0,0.0,0.0,0.0,0.0,0.0,0.0,0.0,0.0,0.0,0.0,0.0,0.0,0.0,0.0,0.0,0.0,0.0,0.0,0.0,0.0,0.0,0.0,0.0,0.0,0.0,0.0,0.0,0.0,0.0,0.0,0.0,0.0,0.0,0.0,0.0,0.0,0.0,0.0,0.0,0.0,0.0,0.0,0.0,0.0,0.0,0.0,0.0,0.0,0.0,0.0,0.0,0.0,0.0,0.0,0.0,0.0,0.0,0.0,0.0,0.0,0.0,0.0,0.0,0.0,0.0,0.0,0.0,0.0,0.0,0.0,0.0,0.0,0.0,0.0,0.0,0.0,0.0,0.0343,-0.2429,-0.2393,-0.2414,-0.2406,-0.2416,-0.2368,-0.2353,-0.2297,-0.2296,-0.2296,-0.2296,-0.2296,-0.2288,-0.2305,-0.2287,-0.2283,-0.2279,-0.2279,-0.2288,-0.2283,-0.2273,-0.2283,-0.2277,-0.2263,-0.218,-0.2077,-0.1834,-0.1485,-0.096,-0.0569,-0.0193,0.0,0.0,0.0,0.0,0.0,0.0,0.0,0.0,0.0,0.0,0.0,0.0,0.0,0.0,0.0,0.0,0.0,0.0,0.0,0.0,0.0,0.0,0.0,0.0,0.0,0.0,0.0,0.0,0.0,0.0,0.0,0.0,0.0,0.0,0.0,0.0,0.0,0.0,0.0,0.0,0.0,0.0,0.0,0.0,0.0,0.0,0.0,0.0,0.0,0.0,0.0,0.0,0.0,0.0,0.0,0.0,0.0,0.0,0.0,0.0,0.0,0.0,0.0,0.0,0.0,0.0,0.0,0.0,0.0,0.0,0.0,0.0,0.0,0.0,0.0,0.0,0.0,0.0,0.0,0.0,0.0,0.0,0.0,0.0,-0.2397,-0.2398,-0.2416,-0.2406,-0.2415,-0.239,-0.2337,-0.2296,-0.2296,-0.2296,-0.2296,-0.2296,-0.2287,-0.2277,-0.2288,-0.2288,-0.2277,-0.2287,-0.2295,-0.2295,-0.2296,-0.2295,-0.2288,-0.228,-0.2275,-0.2206,-0.2036,-0.1761,-0.1239,-0.0654,0.0,0.0,0.0,0.0,0.0,0.0,0.0,0.0,0.0,0.0,0.0,0.0,0.0,0.0,0.0,0.0,0.0,0.0,0.0,0.0,0.0,0.0,0.0,0.0,0.0,0.0,0.0,0.0,0.0,0.0,0.0,0.0,0.0,0.0,0.0,0.0,0.0,0.0,0.0,0.0,0.0,0.0,0.0,0.0,0.0,0.0,0.0,0.0,0.0,0.0,0.0,0.0,0.0,0.0,0.0,0.0,0.0,0.0,0.0,0.0,0.0,0.0,0.0,0.0,0.0,0.0,0.0,0.0,0.0,0.0,0.0,0.0,0.0,0.0,0.0,0.0,0.0,0.0,0.0,0.0,0.0,0.0,0.0,0.0,0.0,-0.2369,-0.2367,-0.2377,-0.2399,-0.2372,-0.2327,-0.2316,-0.2295,-0.2296,-0.2296,-0.2296,-0.2296,-0.2295,-0.2291,-0.2295,-0.2296,-0.2289,-0.2295,-0.2296,-0.2296,-0.2296,-0.2296,-0.2296,-0.2295,-0.2288,-0.2293,-0.2193,-0.1952,-0.1549,-0.0928,0.0,0.0,0.0,0.0,0.0,0.0,0.0,0.0,0.0,0.0,0.0,0.0,0.0,0.0,0.0,0.0,0.0,0.0,0.0,0.0,0.0,0.0,0.0,0.0,0.0,0.0,0.0,0.0,0.0,0.0,0.0,0.0,0.0,0.0,0.0,0.0,0.0,0.0,0.0,0.0,0.0,0.0,0.0,0.0,0.0,0.0,0.0,0.0,0.0,0.0,0.0,0.0,0.0,0.0,0.0,0.0,0.0,0.0,0.0,0.0,0.0,0.0,0.0,0.0,0.0,0.0,0.0,0.0,0.0,0.0,0.0,0.0,0.0,0.0,0.0,0.0,0.0,0.0,0.0,0.0,0.0,0.0,0.0,0.0,0.0,-0.2252,-0.2257,-0.23,-0.2363,-0.2412,-0.2363,-0.2345,-0.2297,-0.2296,-0.2296,-0.2296,-0.2296,-0.2296,-0.2296,-0.2296,-0.2296,-0.2296,-0.2296,-0.2296,-0.2296,-0.2296,-0.2296,-0.2296,-0.2296,-0.2296,-0.2296,-0.2193,-0.1991,-0.1429,-0.0885,0.0,0.0,0.0,0.0,0.0,0.0,0.0,0.0,0.0,0.0,0.0,0.0,0.0,0.0,0.0,0.0,0.0,0.0,0.0,0.0,0.0,0.0,0.0,0.0,0.0,0.0,0.0,0.0,0.0,0.0,0.0,0.0,0.0,0.0,0.0,0.0,0.0,0.0,0.0,0.0,0.0,0.0,0.0,0.0,0.0,0.0,0.0,0.0,0.0,0.0,0.0,0.0,0.0,0.0,0.0,0.0,0.0,0.0,0.0,0.0,0.0,0.0,0.0,0.0,0.0,0.0,0.0,0.0,0.0,0.0,0.0,0.0,0.0,0.0,0.0,0.0,0.0,0.0,0.0,0.0,0.0,0.0,0.0,0.0,0.0,-0.221,-0.2216,-0.2259,-0.2331,-0.2353,-0.2345,-0.2335,-0.2295,-0.2284,-0.2285,-0.2296,-0.2296,-0.2296,-0.2296,-0.2296,-0.2296,-0.2296,-0.2296,-0.2296,-0.2296,-0.2296,-0.2296,-0.2296,-0.2296,-0.2296,-0.2299,-0.2291,-0.1979,-0.1278,-0.1039,0.0,0.0,0.0,0.0,0.0,0.0,0.0,0.0,0.0,0.0,0.0,0.0,0.0,0.0,0.0,0.0,0.0,0.0,0.0,0.0,0.0,0.0,0.0,0.0,0.0,0.0,0.0,0.0,0.0,0.0,0.0,0.0,0.0,0.0,0.0,0.0,0.0,0.0,0.0,0.0,0.0,0.0,0.0,0.0,0.0,0.0,0.0,0.0,0.0,0.0,0.0,0.0,0.0,0.0,0.0,0.0,0.0,0.0,0.0,0.0,0.0,0.0,0.0,0.0,0.0,0.0,0.0,0.0,0.0,0.0,0.0,0.0,0.0,0.0,0.0,0.0,0.0,0.0,0.0,0.0,0.0,0.0,0.0,0.0,0.0,-0.2202,-0.2213,-0.2274,-0.2304,-0.2291,-0.2308,-0.2308,-0.2285,-0.2307,-0.2272,-0.2288,-0.2293,-0.2296,-0.2296,-0.2296,-0.2296,-0.2296,-0.2296,-0.2296,-0.2296,-0.2296,-0.2296,-0.2296,-0.2296,-0.2296,-0.2312,-0.2342,-0.1871,-0.1204,-0.1079,0.0,0.0,0.0,0.0,0.0,0.0,0.0,0.0,0.0,0.0,0.0,0.0,0.0,0.0,0.0,0.0,0.0,0.0,0.0,0.0,0.0,0.0,0.0,0.0,0.0,0.0,0.0,0.0,0.0,0.0,0.0,0.0,0.0,0.0,0.0,0.0,0.0,0.0,0.0,0.0,0.0,0.0,0.0,0.0,0.0,0.0,0.0,0.0,0.0,0.0,0.0,0.0,0.0,0.0,0.0,0.0,0.0,0.0,0.0,0.0,0.0,0.0,0.0,0.0,0.0,0.0,0.0,0.0,0.0,0.0,0.0,0.0,0.0,0.0,0.0,0.0,0.0,0.0,0.0,0.0,0.0,0.0,0.0,0.0,0.0,-0.22,-0.221,-0.2217,-0.2249,-0.2291,-0.2289,-0.2279,-0.2304,-0.228,-0.228,-0.2304,-0.2285,-0.2296,-0.2296,-0.2296,-0.2296,-0.2296,-0.2296,-0.2296,-0.2296,-0.2296,-0.2296,-0.2296,-0.2296,-0.2296,-0.2314,-0.2261,-0.19,-0.1283,-0.1152,0.0,0.0,0.0,0.0,0.0,0.0,0.0,0.0,0.0,0.0,0.0,0.0,0.0,0.0,0.0,0.0,0.0,0.0,0.0,0.0,0.0,0.0,0.0,0.0,0.0,0.0,0.0,0.0,0.0,0.0,0.0,0.0,0.0,0.0,0.0,0.0,0.0,0.0,0.0,0.0,0.0,0.0,0.0,0.0,0.0,0.0,0.0,0.0,0.0,0.0,0.0,0.0,0.0,0.0,0.0,0.0,0.0,0.0,0.0,0.0,0.0,0.0,0.0,0.0,0.0,0.0,0.0,0.0,0.0,0.0,0.0,0.0,0.0,0.0,0.0,0.0,0.0,0.0,0.0,0.0,0.0,0.0,0.0,0.0,0.0]},{"header":{"parameterUnit":"m.s-1","parameterCategory":1,"la1":31.0,"la2":29.5877,"lo1":-88.7671,"lo2":-86.6584,"dy":0.0162,"dx":0.0185,"nx":115,"ny":88,"refTime":"2023-10-02T18:00:00:Z","depth":0,"parameterNumber":3,"parameterNumberName":"V-component_of_WINDS"},"data":[0.0,0.0,0.0,0.0,0.0,0.0,0.0,0.0,0.0,0.0,0.0,0.0,0.0,0.0,0.0,0.0,0.0,0.0,0.0,0.0,0.0,0.0,0.0,0.0,0.0,0.0,0.0,0.0,0.0,0.0,0.0,0.0,0.0,0.0,0.0,0.0,0.0,0.0,0.0,0.0,0.0,0.0,0.0,0.0,0.0,0.0,0.0,0.0,0.0,0.0,0.0,0.0,0.0,0.0,0.0,0.0,0.0,0.0,0.0,0.0,0.0,0.0,0.0,0.0,0.0,0.0,0.0,0.0,0.0,0.0,0.0,0.0,0.0,0.0,0.0,0.0,0.0,0.0,0.0,0.0,0.0,0.0,0.0,0.0,0.0,0.0,0.0,0.0,0.0,0.0,0.0,0.0,0.0,0.0,0.0,0.0,0.0,0.0,0.0,0.0,0.0,0.0,0.0,0.0,0.0,0.0,0.0,0.0,0.0,0.0,0.0,0.0,0.0,0.0,0.0,0.0,0.0,0.0,0.0,0.0,0.0,0.0,0.0,0.0,0.0,0.0,0.0,0.0,0.0,0.0,0.0,0.0,0.0,0.0,0.0,0.0,0.0,0.0,0.0,0.0,0.0,0.0,0.0,0.0,0.0,0.0,0.0,0.0,0.0,0.0,0.0,0.0,0.0,0.0,0.0,0.0,0.0,0.0,0.0,0.0,0.0,0.0,0.0,0.0,0.0,0.0,0.0,0.0,0.0,0.0,0.0,0.0,0.0,0.0,0.0,0.0,0.0,0.0,0.0,0.0,0.0,0.0,0.0,0.0,0.0,0.0,0.0,0.0,0.0,0.0,0.0,0.0,0.0,0.0,0.0,0.0,0.0,0.0,0.0,0.0,0.0,0.0,0.0,0.0,0.0,0.0,0.0,0.0,0.0,0.0,0.0,0.0,0.0,0.0,0.0,0.0,0.0,0.0,0.0,0.0,0.0,0.0,0.0,0.0,0.0,0.0,0.0,0.0,0.0,0.0,0.0,0.0,0.0,0.0,0.0,0.0,0.0,0.0,0.0,0.0,0.0,0.0,0.0,0.0,0.0,0.0,0.0,0.0,0.0,0.0,0.0,0.0,0.0,0.0,0.0,0.0,0.0,0.0,0.0,0.0,0.0,0.0,0.0,0.0,0.0,0.0,0.0,0.0,0.0,0.0,0.0,0.0,0.0,0.0,0.0,0.0,0.0,0.0,0.0,0.0,0.0,0.0,0.0,0.0,0.0,0.0,0.0,0.0,0.0,0.0,0.0,0.0,0.0,0.0,0.0,0.0,0.0,0.0,0.0,0.0,0.0,0.0,0.0,0.0,0.0,0.0,0.0,0.0,0.0,0.0,0.0,0.0,0.0,0.0,0.0,0.0,0.0,0.0,0.0,0.0,0.0,0.0,0.0,0.0,0.0,0.0,0.0,0.0,0.0,0.0,0.0,0.0,0.0,0.0,0.0,0.0,0.0,0.0,0.0,0.0,0.0,0.0,0.0,0.0,0.0,0.0,0.0,0.0,0.0,0.0,0.0,0.0,0.0,0.0,0.0,0.0,0.0,0.0,0.0,0.0,0.0,0.0,0.0,0.0,0.0,0.0,0.0,0.0,0.0,0.0,0.0,0.0,0.0,0.0,0.0,0.0,0.0,0.0,0.0,0.0,0.0,0.0,0.0,0.0,0.0,0.0,0.0,0.0,0.0,0.0,0.0,0.0,0.0,0.0,0.0,0.0,0.0,0.0,0.0,0.0,0.0,0.0,0.0,0.0,0.0,0.0,0.0,0.0,0.0,0.0,0.0,0.0,0.0,0.0,0.0,0.0,0.0,0.0,0.0,0.0,0.0,0.0,0.0,0.0,0.0,0.0,0.0,0.0,0.0,0.0,0.0,0.0,0.0,0.0,0.0,0.0,0.0,0.0,0.0,0.0,0.0,0.0,0.0,0.0,0.0,0.0,0.0,0.0,0.0,0.0,0.0,0.0,0.0,0.0,0.0,0.0,0.0,0.0,0.0,0.0,0.0,0.0,0.0,0.0,0.0,0.0,0.0,0.0,0.0,0.0,0.0,0.0,0.0,0.0,0.0,0.0,0.0,0.0,0.0,0.0,0.0,0.0,0.0,0.0,0.0,0.0,0.0,0.0,0.0,0.0,0.0,0.0,0.0,0.0,0.0,0.0,0.0,0.0,0.0,0.0,0.0,0.0,0.0,0.0,0.0,0.0,0.0,0.0,0.0,0.0,0.0,0.0,0.0,0.0,0.0,0.0,0.0,0.0,0.0,0.0,0.0,0.0,0.0,0.0,0.0,0.0,0.0,0.0,0.0,0.0,0.0,0.0,0.0,0.0,0.0,0.0,0.0,0.0,0.0,0.0,0.0,0.0,0.0,0.0,0.0,0.0,0.0,0.0,0.0,0.0,0.0,0.0,0.0,0.0,0.0,0.0,0.0,0.0,0.0,0.0,0.0,0.0,0.0,0.0,0.0,0.0,0.0,0.0,0.0,0.0,0.0,0.0,0.0,0.0,0.0,0.0,0.0,0.0,0.0,0.0,0.0,0.0,0.0,0.0,0.0,0.0,0.0,0.0,0.0,0.0,0.0,0.0,0.0,0.0,0.0,0.0,0.0,0.0,0.0,0.0,0.0,0.0,0.0,0.0,0.0,0.0,0.0,0.0,0.0,0.0,0.0,0.0,0.0,0.0,0.0,0.0,0.0,0.0,0.0,0.0,0.0,0.0,0.0,0.0,0.0,0.0,0.0,0.0,0.0,0.0,0.0,0.0,0.0,0.0,0.0,0.0,0.0,0.0,0.0,0.0,0.0,0.0,0.0,0.0,0.0,0.0,0.0,0.0,0.0,0.0,0.0,0.0,0.0,0.0,0.0,0.0,0.0,0.0,0.0,0.0,0.0,0.0,0.0,0.0,0.0,0.0,0.0,0.0,0.0,0.0,0.0,0.0,0.0,0.0,0.0,0.0,0.0,0.0,0.0,0.0,0.0,0.0,0.0,0.0,0.0,0.0,0.0,0.0,0.0,0.0,0.0,0.0,0.0,0.0,0.0,0.0,0.0,0.0,0.0,0.0,0.0,0.0,0.0,0.0,0.0,0.0,0.0,0.0,0.0,0.0,0.0,0.0,0.0,0.0,0.0,0.0,0.0,0.0,0.0,0.0,0.0,0.0,0.0,0.0,0.0,0.0,0.0,0.0,0.0,0.0,0.0,0.0,0.0,0.0,0.0,0.0,0.0,0.0,0.0,0.0,0.0,0.0,0.0,0.0,0.0,0.0,0.0,0.0,0.0,0.0,0.0,0.0,0.0,0.0,0.0,0.0,0.0,0.0,0.0,0.0,0.0,0.0,0.0,0.0,0.0,0.0,0.0,0.0,0.0,0.0,0.0,0.0,0.0,0.0,0.0,0.0,0.0,0.0,0.0,0.0,0.0,0.0,0.0,0.0,0.0,0.0,0.0,0.0,0.0,0.0,0.0,0.0,0.0,0.0,0.0,0.0,0.0,0.0,0.0,0.0,0.0,0.0,0.0,0.0,0.0,0.0,0.0,0.0,0.0,0.0,0.0,0.0,0.0,0.0,0.0,0.0,0.0,0.0,0.0,0.0,0.0,0.0,0.0,0.0,0.0,0.0,0.0,0.0,0.0,0.0,0.0,0.0,0.0,0.0,0.0,0.0,0.0,0.0,0.0,0.0,0.0,0.0,0.0,0.0,0.0,0.0,0.0,0.0,0.0,0.0,0.0,0.0,0.0,0.0,0.0,0.0,0.0,0.0,0.0,0.0,0.0,0.0,0.0,0.0,0.0,0.0,0.0,0.0,0.0,0.0,0.0,0.0,0.0,0.0,0.0,0.0,0.0,0.0,0.0,0.0,0.0,0.0,0.0,0.0,0.0,0.0,0.0,0.0,0.0,0.0,0.0,0.0,0.0,0.0,0.0,0.0,0.0,0.0,0.0,0.0,0.0,0.0,0.0,0.0,0.0,0.0,0.0,0.0,0.0,0.0,0.0,0.0,0.0,0.0,0.0,0.0,0.0,0.0,0.0,0.0,0.0,0.0,0.0,0.0,0.0,0.0,0.0,0.0,0.0,0.0,0.0,0.0,0.0,0.0,0.0,0.0,0.0,0.0,0.0,0.0,0.0,0.0,0.0,0.0,0.0,0.0,0.0,0.0,0.0,0.0,0.0,0.0,0.0,0.0,0.0,0.0,0.0,0.0,0.0,0.0,0.0,0.0,0.0,0.0,0.0,0.0,0.9797,0.0,0.0,0.0,0.0,0.0,0.0,0.0,0.0,0.0,0.0,0.0,0.0,0.0,0.0,0.0,0.0,0.0,0.0,0.0,0.0,0.0,0.0,0.0,0.0,0.0,0.0,0.0,0.0,0.0,0.0,0.0,0.0,0.0,0.0,0.0,0.0,0.0,0.0,0.0,0.0,0.0,0.0,0.0,0.0,0.0,0.0,0.0,0.0,0.0,0.0,0.0,0.0,0.0,0.0,0.0,0.0,0.0,0.0,0.0,0.0,0.0,0.0,0.0,0.0,0.0,0.0,0.0,0.0,0.0,0.0,0.0,0.0,0.0,0.0,0.0,0.0,0.0,0.0,0.0,0.0,0.0,0.0,0.0,0.0,0.0,0.0,0.0,0.0,0.0,0.0,0.0,0.0,0.0,0.0,0.0,0.0,0.0,0.0,0.0,0.0,0.0,0.0,0.0,0.0,0.0,0.0,0.0,0.0,0.0,0.0,0.95,0.95,0.95,0.9575,0.9743,0.0,0.0,0.0,0.0,0.0,0.0,0.0,0.0,0.0,0.0,0.0,0.0,0.0,0.0,0.0,0.0,0.0,0.0,0.0,0.0,0.0,0.0,0.0,0.0,0.0,0.0,0.0,0.0,0.0,0.0,0.0,0.0,0.0,0.0,0.0,0.0,0.0,0.0,0.0,0.0,0.0,0.0,0.0,0.0,0.0,0.0,0.0,0.0,0.0,0.0,0.0,0.0,0.0,0.0,0.0,0.0,0.0,0.0,0.0,0.0,0.0,0.0,0.0,0.0,0.0,0.0,0.0,0.0,0.0,0.0,0.0,0.0,0.0,0.0,0.0,0.0,0.0,0.0,0.0,0.0,0.0,0.0,0.0,0.0,0.0,0.0,0.0,0.0,0.0,0.0,0.0,0.0,0.0,0.0,0.0,0.0,0.0,0.0,0.0,0.0,0.0,0.0,0.0,0.0,0.0,0.0,0.0,0.0,0.0,0.0,0.0,0.0,0.994,0.9995,0.9951,0.0,0.0,0.0,0.0,0.0,0.0,0.0,0.0,0.0,0.0,0.0,0.0,0.0,0.0,0.0,0.0,0.0,0.0,0.0,0.0,0.0,0.0,0.0,0.0,0.0,0.0,0.0,0.0,0.0,0.0,0.0,0.0,0.0,0.0,0.0,0.0,0.0,0.0,0.0,0.0,0.0,0.0,0.0,0.0,0.0,0.0,0.0,0.0,0.0,0.0,0.0,0.0,0.0,0.0,0.0,0.0,0.0,0.0,0.0,0.0,0.0,0.0,0.0,0.0,0.0,0.0,0.0,0.0,0.0,0.0,0.0,0.0,0.0,0.0,0.0,0.0,0.0,0.0,0.0,0.0,0.0,0.0,0.0,0.0,0.0,0.0,0.0,0.0,0.0,0.0,0.0,0.0,0.0,0.0,0.0,0.0,0.0,0.0,0.0,0.0,0.0,0.0,0.0,0.0,0.0,0.0,0.0,0.0,0.0,0.0,1.0583,1.0583,1.1303,0.0,1.0768,0.0,0.0,0.0,0.0,0.0,0.0,0.0,0.0,0.0,0.0,0.0,0.0,0.0,0.0,0.0,0.0,0.0,0.0,0.0,0.0,0.0,0.0,0.0,0.0,0.0,0.0,0.0,0.0,0.0,0.0,0.0,0.0,0.0,0.0,0.0,0.0,0.0,0.0,0.0,0.0,0.0,0.0,0.0,0.0,0.0,0.0,0.0,0.0,0.0,0.0,0.0,0.0,0.0,0.0,0.0,0.0,0.0,0.0,0.0,0.0,0.0,0.0,0.0,0.0,0.0,0.0,0.0,0.0,0.0,0.0,0.0,0.0,0.0,0.0,0.0,0.0,0.0,0.0,0.0,0.0,0.0,0.0,0.0,0.0,0.0,0.0,0.0,0.0,0.0,0.0,0.0,0.0,0.0,0.0,0.0,0.0,0.0,0.0,0.0,0.0,0.0,0.0,0.0,0.0,0.0,0.0,0.0,0.0,0.0,0.0,1.1631,1.2099,1.2423,1.204,0.0,0.0,0.0,0.0,0.0,0.0,0.0,0.0,0.0,0.0,0.0,0.0,0.0,0.0,0.0,0.0,0.0,0.0,0.0,0.0,0.0,0.0,0.0,0.0,0.0,0.0,0.0,0.0,0.0,0.0,0.0,0.0,0.0,0.0,0.0,0.0,0.0,0.0,0.0,0.0,0.0,0.0,0.0,0.0,0.0,0.0,0.0,0.0,0.0,0.0,0.0,0.0,0.0,0.0,0.0,0.0,0.0,0.0,0.0,0.0,0.0,0.0,0.0,0.0,0.0,0.0,0.0,0.0,0.0,0.0,0.0,0.0,0.0,0.0,0.0,0.0,0.0,0.0,0.0,0.0,0.0,0.0,0.0,0.0,0.0,0.0,0.0,0.0,0.0,0.0,0.0,0.0,0.0,0.0,0.0,0.0,0.0,0.0,0.0,0.0,0.0,0.0,0.0,0.0,0.0,0.0,0.0,0.0,0.0,0.0,1.1701,1.2715,1.3684,1.3757,1.2894,1.109,0.0,0.0,0.0,0.0,0.0,0.0,0.0,0.0,0.0,0.0,0.0,0.0,0.0,0.0,0.0,0.0,0.0,0.0,0.0,0.0,0.0,0.0,0.0,0.0,0.0,0.0,0.0,0.0,0.0,0.0,0.0,0.0,0.0,0.0,0.0,0.0,0.0,0.0,0.0,0.0,0.0,0.0,0.0,0.0,0.0,0.0,0.0,0.0,0.0,0.0,0.0,0.0,0.0,0.0,0.0,0.0,0.0,0.0,0.0,0.0,0.0,0.0,0.0,0.0,0.0,0.0,0.0,0.0,0.0,0.0,0.0,0.0,0.0,0.0,0.0,0.0,0.0,0.0,0.0,0.0,0.0,0.0,0.0,0.0,0.0,0.0,0.0,0.0,0.0,0.0,0.0,0.0,0.0,0.0,0.0,0.0,0.0,0.0,0.0,0.0,0.0,0.0,0.0,0.0,0.0,0.0,0.0,0.0,1.0725,1.2281,1.3793,1.531,1.5379,1.4297,0.0,0.0,0.0,0.0,0.0,0.0,0.0,0.0,0.0,0.0,0.0,0.0,0.0,0.0,0.0,0.0,0.0,0.0,0.0,0.0,0.0,0.0,0.0,0.0,0.0,0.0,0.0,0.0,0.0,0.0,0.0,0.0,0.0,0.0,0.0,0.0,0.0,0.0,0.0,0.0,0.0,0.0,0.0,0.0,0.0,0.0,0.0,0.0,0.0,0.0,0.0,0.0,0.0,0.0,0.0,0.0,0.0,0.0,0.0,0.0,0.0,0.0,0.0,0.0,0.0,0.0,0.0,0.0,0.0,0.0,0.0,0.0,0.0,0.0,0.0,0.0,0.0,0.0,0.0,0.0,0.0,0.0,0.0,0.0,0.0,0.0,0.0,0.0,0.0,0.0,0.0,0.0,0.0,0.0,0.0,0.0,0.0,0.0,0.0,0.0,0.0,0.0,0.0,0.0,0.0,0.0,0.0,0.0,0.0,1.2244,1.4309,1.5653,1.6229,1.5784,1.4586,0.0,0.0,0.0,0.0,0.0,0.0,0.0,0.0,0.0,0.0,0.0,0.0,0.0,0.0,0.0,0.0,0.0,0.0,0.0,0.0,0.0,0.0,0.0,0.0,0.0,0.0,0.0,0.0,0.0,0.0,0.0,0.0,0.0,0.0,0.0,0.0,0.0,0.0,0.0,0.0,0.0,0.0,0.0,0.0,0.0,0.0,0.0,0.0,0.0,0.0,0.0,0.0,0.0,0.0,0.0,0.0,0.0,0.0,0.0,0.0,0.0,0.0,0.0,0.0,0.0,0.0,0.0,0.0,0.0,0.0,0.0,0.0,0.0,0.0,0.0,0.0,0.0,0.0,0.0,0.0,0.0,0.0,0.0,0.0,0.0,0.0,0.0,0.0,0.0,0.0,0.0,0.0,0.0,0.0,0.0,0.0,0.0,0.0,0.0,0.0,0.0,0.0,0.0,0.0,0.0,0.0,0.0,0.0,0.0,1.4204,0.0,1.7077,1.707,1.6801,1.5422,0.0,0.0,0.0,0.0,0.0,0.0,0.0,0.0,0.0,0.0,0.0,0.0,0.0,0.0,0.0,0.0,0.0,0.0,0.0,0.0,0.0,0.0,0.0,0.0,0.0,0.0,0.0,0.0,0.0,0.0,0.0,0.0,0.0,0.0,0.0,0.0,0.0,0.0,0.0,0.0,0.0,0.0,0.0,0.0,0.0,0.0,0.0,0.0,0.0,0.0,0.0,0.0,0.0,0.0,0.0,0.0,0.0,0.0,0.0,0.0,0.0,0.0,0.0,0.0,0.0,0.0,0.0,0.0,0.0,0.0,0.0,0.0,0.0,0.0,0.0,0.0,0.0,0.0,0.0,0.0,0.0,0.0,0.0,0.0,0.0,0.0,0.0,0.0,0.0,0.0,0.0,0.0,0.0,0.0,0.0,0.0,0.0,0.0,0.0,0.0,0.0,0.0,0.0,0.0,0.0,0.0,0.0,0.0,1.2754,1.653,1.7505,1.8045,1.7976,1.8588,1.6813,0.0,0.0,0.0,0.0,0.0,0.0,0.0,0.0,0.0,0.0,0.0,0.0,0.0,0.0,0.0,0.0,0.0,0.0,0.0,0.0,0.0,0.0,0.0,0.0,0.0,0.0,0.0,0.0,0.0,0.0,0.0,0.0,0.0,0.0,0.0,0.0,0.0,0.0,0.0,0.0,0.0,0.0,0.0,0.0,0.0,0.0,0.0,0.0,0.0,0.0,0.0,0.0,0.0,0.0,0.0,0.0,0.0,0.0,0.0,0.0,0.0,0.0,0.0,0.0,0.0,0.0,0.0,0.0,0.0,0.0,0.0,0.0,0.0,0.0,0.0,0.0,0.0,0.0,0.0,0.0,0.0,0.0,0.0,0.0,0.0,0.0,0.0,0.0,0.0,0.0,0.0,0.0,0.0,0.0,0.0,0.0,0.0,0.0,0.0,0.0,0.0,0.0,0.0,0.0,0.0,0.0,0.0,0.0,0.0,1.7505,1.9417,2.0391,2.0355,1.9019,1.732,0.0,0.0,0.0,0.0,0.0,0.0,0.0,0.0,0.0,0.0,0.0,0.0,0.0,0.0,0.0,0.0,0.0,0.0,0.0,0.0,0.0,0.0,0.0,0.0,0.0,0.0,0.0,0.0,0.0,0.0,0.0,0.0,0.0,0.0,0.0,0.0,0.0,0.0,0.0,0.0,0.0,0.0,0.0,0.0,0.0,0.0,0.0,0.0,0.0,0.0,0.0,0.0,0.0,0.0,0.0,0.0,0.0,0.0,0.0,0.0,0.0,0.0,0.0,0.0,0.0,0.0,0.0,0.0,0.0,0.0,0.0,0.0,0.0,0.0,0.0,0.0,0.0,0.0,0.0,0.0,0.0,0.0,0.0,0.0,0.0,0.0,0.0,0.0,0.0,0.0,0.0,0.0,0.0,0.0,0.0,0.0,0.0,0.0,0.0,0.0,0.0,0.0,0.0,0.0,0.0,0.0,0.0,0.0,0.0,2.2755,2.3681,2.4152,2.4147,2.2383,2.0214,1.7646,0.0,0.0,0.0,0.0,0.0,0.0,0.0,0.0,0.0,0.0,0.0,0.0,0.0,0.0,0.0,0.0,0.0,0.0,0.0,0.0,0.0,0.0,0.0,0.0,0.0,0.0,0.0,0.0,0.0,0.0,0.0,0.0,0.0,0.0,0.0,0.0,0.0,0.0,0.0,0.0,0.0,0.0,0.0,0.0,0.0,0.0,0.0,0.0,0.0,0.0,0.0,0.0,0.0,0.0,0.0,0.0,0.0,0.0,0.0,0.0,0.0,0.0,0.0,0.0,0.0,0.0,0.0,0.0,0.0,0.0,0.0,0.0,0.0,0.0,0.0,0.0,0.0,0.0,0.0,0.0,0.0,0.0,0.0,0.0,0.0,0.0,0.0,0.0,0.0,0.0,0.0,0.0,0.0,0.0,0.0,0.0,0.0,0.0,0.0,0.0,0.0,0.0,0.0,0.0,0.0,0.0,0.0,0.0,3.1336,3.012,2.9396,2.907,2.8099,2.5063,0.0,0.0,0.0,0.0,0.0,0.0,0.0,0.0,0.0,0.0,0.0,0.0,0.0,0.0,0.0,0.0,0.0,0.0,0.0,0.0,0.0,0.0,0.0,0.0,0.0,0.0,0.0,0.0,0.0,0.0,0.0,0.0,0.0,0.0,0.0,0.0,0.0,0.0,0.0,0.0,0.0,0.0,0.0,0.0,0.0,0.0,0.0,0.0,0.0,0.0,0.0,0.0,0.0,0.0,0.0,0.0,0.0,0.0,0.0,0.0,0.0,0.0,0.0,0.0,0.0,0.0,0.0,0.0,0.0,0.0,0.0,0.0,0.0,0.0,0.0,0.0,0.0,0.0,0.0,0.0,0.0,0.0,0.0,0.0,0.0,0.0,0.0,0.0,0.0,0.0,0.0,0.0,0.0,0.0,0.0,0.0,0.0,0.0,0.0,0.0,0.0,0.0,0.0,0.0,0.0,0.0,0.0,0.0,0.0,3.6154,3.8753,3.8363,3.4886,3.1734,2.825,0.0,0.0,0.0,0.0,0.0,0.0,0.0,0.0,0.0,0.0,0.0,0.0,0.0,0.0,0.0,0.0,0.0,0.0,0.0,0.0,0.0,0.0,0.0,0.0,0.0,0.0,0.0,0.0,0.0,0.0,0.0,0.0,0.0,0.0,0.0,0.0,0.0,0.0,0.0,0.0,0.0,0.0,0.0,0.0,0.0,0.0,0.0,0.0,0.0,0.0,0.0,0.0,0.0,0.0,0.0,0.0,0.0,0.0,0.0,0.0,0.0,0.0,0.0,0.0,0.0,0.0,0.0,0.0,0.0,0.0,0.0,0.0,0.0,0.0,0.0,0.0,0.0,0.0,0.0,0.0,0.0,0.0,0.0,0.0,0.0,0.0,0.0,0.0,0.0,0.0,0.0,0.0,0.0,0.0,0.0,0.0,0.0,0.0,0.0,0.0,0.0,0.0,0.0,0.0,0.0,0.0,0.0,0.0,3.4886,4.0102,4.4377,4.5319,4.2575,3.6995,3.2386,0.0,0.0,0.0,0.0,0.0,0.0,0.0,0.0,0.0,0.0,0.0,0.0,0.0,0.0,0.0,0.0,0.0,0.0,0.0,0.0,0.0,0.0,0.0,0.0,0.0,0.0,0.0,0.0,0.0,0.0,0.0,0.0,0.0,0.0,0.0,0.0,0.0,0.0,0.0,0.0,0.0,0.0,0.0,0.0,0.0,0.0,0.0,0.0,0.0,0.0,0.0,0.0,0.0,0.0,0.0,0.0,0.0,0.0,0.0,0.0,0.0,0.0,0.0,0.0,0.0,0.0,0.0,0.0,0.0,0.0,0.0,0.0,0.0,0.0,0.0,0.0,0.0,0.0,0.0,0.0,0.0,0.0,0.0,0.0,0.0,0.0,0.0,0.0,0.0,0.0,0.0,0.0,0.0,0.0,0.0,0.0,0.0,0.0,0.0,0.0,0.0,0.0,0.0,0.0,0.0,0.0,0.0,0.0,3.8355,4.3073,4.7782,5.0257,5.0137,4.2783,3.6814,0.0,0.0,0.0,0.0,0.0,0.0,0.0,0.0,0.0,0.0,0.0,0.0,0.0,0.0,0.0,0.0,0.0,0.0,0.0,0.0,0.0,0.0,0.0,0.0,0.0,0.0,0.0,0.0,0.0,0.0,0.0,0.0,0.0,0.0,0.0,0.0,0.0,0.0,0.0,0.0,0.0,0.0,0.0,0.0,0.0,0.0,0.0,0.0,0.0,0.0,0.0,0.0,0.0,0.0,0.0,0.0,0.0,0.0,0.0,0.0,0.0,0.0,0.0,0.0,0.0,0.0,0.0,0.0,0.0,0.0,0.0,0.0,0.0,0.0,0.0,0.0,0.0,0.0,0.0,0.0,0.0,0.0,0.0,0.0,0.0,0.0,0.0,0.0,0.0,0.0,0.0,0.0,0.0,0.0,0.0,0.0,0.0,0.0,0.0,0.0,0.0,0.0,0.0,0.0,0.0,0.0,0.0,0.0,3.9994,4.4693,4.8869,5.1368,5.1948,4.5427,4.003,0.0,0.0,0.0,0.0,0.0,0.0,0.0,0.0,0.0,0.0,0.0,0.0,0.0,0.0,0.0,0.0,0.0,0.0,0.0,0.0,0.0,0.0,0.0,0.0,0.0,0.0,0.0,0.0,0.0,0.0,0.0,0.0,0.0,0.0,0.0,0.0,0.0,0.0,0.0,0.0,0.0,0.0,0.0,0.0,0.0,0.0,0.0,0.0,2.2441,0.0,0.0,0.0,0.0,0.0,0.0,0.0,0.0,0.0,0.0,0.0,0.0,0.0,0.0,0.0,0.0,0.0,0.0,0.0,0.0,0.0,0.0,0.0,0.0,0.0,0.0,0.0,0.0,0.0,0.0,0.0,0.0,0.0,0.0,0.0,0.0,0.0,0.0,0.0,0.0,0.0,0.0,0.0,0.0,0.0,0.0,0.0,0.0,0.0,0.0,0.0,0.0,0.0,0.0,0.0,0.0,0.0,0.0,0.0,4.1615,4.6323,4.963,5.1695,5.2299,4.7735,4.2918,0.0,0.0,0.0,0.0,0.0,0.0,0.0,0.0,0.0,0.0,0.0,0.0,0.0,0.0,0.0,0.0,0.0,0.0,0.0,0.0,0.0,0.0,0.0,0.0,0.0,0.0,0.0,0.0,0.0,0.0,0.0,0.0,0.0,0.0,0.0,0.0,0.0,0.0,0.0,0.0,0.0,0.0,0.0,0.0,0.0,0.0,0.0,0.0,0.0,0.0,0.0,0.0,0.0,0.0,0.0,0.0,0.0,0.0,0.0,0.0,0.0,0.0,0.0,0.0,0.0,0.0,0.0,0.0,0.0,0.0,0.0,0.0,0.0,0.0,0.0,0.0,0.0,0.0,0.0,0.0,0.0,0.0,0.0,0.0,0.0,0.0,0.0,0.0,0.0,0.0,0.0,0.0,0.0,0.0,0.0,0.0,0.0,0.0,0.0,0.0,0.0,0.0,0.0,0.0,0.0,0.0,0.0,3.7514,4.3008,4.7725,5.0234,5.1803,5.2408,4.9365,4.5118,3.9605,0.0,0.0,0.0,0.0,0.0,0.0,0.0,0.0,0.0,0.0,0.0,0.0,0.0,0.0,0.0,0.0,0.0,0.0,0.0,0.0,0.0,0.0,0.0,0.0,0.0,0.0,0.0,0.0,0.0,0.0,0.0,0.0,0.0,0.0,0.0,0.0,0.0,0.0,2.1523,2.5012,0.0,0.0,0.0,0.0,0.0,0.0,0.0,0.0,2.7389,0.0,0.0,0.0,0.0,0.0,0.0,0.0,0.0,0.0,0.0,0.0,0.0,0.0,0.0,0.0,0.0,0.0,0.0,0.0,0.0,0.0,0.0,0.0,0.0,0.0,0.0,0.0,0.0,0.0,0.0,0.0,0.0,0.0,0.0,0.0,0.0,0.0,0.0,0.0,0.0,0.0,0.0,0.0,0.0,0.0,0.0,0.0,0.0,0.0,0.0,0.0,0.0,0.0,0.0,0.0,0.0,3.2958,3.8591,4.3841,4.8594,5.1067,5.2383,5.2408,4.9401,4.5371,4.0329,0.0,0.0,0.0,0.0,0.0,0.0,0.0,0.0,0.0,0.0,0.0,0.0,0.0,0.0,0.0,0.0,0.0,0.0,0.0,0.0,0.0,0.0,0.0,0.0,0.0,0.0,0.0,0.0,0.0,0.0,0.0,0.0,0.0,0.0,0.0,0.0,0.0,0.0,0.0,2.9426,3.1047,0.0,0.0,0.0,0.0,0.0,0.0,0.0,0.0,2.9942,0.0,0.0,0.0,0.0,0.0,0.0,0.0,0.0,0.0,0.0,0.0,0.0,0.0,0.0,0.0,0.0,0.0,0.0,0.0,0.0,0.0,0.0,0.0,0.0,0.0,0.0,0.0,0.0,0.0,0.0,0.0,0.0,0.0,0.0,0.0,0.0,0.0,0.0,0.0,0.0,0.0,0.0,0.0,0.0,0.0,0.0,0.0,0.0,0.0,0.0,0.0,0.0,0.0,0.0,0.0,3.4508,3.9731,4.4657,4.9365,5.1067,5.1876,5.1792,4.9173,4.5226,0.0,0.0,0.0,0.0,0.0,0.0,0.0,0.0,0.0,0.0,0.0,0.0,0.0,0.0,0.0,0.0,0.0,0.0,0.0,0.0,0.0,0.0,0.0,0.0,0.0,0.0,0.0,0.0,0.0,0.0,0.0,0.0,0.0,0.0,0.0,0.0,0.0,0.0,0.0,0.0,3.2465,3.421,3.4655,0.0,0.0,0.0,0.0,0.0,0.0,3.3354,3.3547,0.0,0.0,0.0,0.0,0.0,0.0,0.0,0.0,0.0,0.0,0.0,0.0,0.0,0.0,0.0,0.0,0.0,0.0,0.0,0.0,0.0,0.0,0.0,0.0,0.0,0.0,0.0,0.0,0.0,0.0,0.0,0.0,0.0,0.0,0.0,0.0,0.0,0.0,0.0,0.0,0.0,0.0,0.0,0.0,0.0,0.0,0.0,0.0,0.0,0.0,0.0,0.0,0.0,0.0,0.0,3.5442,4.0564,4.5319,4.9666,5.0666,5.1076,5.104,4.8455,4.4505,0.0,0.0,0.0,0.0,0.0,0.0,0.0,0.0,0.0,0.0,0.0,0.0,0.0,0.0,0.0,0.0,0.0,0.0,0.0,0.0,0.0,0.0,0.0,0.0,0.0,0.0,0.0,0.0,0.0,0.0,0.0,0.0,0.0,0.0,0.0,0.0,0.0,0.0,0.0,0.0,0.0,3.7188,3.7244,3.8014,0.0,0.0,0.0,0.0,3.6573,3.8044,0.0,0.0,0.0,0.0,0.0,0.0,0.0,0.0,0.0,0.0,0.0,0.0,0.0,0.0,0.0,0.0,0.0,0.0,0.0,0.0,0.0,0.0,0.0,0.0,0.0,0.0,0.0,0.0,0.0,0.0,0.0,0.0,0.0,0.0,0.0,0.0,0.0,0.0,0.0,0.0,0.0,0.0,0.0,0.0,0.0,0.0,0.0,0.0,0.0,0.0,0.0,0.0,0.0,0.0,0.0,0.0,3.4689,4.0818,4.5599,4.8894,4.9898,5.0315,5.0279,4.6692,4.2741,0.0,0.0,0.0,0.0,0.0,0.0,0.0,0.0,0.0,0.0,0.0,0.0,0.0,0.0,0.0,0.0,0.0,0.0,0.0,0.0,0.0,0.0,0.0,0.0,0.0,0.0,0.0,0.0,0.0,0.0,0.0,0.0,0.0,0.0,0.0,0.0,0.0,0.0,0.0,0.0,0.0,3.9727,3.9712,4.1034,4.1382,0.0,0.0,4.1034,4.0148,4.3384,0.0,0.0,0.0,0.0,0.0,0.0,0.0,0.0,0.0,0.0,0.0,0.0,0.0,0.0,0.0,0.0,0.0,0.0,0.0,0.0,0.0,0.0,0.0,0.0,0.0,0.0,0.0,0.0,0.0,0.0,0.0,0.0,0.0,0.0,0.0,0.0,0.0,0.0,0.0,0.0,0.0,0.0,0.0,0.0,0.0,0.0,0.0,0.0,0.0,0.0,0.0,0.0,0.0,0.0,0.0,2.9873,3.59,4.1334,4.5671,4.8775,4.9253,4.9499,4.9584,4.6121,4.2387,0.0,0.0,0.0,0.0,0.0,0.0,0.0,0.0,0.0,0.0,0.0,0.0,0.0,0.0,0.0,0.0,0.0,0.0,0.0,0.0,0.0,0.0,0.0,0.0,0.0,0.0,0.0,0.0,0.0,0.0,0.0,0.0,0.0,0.0,0.0,0.0,0.0,0.0,0.0,0.0,0.0,0.0,4.1584,4.3791,0.0,0.0,0.0,4.6088,4.5564,0.0,0.0,0.0,0.0,0.0,0.0,0.0,0.0,0.0,0.0,0.0,0.0,0.0,0.0,0.0,0.0,0.0,0.0,0.0,0.0,0.0,0.0,0.0,0.0,0.0,0.0,0.0,0.0,0.0,0.0,0.0,0.0,0.0,0.0,0.0,0.0,0.0,0.0,0.0,0.0,0.0,0.0,0.0,0.0,0.0,0.0,0.0,0.0,0.0,0.0,0.0,0.0,0.0,0.0,0.0,0.0,0.0,3.6955,4.1914,4.583,4.8534,4.87,4.8691,4.853,4.5972,0.0,0.0,0.0,0.0,0.0,0.0,0.0,0.0,0.0,0.0,0.0,0.0,0.0,0.0,0.0,0.0,0.0,0.0,0.0,0.0,0.0,0.0,0.0,0.0,0.0,0.0,0.0,1.6958,0.0,0.0,0.0,0.0,0.0,0.0,0.0,0.0,0.0,0.0,0.0,0.0,0.0,0.0,4.3617,4.4087,4.6773,4.8461,0.0,0.0,4.9962,4.9891,5.0392,4.9345,0.0,0.0,0.0,0.0,0.0,0.0,0.0,0.0,0.0,0.0,0.0,0.0,0.0,0.0,0.0,0.0,0.0,0.0,0.0,0.0,0.0,0.0,0.0,0.0,0.0,0.0,0.0,0.0,0.0,0.0,0.0,0.0,0.0,0.0,0.0,0.0,0.0,0.0,0.0,0.0,0.0,0.0,0.0,0.0,0.0,0.0,0.0,0.0,0.0,0.0,0.0,0.0,0.0,0.0,3.1334,3.7059,4.2568,4.627,4.8008,4.8181,4.7902,4.7134,4.6193,4.3066,0.0,0.0,0.0,0.0,0.0,0.0,0.0,0.0,0.0,0.0,0.0,0.0,0.0,0.0,0.0,0.0,0.0,0.0,0.0,0.0,0.0,0.0,0.0,0.0,0.0,0.0,0.0,0.0,0.0,0.0,0.0,0.0,0.0,0.0,0.0,0.0,0.0,0.0,0.0,0.0,0.0,4.6372,4.79,5.0296,5.2165,0.0,5.2212,5.1573,5.1716,5.3344,5.2548,4.6465,0.0,0.0,0.0,0.0,0.0,0.0,0.0,0.0,0.0,0.0,0.0,0.0,0.0,0.0,0.0,0.0,0.0,0.0,0.0,0.0,0.0,0.0,0.0,0.0,0.0,0.0,0.0,0.0,0.0,0.0,0.0,0.0,0.0,0.0,0.0,0.0,0.0,0.0,0.0,0.0,0.0,0.0,0.0,0.0,0.0,0.0,0.0,0.0,0.0,0.0,0.0,0.0,0.0,3.2717,3.7794,4.3433,4.6858,4.7965,4.8516,4.8703,4.847,4.7236,4.4574,0.0,0.0,0.0,0.0,0.0,0.0,0.0,0.0,0.0,0.0,0.0,0.0,0.0,0.0,0.0,0.0,0.0,0.0,0.0,0.0,0.0,0.0,0.0,0.0,0.0,0.0,0.0,0.0,3.0204,3.182,3.0835,0.0,0.0,0.0,0.0,0.0,0.0,0.0,0.0,0.0,0.0,4.8343,5.0479,5.2494,0.0,0.0,5.4687,5.4544,5.4012,5.4639,5.3391,4.8239,4.5884,0.0,0.0,0.0,0.0,0.0,0.0,0.0,0.0,0.0,0.0,0.0,0.0,0.0,0.0,0.0,0.0,0.0,0.0,0.0,0.0,0.0,0.0,0.0,0.0,0.0,0.0,0.0,0.0,0.0,0.0,0.0,0.0,0.0,0.0,0.0,0.0,0.0,0.0,0.0,0.0,0.0,0.0,0.0,0.0,0.0,0.0,0.0,0.0,0.0,0.0,0.0,0.0,3.38,3.9044,4.4464,4.776,4.8822,4.9371,4.962,4.9435,4.8593,4.6625,0.0,0.0,0.0,0.0,0.0,0.0,0.0,0.0,0.0,0.0,0.0,0.0,0.0,0.0,0.0,0.0,0.0,0.0,0.0,0.0,0.0,0.0,0.0,0.0,0.0,0.0,0.0,0.0,3.3604,3.4432,3.2494,0.0,0.0,0.0,0.0,0.0,0.0,0.0,0.0,0.0,0.0,5.0132,5.2869,5.4291,5.5369,5.6096,5.6212,5.5957,5.5313,5.5369,5.4025,4.9701,0.0,0.0,0.0,0.0,0.0,0.0,0.0,0.0,0.0,0.0,0.0,0.0,0.0,0.0,0.0,0.0,0.0,0.0,0.0,0.0,0.0,0.0,0.0,0.0,0.0,0.0,0.0,1.5513,0.0,0.0,1.2552,0.0,0.0,0.0,0.0,0.0,0.0,0.0,0.0,0.0,0.0,0.0,0.0,0.0,0.0,0.0,0.0,0.0,0.0,0.0,0.0,0.0,0.0,3.4426,4.0766,4.5635,4.9005,5.0635,5.0755,5.0388,4.9674,5.0325,4.9148,4.5773,0.0,0.0,0.0,0.0,0.0,0.0,0.0,0.0,0.0,0.0,0.0,0.0,0.0,0.0,0.0,0.0,0.0,0.0,0.0,0.0,0.0,0.0,0.0,0.0,0.0,0.0,3.0735,3.3659,3.5044,0.0,0.0,0.0,0.0,0.0,0.0,0.0,0.0,0.0,4.4681,4.838,5.1885,5.5149,5.5648,5.6258,5.7917,5.6579,5.5346,5.5307,5.5662,5.469,0.0,0.0,0.0,0.0,0.0,0.0,0.0,0.0,0.0,0.0,0.0,0.0,0.0,0.0,0.0,0.0,0.0,0.0,0.0,0.0,0.0,0.0,0.0,0.0,0.0,0.0,0.0,2.2071,2.31,0.0,0.0,0.0,0.0,0.0,0.0,0.0,0.0,0.0,0.0,0.0,3.3909,3.4462,0.0,0.0,0.0,0.0,0.0,0.0,0.0,0.0,0.0,0.0,0.0,0.0,3.6076,4.0951,4.6369,4.9671,5.0765,5.1316,5.1473,5.1216,5.1436,5.0058,4.6754,0.0,0.0,0.0,0.0,0.0,0.0,0.0,0.0,0.0,0.0,0.0,0.0,0.0,0.0,0.0,0.0,0.0,0.0,0.0,0.0,0.0,0.0,0.0,0.0,0.0,3.3407,0.0,0.0,0.0,0.0,0.0,0.0,0.0,0.0,0.0,0.0,0.0,4.4764,4.8414,5.1408,5.4064,5.6328,5.6641,5.6834,0.0,0.0,0.0,0.0,0.0,0.0,0.0,0.0,0.0,0.0,0.0,0.0,0.0,0.0,4.3431,3.7271,3.7828,4.0909,4.6278,0.0,0.0,0.0,0.0,0.0,0.0,0.0,0.0,0.0,0.0,0.0,0.0,0.0,0.0,2.8344,0.0,2.8246,0.0,0.0,0.0,0.0,0.0,0.0,0.0,0.0,3.799,3.993,4.074,4.1224,4.148,0.0,3.9869,3.6223,0.0,0.0,0.0,0.0,0.0,0.0,0.0,0.0,3.8324,4.2669,4.7773,5.0849,5.161,5.216,5.2417,5.2417,5.2417,5.1279,4.8884,4.5948,4.2396,0.0,0.0,0.0,0.0,0.0,0.0,0.0,0.0,0.0,0.0,0.0,0.0,0.0,0.0,0.0,0.0,0.0,0.0,0.0,0.0,0.0,0.0,0.0,3.7096,0.0,0.0,0.0,0.0,0.0,0.0,0.0,0.0,0.0,4.5941,4.6916,4.8508,5.1621,5.3733,5.5486,5.6925,0.0,0.0,0.0,0.0,0.0,0.0,0.0,5.576,5.4134,5.4815,5.5331,5.4786,5.4636,5.4626,5.467,0.0,0.0,4.2255,4.219,4.5355,5.1294,5.1553,5.0601,4.9918,5.0669,5.1557,0.0,0.0,0.0,0.0,0.0,0.0,0.0,0.0,3.352,3.3972,0.0,3.3908,0.0,0.0,0.0,0.0,3.1767,3.6352,0.0,0.0,4.603,4.7993,4.7333,4.7333,4.7333,4.7223,4.5682,4.4444,4.3182,3.6523,0.0,0.0,0.0,0.0,0.0,0.0,4.1099,4.5783,4.9914,5.2432,5.3167,5.323,5.322,5.3209,5.3209,5.2842,5.1987,4.9664,4.7645,4.5883,3.8505,0.0,0.0,0.0,0.0,0.0,0.0,0.0,0.0,0.0,0.0,0.0,0.0,0.0,0.0,0.0,0.0,0.0,0.0,0.0,0.0,3.8227,0.0,0.0,0.0,0.0,0.0,0.0,0.0,0.0,0.0,4.711,5.0418,5.0841,5.1794,5.4289,0.0,0.0,0.0,0.0,5.8361,5.8417,5.8461,5.8234,5.7458,5.8654,5.9161,5.7555,0.0,0.0,5.9866,5.9904,5.9899,5.9943,5.9866,5.6985,4.8021,4.797,5.0715,5.5119,5.6879,5.7176,5.6329,5.717,5.8396,3.996,0.0,0.0,0.0,0.0,3.619,3.9167,4.3825,4.3233,4.3114,4.3205,4.19,0.0,0.0,0.0,0.0,0.0,0.0,4.3441,4.6249,4.9372,5.1318,5.2344,5.2894,5.2858,5.227,5.1269,5.0342,4.9414,4.6846,4.2247,3.5849,0.0,0.0,0.0,0.0,4.3728,4.7915,5.1179,5.3168,5.3962,5.3999,5.387,5.3536,5.3563,5.335,5.2868,5.215,5.0498,4.7709,4.4847,0.0,0.0,0.0,0.0,0.0,0.0,0.0,0.0,0.0,0.0,0.0,0.0,0.0,0.0,0.0,0.0,0.0,0.0,0.0,4.1636,4.3607,4.3853,0.0,0.0,0.0,0.0,0.0,0.0,0.0,0.0,0.0,5.3938,5.442,5.5119,0.0,0.0,5.7761,5.8081,5.8848,5.9384,5.9399,5.9935,0.0,6.0026,6.0408,6.0534,6.007,6.136,6.288,6.4077,6.4277,6.4459,6.5032,6.4662,6.2929,5.9384,5.5803,5.5776,6.0052,6.2502,6.3042,6.1731,6.2657,6.3835,4.9954,4.523,4.1825,4.1548,4.3358,4.4025,4.6542,5.0155,4.9678,4.9458,4.9385,4.8102,4.5608,4.2344,4.198,0.0,0.0,0.0,4.7804,5.0731,5.215,5.3575,5.4876,5.5365,5.5426,5.5117,5.4638,5.4223,5.3903,5.3087,4.9878,4.4366,0.0,0.0,4.267,4.4498,4.6942,4.999,5.2382,5.3816,5.4288,5.4288,5.4184,5.3962,5.3944,5.3833,5.3669,5.3622,5.2742,5.0759,4.8951,4.5512,0.0,0.0,0.0,0.0,0.0,0.0,0.0,0.0,0.0,0.0,0.0,2.6736,2.9004,0.0,0.0,0.0,4.3598,4.7045,4.8207,4.7765,0.0,0.0,0.0,0.0,0.0,0.0,0.0,4.6907,5.0426,5.3569,5.5652,5.7129,5.8201,5.8877,5.9224,5.9471,5.9524,0.0,6.1321,6.1346,6.1795,6.2037,6.1814,6.2273,6.2747,6.3086,6.3956,6.5211,6.6829,6.715,6.7454,6.8138,6.7994,6.7237,6.5953,6.2995,6.1692,6.4921,6.6438,6.6731,6.5688,6.6642,6.7595,5.7813,5.6359,4.8153,4.6011,4.8073,4.9621,5.1621,5.3728,5.3618,5.3581,5.3508,5.2601,5.0845,4.8566,4.7829,0.0,5.0961,5.104,5.2433,5.4775,5.4816,5.5257,5.6084,5.6084,5.6298,5.6623,5.6511,5.664,5.6914,5.6113,5.4907,5.336,5.0048,4.8028,4.7511,4.8874,5.0432,5.2049,5.359,5.438,5.4372,5.4372,5.4355,5.433,5.433,5.4322,5.4305,5.4296,5.4305,5.42,5.1447,4.9401,4.8268,0.0,0.0,0.0,0.0,0.0,0.0,0.0,0.0,0.0,0.0,0.0,0.0,0.0,0.0,4.3418,4.6714,0.0,5.4044,5.0818,0.0,0.0,0.0,4.6445,4.7326,4.8954,4.9919,4.9671,0.0,0.0,5.6274,5.9106,6.0828,6.0094,6.0703,6.1259,6.1379,6.2776,6.3853,6.3976,6.4024,6.3869,6.3555,6.429,6.518,6.5915,6.6263,6.6722,6.8269,6.8689,6.9081,6.9899,7.0098,6.9827,6.912,6.865,6.8965,6.8844,6.8965,6.8938,6.8618,6.9251,6.9868,6.0272,5.938,5.7228,5.6337,5.6311,5.6715,5.757,5.8547,5.7409,5.6859,5.6712,5.4693,5.313,5.2019,5.2438,5.3087,5.3983,5.4906,5.6293,5.8042,5.8405,5.919,6.0212,6.026,6.0309,6.0321,5.9084,5.8531,5.8547,5.7203,5.6438,5.6229,5.4851,5.2959,5.0778,5.1351,5.2475,5.4057,5.4779,5.5158,5.512,5.512,5.5007,5.4693,5.4685,5.4599,5.4368,5.4397,5.4392,5.442,5.372,5.219,4.9687,4.4487,0.0,0.0,0.0,0.0,0.0,0.0,0.0,0.0,0.0,3.5959,3.8639,0.0,5.0855,0.0,5.1898,5.3808,5.3544,5.2582,0.0,0.0,5.0437,5.0864,5.1745,5.3344,5.4385,5.4375,5.6457,5.8089,5.8551,6.003,6.1268,6.1718,6.2496,6.3318,6.398,6.4904,6.5822,6.6456,6.6693,6.6848,6.6616,6.6229,6.6268,6.7075,6.665,6.6804,6.8501,6.8772,6.9241,7.0634,7.0987,7.091,7.0672,7.0711,7.0672,7.0711,7.0711,7.0474,6.9866,7.0325,7.0932,6.1517,6.1112,6.1101,6.1064,6.0942,6.0467,6.0529,6.086,5.9979,5.9623,5.9477,5.7435,5.6209,5.5628,5.6082,5.6479,5.6939,5.7942,5.8922,5.9797,6.0411,6.1067,6.1704,6.1713,6.1798,6.1926,6.1029,6.0466,6.0231,5.9368,5.8668,5.8097,5.7648,5.6472,5.4579,5.4016,5.4175,5.5057,5.5708,5.6027,5.6027,5.6033,5.5575,5.461,5.4565,5.432,5.3815,5.377,5.3798,5.3833,5.384,5.3261,5.1928,4.7782,4.3933,0.0,0.0,0.0,0.0,0.0,0.0,0.0,0.0,0.0,0.0,0.0,5.4538,5.3018,5.4577,5.5164,5.3895,5.3767,5.3591,5.3124,5.3834,5.4717,5.5664,5.6966,5.7583,5.7128,5.9025,6.0646,6.1366,6.2337,6.3149,6.365,6.4431,6.5109,6.5567,6.6533,6.7534,6.8003,6.797,6.8086,6.8545,6.8584,6.8352,6.8081,6.7694,6.781,6.9087,6.9667,7.0324,7.1562,7.1872,7.1756,7.1374,7.1291,7.1291,7.1291,7.1291,7.1137,7.0717,7.0987,7.128,6.2313,6.2239,6.2419,6.2801,6.3296,6.2347,6.1921,6.1862,6.1788,6.1701,6.1528,6.0252,5.942,5.9024,5.9008,5.9238,5.9683,6.0463,6.0886,6.1053,6.1751,6.2137,6.2202,6.2174,6.2338,6.2685,6.2609,6.2329,6.1944,6.1836,6.1041,5.9665,5.9404,5.8945,5.8187,5.6575,5.5683,5.5592,5.6496,5.691,5.6801,5.6801,5.6028,5.4559,5.4361,5.3945,5.3234,5.308,5.3009,5.3015,5.313,5.359,5.4352,5.0784,4.7989,0.0,4.1869,0.0,0.0,0.0,0.0,0.0,0.0,0.0,0.0,5.2395,5.5065,5.6141,5.62,5.5869,5.5113,5.5128,5.547,5.6133,5.6957,5.7887,5.8888,5.9779,5.994,5.9095,6.1272,6.3175,6.3923,6.4817,6.5275,6.5263,6.6031,6.6659,6.6739,6.7808,6.8756,6.9046,6.8677,6.8898,6.9705,7.0595,7.0595,6.928,6.8772,6.9081,6.9827,7.0523,7.1407,7.2297,7.2529,7.2336,7.164,7.1446,7.1413,7.1794,7.1872,7.1722,7.1523,7.149,7.149,6.408,6.3568,6.4507,6.4647,6.4138,6.3958,6.3661,6.3348,6.2678,6.2187,6.1813,6.2088,6.1799,6.1147,6.1159,6.1437,6.1835,6.2376,6.3019,6.3671,6.4089,6.4494,6.484,6.4771,6.4771,6.4855,6.4184,6.3832,6.3788,6.3061,6.2599,6.2315,6.0974,6.0252,6.0022,0.0,0.0,0.0,5.7408,5.7491,5.6833,5.6801,5.6296,5.5287,5.4635,0.0,5.4134,5.3481,5.3119,5.3205,5.3825,0.0,0.0,0.0,0.0,0.0,0.0,0.0,0.0,0.0,0.0,0.0,5.1885,5.2313,5.2274,5.4241,5.6447,5.8751,5.8832,5.8494,5.7977,5.8568,5.8482,5.7328,5.7976,5.9132,6.064,6.105,6.1408,6.2251,6.3182,6.4017,6.4721,6.5117,6.5317,6.5443,6.6634,6.7784,6.8412,6.868,6.9412,7.0645,7.0564,7.0645,7.0943,7.1109,7.0949,6.9976,6.9159,6.9203,6.9865,7.0175,7.0866,7.2258,7.2607,7.2645,7.2601,7.1949,7.191,7.3651,7.3651,7.3187,7.2529,7.2336,7.2568,6.4641,6.4311,6.4898,6.4905,0.0,6.4565,6.4556,6.449,6.3783,6.3115,6.2484,6.2843,6.2663,6.2057,6.1721,6.2005,6.2726,6.2559,6.3176,6.4367,6.4564,6.4992,6.5601,6.5523,6.5509,6.5552,6.5087,6.4705,6.4326,6.3904,6.3503,6.3084,6.2247,6.1825,6.1825,6.1013,5.9804,5.8109,5.8561,5.8579,5.8156,5.8112,5.7541,5.6274,5.5846,0.0,0.0,0.0,0.0,0.0,0.0,0.0,0.0,5.4841,0.0,5.3851,5.2221,5.1836,5.3015,5.3131,5.4105,5.6252,5.7662,5.7718,5.5967,5.7386,5.8961,6.0406,6.0955,6.09,6.0089,6.0817,6.1008,6.0192,6.0914,6.1873,6.2647,6.2812,6.321,6.4042,6.4543,6.5087,6.5841,6.6027,6.6094,6.6133,6.6794,6.7695,6.8503,6.8871,6.9437,7.051,7.1102,7.1118,7.0714,7.1017,7.1181,7.0678,7.0286,7.0208,7.0562,7.0987,7.1601,7.2452,7.2607,7.2645,7.2761,7.2645,7.2684,7.3109,7.4154,7.4425,7.3071,7.2607,7.2723,6.4955,6.4812,6.5031,6.5057,6.4896,6.4896,6.5174,6.5581,0.0,0.0,0.0,6.3547,6.3369,6.2986,6.2384,6.2646,6.3526,6.2848,6.3309,6.4652,6.4485,6.4753,6.5405,6.5385,6.5378,6.543,6.5531,6.5263,6.467,6.4631,6.43,6.3622,6.3469,6.3277,6.3162,6.3175,6.2202,6.0204,6.0142,6.005,5.9742,5.9742,5.894,5.7286,5.7209,5.6901,5.6203,5.617,5.6165,5.6165,5.6165,5.6324,5.6588,5.6439,5.6209,5.5895,5.5862,5.6461,5.7818,5.8093,5.9112,6.1366,6.226,6.1783,5.9594,6.0697,6.1606,6.1957,6.3068,6.3257,6.1976,6.265,6.3115,6.2892,6.3527,6.405,6.4453,6.4375,6.4531,6.5351,6.5664,6.6094,6.6719,6.6836,6.6914,6.6875,6.6914,6.7148,6.7851,6.8619,6.932,6.9909,7.0428,7.0532,6.9931,7.0252,7.0864,7.0679,7.0741,7.0914,7.1153,7.164,7.2181,7.2529,7.2607,7.2684,7.2839,7.3226,7.3259,7.2032,7.3844,7.5281,7.3574,7.2916,7.2877,6.5887,6.5329,6.6336,6.6363,6.5748,6.5748,6.6152,6.6755,6.5974,6.5542,6.5427,6.5279,6.5195,6.5161,6.5155,6.5279,6.5396,6.5346,6.5449,6.5641,6.4846,6.4577,6.4744,6.4633,6.4607,6.4685,6.5283,6.5597,6.562,6.5588,6.5544,6.5404,6.4757,6.402,6.3328,6.3295,6.3109,6.2763,6.2775,6.205,6.0671,6.0627,5.9819,5.8242,5.8127,5.8088,5.7934,5.7973,5.7934,5.7934,5.7929,5.8588,5.994,5.9363,5.9588,6.0902,6.1023,6.1192,6.151,6.2259,6.2869,6.3341,6.3528,6.3417,6.3103,6.2899,6.3358,6.4583,6.5598,6.566,6.4209,6.4641,6.457,6.3281,6.3125,6.375,6.5195,6.4805,6.4961,6.6367,6.668,6.6719,6.6836,6.6914,6.6914,6.6914,6.6914,6.6953,6.7305,6.834,6.9389,6.9861,6.9676,6.9231,6.8883,6.905,6.9377,6.9281,6.9338,6.964,7.0106,7.0356,7.0926,7.2258,7.2297,7.2645,7.3264,7.3342,7.3143,7.3032,7.3651,7.3844,7.4148,7.3877,7.3612,6.5974,6.5719,6.6237,6.625,6.5942,6.6359,6.7013,6.7737,6.7365,6.6922,6.6468,6.5974,6.5762,6.573,6.5333,6.543,6.5814,6.4885,6.5013,6.5782,6.4975,6.4558,6.4577,6.4565,6.4513,6.4571,6.4891,6.5352,6.5814,6.5852,6.5872,6.5859,6.5474,6.5089,6.4743,6.4705,6.4705,6.4705,6.3775,6.2929,6.2166,6.2166,6.1781,6.1006,6.1006,6.1006,6.1006,6.1006,6.1006,6.1006,6.1006,6.1352,6.2089,6.1874,6.2081,6.2846,6.296,6.3034,6.3099,6.357,6.4109,6.4566,6.4716,6.4977,6.5439,6.4749,6.4608,6.5401,6.6362,6.6601,6.578,6.6094,6.5976,6.5195,6.5117,6.543,6.6094,6.5976,6.6055,6.6758,6.6914,6.6914,6.6914,6.6914,6.6914,6.6914,6.6914,6.6914,6.6914,6.75,6.8086,6.8342,6.8839,6.89,6.8305,6.7965,6.8236,6.8837,6.8994,6.9126,6.9373,6.941,6.9755,7.0346,7.0556,7.0866,7.1678,7.1988,7.2181,7.2452,7.3458,7.3844,7.338,7.3071,7.338,6.5904,6.5904,6.5904,6.5904,6.5981,6.675,6.7513,6.8084,6.7891,6.7552,6.7058,6.6442,6.6096,6.582,6.5166,6.5243,6.5673,6.4512,6.4628,6.5743,6.5013,6.4622,6.4622,6.4622,6.4622,6.4628,6.4782,6.5359,6.6096,6.6167,6.6173,6.6134,6.5981,6.5904,6.5904,6.5904,6.5904,6.582,6.4545,6.3775,6.3583,6.3583,6.3506,6.3314,6.3468,6.3583,6.3622,6.3809,6.3927,6.3927,6.3797,6.3797,6.3962,6.3777,6.3727,6.3886,6.4005,6.4172,6.4421,6.4632,6.5025,6.561,6.5808,6.617,6.6716,6.6149,6.5712,6.5934,6.6522,6.6874,6.6797,6.6875,6.6914,6.6914,6.6914,6.6797,6.6875,6.6914,6.6914,6.6914,6.6914,6.6914,6.6914,6.6914,6.6914,6.6914,6.6914,6.6914,6.6914,6.6914,6.6914,6.7148,6.8047,6.8437,6.7831,6.7336,6.7445,6.8477,6.8493,6.8483,6.8546,6.8656,6.8785,6.8955,6.8931,6.926,6.9727,7.0247,7.0672,7.0866,7.1988,7.2955,7.2181,7.2297,7.2993,6.5942,6.5904,6.5981,6.5904,6.6058,6.6789,6.7212,6.7173,6.6481,6.6519,6.7058,6.7019,6.6558,6.5942,6.5788,6.5788,6.5904,6.5743,6.5711,6.5782,6.5013,6.4622,6.4622,6.4622,6.4622,6.4705,6.5333,6.607,6.6904,6.6981,6.6981,6.6904,6.625,6.591,6.591,6.591,6.591,6.5904,6.575,6.5282,6.4545,6.4506,6.4089,6.3314,6.4089,6.4474,6.4505,6.5362,6.5843,6.578,6.5231,6.5287,6.5832,6.4649,6.4156,6.4892,6.4989,6.535,6.6223,6.6535,6.6595,6.6753,6.6717,6.6758,6.6914,6.6797,6.6758,6.6758,6.6836,6.6914,6.6914,6.6914,6.6914,6.6914,6.6914,6.6914,6.6914,6.6914,6.6914,6.6914,6.6914,6.6914,6.6914,6.6914,6.6914,6.6914,6.6914,6.6914,6.6914,6.6914,6.6914,6.6914,6.7148,6.7187,6.707,6.6992,6.6992,6.7071,6.6982,6.7301,6.7745,6.7932,6.8056,6.835,6.8695,6.8722,6.8854,6.9004,6.9097,6.9473,7.0247,7.0943,7.1988,7.2529,7.3148,6.7466,6.7429,6.7429,6.7398,6.7436,6.7744,6.7853,6.7821,6.7513,6.7282,6.7096,6.7096,6.6673,6.5904,6.5904,6.5904,6.5904,6.5904,6.5904,6.5865,6.5513,6.5089,6.4628,6.4622,6.4622,6.4646,6.5047,6.5895,6.7,6.759,6.7667,6.7303,6.6935,6.6549,6.6052,6.6103,6.6079,6.5923,6.6105,6.5959,6.5555,6.5418,6.523,6.4971,6.5291,6.5499,6.559,6.6058,6.6272,6.6279,6.6043,6.6001,6.639,6.58,6.5608,6.5975,6.6107,6.6336,6.6742,6.6872,6.6913,6.6913,6.6914,6.6914,6.6914,6.6914,6.6914,6.6914,6.6914,6.6914,6.6914,6.6914,6.6914,6.6914,6.6914,6.6914,6.6914,6.6914,6.6914,6.6914,6.6914,6.6914,6.6914,6.6914,6.6914,6.6914,6.6914,6.6914,6.6914,6.6914,6.6914,6.6914,6.6914,6.6914,6.6914,6.6914,6.6875,6.6836,6.6829,6.7014,6.7088,6.7144,6.7272,6.755,6.7651,6.7864,6.8101,6.8173,6.8233,6.8621,6.9512,7.0639,7.2916,7.2955,7.3226,6.8349,6.8499,6.8538,6.8353,6.8103,6.8103,6.7943,6.775,6.7738,6.7397,6.6904,6.6853,6.6547,6.6063,6.5984,6.597,6.5937,6.6001,6.603,6.5991,6.5991,6.5688,6.5104,6.5065,6.5065,6.5093,6.5195,6.592,6.7238,6.839,6.8514,6.792,6.7803,6.7498,6.6935,6.6994,6.6898,6.6784,6.697,6.692,6.6597,6.6466,6.63,6.6155,6.6171,6.6187,6.6263,6.6381,6.6452,6.6455,6.6488,6.6546,6.6551,6.6645,6.6675,6.6687,6.6831,6.6914,6.6914,6.6914,6.6914,6.6914,6.6914,6.6914,6.6914,6.6914,6.6914,6.6914,6.6914,6.6914,6.6914,6.6914,6.6914,6.6914,6.6914,6.6914,6.6914,6.6914,6.6914,6.6914,6.6914,6.6914,6.6914,6.6914,6.6914,6.6914,6.6914,6.6914,6.6914,6.6914,6.6914,6.6914,6.6914,6.6914,6.6914,6.6914,6.6914,6.6914,6.6875,6.6873,6.6781,6.6777,6.6722,6.7087,6.6761,6.6748,6.7252,6.744,6.7609,6.8273,6.9048,7.002,7.1485,7.1833,7.2297,6.7832,6.8604,6.8592,6.8173,6.7363,6.7369,6.6895,6.6306,6.6198,6.6168,6.6292,6.6269,6.6256,6.6404,6.6311,6.6098,6.6123,6.6278,6.6345,6.6345,6.6388,6.6283,6.6248,6.6213,6.6206,6.6104,6.6101,6.6648,6.7638,6.9195,6.9682,6.8835,6.8765,6.879,6.8646,6.8611,6.8731,6.8578,6.8621,6.8391,6.7713,6.7622,6.7191,6.6569,6.6374,6.6381,6.6399,6.6518,6.6572,6.661,6.6781,6.6875,6.6875,6.6875,6.6875,6.6875,6.6875,6.6914,6.6953,6.6992,6.6992,6.6992,6.7031,6.6953,6.7031,6.707,6.7031,6.6953,6.7109,6.7148,6.6914,6.6914,6.6914,6.6914,6.6914,6.6914,6.6914,6.6914,6.6914,6.6914,6.6914,6.6914,6.6914,6.6914,6.6914,6.6914,6.6914,6.6914,6.6914,6.6914,6.6914,6.6914,6.6914,6.6914,6.6914,6.6914,6.6914,6.6914,6.6914,6.6914,6.6914,6.6874,6.6797,6.6758,6.6721,6.6686,6.6642,6.676,6.7005,6.7493,6.7913,6.8898,7.0126,7.0054,7.0639,7.0009,7.0218,6.9695,6.9007,6.8181,6.7713,6.7027,6.6294,6.6281,6.6279,6.6418,6.6884,6.715,6.7249,6.7852,6.7418,6.6396,6.6917,6.7171,6.7252,6.7722,6.7683,6.7213,6.7171,6.686,6.6439,6.6435,6.6935,6.7815,6.8874,6.9267,6.9148,6.9092,6.9063,6.908,6.9172,6.9118,6.8972,6.912,6.9039,6.8687,6.8225,6.7859,6.7544,6.6871,6.657,6.6584,6.673,6.6789,6.6789,6.6875,6.6914,6.6914,6.6914,6.6914,6.6914,6.6914,6.7148,6.7656,6.7734,6.7969,6.8398,6.8008,6.7734,6.7773,6.789,6.793,6.789,6.8633,6.8515,6.7187,6.6914,6.6914,6.6914,6.6875,6.6875,6.6914,6.6914,6.6914,6.6914,6.6914,6.6914,6.6914,6.6914,6.6914,6.6914,6.6914,6.6914,6.6914,6.6914,6.6914,6.6914,6.6914,6.6914,6.6914,6.6914,6.6914,6.6914,6.6914,6.6914,6.6914,6.6914,6.6836,6.6836,6.6797,6.6774,6.6716,6.6596,6.681,6.7239,6.7624,6.7895,6.8772,6.9473,7.0054,7.1251,7.0888,7.0343,6.9643,6.8766,6.7973,6.7193,6.6495,6.6447,6.6471,6.6624,6.7094,6.7543,6.7898,6.8575,6.8416,6.7465,6.7998,6.8261,6.8303,6.881,6.8771,6.8342,6.8261,6.795,6.7489,6.7458,6.7598,6.7668,6.8589,6.8984,6.8842,6.9084,6.9402,6.9646,6.979,6.9776,6.9891,7.0139,7.0071,6.9706,6.9254,6.8867,6.8515,6.7644,6.7006,6.6779,6.6873,6.6914,6.6914,6.6914,6.6914,6.6914,6.6914,6.7031,6.7265,6.7344,6.7695,6.8437,6.8594,6.8828,6.9297,6.8906,6.8594,6.8594,6.8633,6.8594,6.8789,6.914,6.8984,6.7773,6.707,6.668,6.6328,6.6562,6.6758,6.6562,6.6758,6.6875,6.6914,6.6914,6.6914,6.6914,6.6914,6.6914,6.6914,6.6914,6.6914,6.6914,6.6914,6.6914,6.6914,6.6914,6.6914,6.6914,6.6914,6.6914,6.6914,6.6914,6.6914,6.6914,6.6914,6.6914,6.6914,6.6875,6.6836,6.6721,6.659,6.684,6.7281,6.7333,6.7444,6.8389,6.9396,6.9938,7.1188,7.0559,7.0422,6.9946,6.9125,6.8288,6.7385,6.6805,6.6626,6.6765,6.6864,6.6819,6.7587,6.8203,6.8711,6.8789,6.9333,6.948,6.9436,6.9397,6.9515,6.9515,6.9397,6.9357,6.9279,6.9124,6.9285,6.8504,6.737,6.8537,6.889,6.8465,6.8938,6.9681,7.0661,7.0585,7.1055,7.1562,7.1719,7.1445,7.082,7.0547,7.0156,6.9492,6.8633,6.7812,6.707,6.6953,6.6953,6.6992,6.6914,6.6914,6.6992,6.7031,6.7305,6.8047,6.8203,6.8594,6.9297,6.9414,6.9453,6.9648,6.9453,6.9453,6.9414,6.9101,6.8984,6.9297,6.9101,6.8594,6.8164,6.7578,6.6601,6.4961,6.6211,6.6758,6.6328,6.6445,6.6914,6.6992,6.707,6.6953,6.6914,6.7031,6.707,6.6953,6.6914,6.6914,6.6914,6.6914,6.6914,6.6914,6.6914,6.6914,6.6914,6.6914,6.6914,6.6914,6.6914,6.6914,6.6914,6.6914,6.6914,6.6914,6.6914,6.6836,6.6797,6.6652,6.6592,6.6863,6.6885,6.7035,6.7647,6.8544,6.96,7.1547,7.1206,7.0764,7.0395,7.005,6.923,6.8461,6.7734,6.7656,6.7695,6.7847,6.8315,6.9021,6.9883,7.0508,7.0937,7.1211,7.1171,7.0859,7.0469,7.0898,7.082,7.039,7.0273,6.9999,6.953,6.9452,6.914,6.8711,6.8594,6.8631,6.8944,6.8672,6.9336,7.0547,7.0742,7.1133,7.1875,7.1992,7.1836,7.1562,7.1015,7.0586,7.0273,6.9492,6.8906,6.8633,6.7539,6.7226,6.7734,6.7226,6.7148,6.7656,6.7773,6.8203,6.8906,6.9023,6.9414,7.0156,7.0312,7.0547,7.0898,7.0664,7.0351,7.0312,7.0117,7.0078,7.0273,7.0117,6.9609,6.8555,6.8515,6.8008,6.7109,6.7461,6.793,6.789,6.7422,6.7344,6.793,6.8086,6.7734,6.7265,6.7344,6.75,6.7031,6.6914,6.6914,6.6914,6.6914,6.6914,6.6914,6.6914,6.6914,6.6914,6.6914,6.6914,6.6914,6.6914,6.6914,6.6914,6.6914,6.6914,6.6914,6.6914,6.6875,6.6836,6.6777,6.6699,6.6791,6.7019,6.7072,6.6958,6.7802,6.9135,7.1806,7.1733,7.1299,7.092,7.061,7.0077,6.9219,6.832,6.8203,6.8203,6.832,6.8711,6.9609,7.0625,7.1289,7.168,7.1953,7.1992,7.1719,7.1289,7.168,7.168,7.1211,7.1172,7.0742,7.0078,6.9922,6.9726,6.9414,6.8633,6.8437,6.875,6.8125,6.8359,6.9687,7.0078,7.0625,7.1406,7.1836,7.1992,7.1875,7.1445,7.1172,7.1055,7.0351,7.0117,7.0273,6.875,6.8086,6.8476,6.8086,6.8164,6.8633,6.8672,6.9023,6.9687,6.9961,7.0273,7.1055,7.1211,7.1367,7.1797,7.1484,7.1172,7.1133,7.0976,7.0703,7.0703,7.0039,6.9453,6.8867,6.8711,6.8945,6.918,6.8789,6.8906,6.918,6.8515,6.7773,6.8086,6.8437,6.8711,6.8984,6.8047,6.8086,6.7461,6.7109,6.6914,6.6914,6.6914,6.6953,6.6953,6.6914,6.6914,6.6914,6.6914,6.6914,6.6914,6.6914,6.6914,6.6914,6.6914,6.6914,6.6914,6.6914,6.6914,6.6875,6.6836,6.6777,6.7006,6.7252,6.7331,6.7429,6.8079,6.9293,7.1914,7.1914,7.1953,7.1484,7.0859,7.0781,6.9844,6.8476,6.832,6.832,6.8242,6.8437,6.9258,7.0469,7.0937,7.1406,7.1875,7.1992,7.1992,7.1914,7.1992,7.1914,7.1836,7.1836,7.1445,7.0898,7.0781,7.0351,6.9687,6.8828,6.8242,6.8203,6.75,6.7383,6.8398,6.9023,6.9844,7.0781,7.1523,7.1836,7.1953,7.1953,7.1914,7.1875,7.1211,7.1094,7.1406,7.039,6.9531,6.9414,6.9219,6.9258,6.9492,6.9492,6.9844,7.0664,7.0781,7.1133,7.1758,7.1836,7.1914,7.1953,7.1953,7.1992,7.1797,7.1172,7.0703,7.0625,6.9336,6.8633,6.9023,6.8867,6.918,7.0351,7.0117,6.9805,6.9648,6.957,6.9023,6.8203,6.875,7.0078,7.1211,6.9726,6.875,6.8164,6.7695,6.7461,6.7383,6.75,6.7187,6.7226,6.7461,6.7539,6.7734,6.8125,6.8047,6.7383,6.7305,6.7148,6.6953,6.6914,6.6914,6.6914,6.6914,6.6914,6.6875,6.6875,6.707,6.7361,6.7554,6.7727,6.8124,6.8737,6.9348,7.1015,7.1094,7.1719,7.1875,7.168,7.164,7.0664,6.9219,6.914,6.8828,6.8476,6.8867,6.9726,7.0703,7.1367,7.1797,7.1953,7.1992,7.1992,7.1992,7.1992,7.1992,7.1992,7.1992,7.1875,7.164,7.1562,7.1211,7.039,6.9531,6.8828,6.8164,6.7461,6.7383,6.8125,6.8476,6.9297,7.0508,7.0859,7.1406,7.1875,7.1992,7.1992,7.1953,7.1758,7.1719,7.1992,7.1601,7.0664,6.9492,6.9453,6.9765,7.0312,7.039,7.0742,7.1406,7.1601,7.168,7.1914,7.1992,7.1992,7.1992,7.1914,7.1992,7.1953,7.1211,7.0781,7.043,6.9219,6.8555,6.9219,6.9336,7.0,7.125,7.1289,7.1172,7.1133,7.0781,7.0351,7.0625,7.0469,7.0976,7.1328,7.0859,6.9687,6.918,6.8828,6.8594,6.8437,6.8476,6.832,6.8476,6.8633,6.8594,6.875,6.9219,6.9101,6.8203,6.7812,6.7578,6.7265,6.6914,6.6914,6.6914,6.6914,6.6914,6.6914,6.6914,6.7265,6.7734,6.7946,6.818,6.8663,6.9199,6.9601,7.0703,7.0781,7.164,7.1992,7.1992,7.1992,7.1211,7.0117,6.9961,6.9765,6.9453,6.9726,7.0469,7.125,7.1758,7.1992,7.1992,7.1992,7.1992,7.1992,7.1992,7.1992,7.1992,7.1992,7.1992,7.1992,7.1992,7.1719,7.1172,7.039,6.9687,6.914,6.8047,6.793,6.8711,6.8359,6.8828,7.0,7.0469,7.0859,7.0898,7.168,7.1719,7.164,7.1758,7.1992,7.1992,7.1992,7.1484,7.0703,7.0547,7.0781,7.1172,7.125,7.1484,7.1992,7.1992,7.1992,7.1992,7.1992,7.1992,7.1914,7.1719,7.1484,7.1211,7.043,6.9648,6.9453,6.8672,6.875,6.9375,7.0078,7.0937,7.1758,7.1992,7.1992,7.1992,7.1523,7.1523,7.1719,7.164,7.1406,7.1953,7.1211,7.0586,7.0,6.9492,6.9414,6.9336,6.9492,6.9531,6.9531,6.9414,6.9297,6.9297,6.9648,6.9726,6.8945,6.8476,6.8203,6.7617,6.7148,6.707,6.707,6.6992,6.6914,6.6914,6.7148,6.7773,6.8164,6.8398,6.8879,6.9435,6.978,7.0167,7.0625,7.0781,7.164,7.1992,7.1992,7.1992,7.1445,7.0781,7.0625,7.0508,7.043,7.0586,7.0976,7.1875,7.1836,7.1992,7.1992,7.1992,7.1992,7.1992,7.1992,7.1992,7.1992,7.1992,7.1992,7.1992,7.1992,7.1875,7.1484,7.0898,7.0586,6.9961,6.8867,6.8789,6.9062,6.8594,6.8672,6.9414,6.9922,7.0,6.9961,7.0781,7.1094,7.0781,7.1367,7.1562,7.164,7.1797,7.1836,7.1797,7.1953,7.1875,7.1953,7.1953,7.1953,7.1992,7.1992,7.1953,7.1836,7.1719,7.1719,7.1484,7.0898,7.0586,7.0312,6.9336,6.8515,6.8515,6.8242,6.8672,6.9648,7.0976,7.1719,7.1992,7.1992,7.1992,7.1992,7.1992,7.1992,7.1992,7.1992,7.1992,7.1797,7.1406,7.082,7.0898,7.0508,7.039,7.0351,7.039,7.0312,7.0195,7.0039,6.9883,6.9883,6.9961,6.9922,6.9609,6.9219,6.8828,6.8164,6.7734,6.7461,6.7383,6.7578,6.7344,6.6914,6.7383,6.8164,6.9062,6.9648,7.0,7.04,7.0615,7.0914,7.0077,7.0781,7.164,7.1992,7.1992,7.1992,7.1523,7.0742,7.0742,7.0469,7.0039,7.043,7.082,7.1055,7.164,7.1992,7.1953,7.1953,7.1992,7.1992,7.1992,7.1992,7.1992,7.1992,7.1992,7.1992,7.1992,7.168,7.1133,7.0937,7.0351,6.9765,6.957,6.9258,6.9375,6.875,6.8594,6.918,6.9062,6.9101,6.9414,6.9765,7.0078,6.9961,7.0586,7.0586,7.043,7.1289,7.164,7.1328,7.1601,7.1992,7.1992,7.1992,7.1992,7.1953,7.1914,7.168,7.1172,7.0976,7.0703,7.0234,6.9961,6.9687,6.9687,6.8789,6.8242,6.8203,6.8242,6.8867,7.0273,7.1367,7.1875,7.1992,7.1992,7.1992,7.1992,7.1992,7.1992,7.1992,7.1992,7.1992,7.1992,7.1875,7.164,7.168,7.1562,7.1445,7.1328,7.125,7.1094,7.0898,7.0937,7.082,7.082,7.0742,7.0508,7.0351,7.0039,6.9648,6.8984,6.8789,6.8711,6.8515,6.8359,6.789,6.7187,6.789,6.875,6.9805,7.0781,7.0898,7.1108,7.1385,7.1452,6.9684,7.0234,7.1445,7.1992,7.1992,7.1992,7.1719,7.1367,7.1328,7.1094,7.082,7.1172,7.1094,7.0742,7.1172,7.1406,7.1523,7.1836,7.1992,7.1992,7.1992,7.1992,7.1992,7.1992,7.1992,7.1992,7.1992,7.168,7.1406,7.125,7.1133,7.0586,7.0234,7.0312,7.0195,6.9062,6.8945,6.9531,6.8789,6.8437,6.8828,6.9258,6.9687,6.9883,7.0156,7.0,7.0195,7.082,7.1055,7.1055,7.1484,7.1992,7.1992,7.1992,7.1992,7.1953,7.1523,7.125,7.0781,7.0351,6.9961,6.9453,6.9101,6.8906,6.8711,6.8086,6.789,6.8125,6.8476,6.914,7.1015,7.1601,7.1953,7.1992,7.1992,7.1992,7.1992,7.1992,7.1992,7.1992,7.1992,7.1992,7.1992,7.1992,7.1953,7.1836,7.1836,7.1719,7.1758,7.168,7.1758,7.168,7.1797,7.1836,7.1797,7.164,7.125,7.1094,7.0859,7.0508,7.0039,7.0078,7.0195,6.9648,6.8945,6.8086,6.7656,6.8476,6.9492,7.0703,7.1484,7.1601,7.1634,7.1618,7.1648,6.9289,6.9527,7.1129,7.1795,7.1836,7.1914,7.1992,7.1953,7.1992,7.1836,7.1914,7.1914,7.1211,7.082,7.0547,7.0508,7.0703,7.1094,7.1328,7.1328,7.1562,7.1601,7.168,7.1836,7.1992,7.1992,7.1992,7.1914,7.1914,7.1992,7.1758,7.1797,7.1289,7.1172,7.125,6.9961,6.9336,7.0234,6.9258,6.8555,6.8672,6.914,6.9765,7.0078,6.9883,6.9687,6.9961,7.0312,7.043,7.039,7.125,7.164,7.164,7.1758,7.168,7.1562,7.082,7.039,7.0,6.9609,6.9219,6.9062,6.8437,6.8047,6.7812,6.7539,6.7539,6.8125,6.875,6.9844,7.168,7.1992,7.1992,7.1992,7.1992,7.1992,7.1992,7.1992,7.1992,7.1992,7.1992,7.1992,7.1992,7.1992,7.1992,7.1992,7.1992,7.1992,7.1992,7.1992,7.1992,7.1992,7.1992,7.1992,7.1992,7.1992,7.164,7.1562,7.1445,7.125,7.0976,7.1055,7.0898,7.0039,6.9297,6.8672,6.8594,6.9375,7.043,7.164,7.1953,7.1836,7.1829,7.1848,7.1875,6.8734,6.9483,7.0499,7.093,7.1009,7.1677,7.1873,7.1991,7.1836,7.1992,7.1875,7.125,7.082,7.0508,6.9922,6.9726,6.9765,7.0078,7.0117,7.0234,7.0625,7.0898,7.1133,7.1601,7.1914,7.1992,7.1992,7.1992,7.1992,7.1992,7.1992,7.1953,7.1797,7.1875,7.164,7.0859,7.0234,7.0625,6.9726,6.918,6.9336,6.9375,6.9531,6.9765,6.9492,6.918,6.8945,6.9297,6.9375,6.8828,7.0117,7.039,7.0273,7.0547,7.0508,7.0117,6.9805,6.9453,6.8945,6.8633,6.8047,6.75,6.7344,6.7226,6.7148,6.7109,6.7539,6.8555,6.9648,7.082,7.1836,7.1992,7.1992,7.1992,7.1992,7.1992,7.1992,7.1992,7.1992,7.1992,7.1992,7.1992,7.1992,7.1992,7.1992,7.1992,7.1992,7.1992,7.1992,7.1992,7.1992,7.1992,7.1992,7.1992,7.1992,7.1992,7.1875,7.1836,7.1797,7.1797,7.164,7.1797,7.1484,7.0781,7.0469,7.0273,7.0351,7.039,7.0937,7.1797,7.1953,7.1992,7.1992,7.2031,7.2148,6.8333,6.8812,6.9671,7.0025,7.0107,7.0461,7.0658,7.0659,7.0662,7.0898,7.0976,7.0469,7.0039,6.9805,6.918,6.8828,6.8906,6.9336,6.9414,6.957,6.9844,7.0312,7.0586,7.1172,7.1601,7.1875,7.1992,7.1992,7.1992,7.1992,7.1992,7.1992,7.1992,7.1992,7.1797,7.1094,7.1055,7.0976,7.0234,6.9726,7.0,6.9765,6.9492,6.9375,6.9062,6.8594,6.8437,6.8515,6.8633,6.8555,6.9414,6.9453,6.9219,6.914,6.9414,6.9297,6.8984,6.8633,6.8281,6.8164,6.7812,6.7148,6.7226,6.7305,6.7031,6.707,6.789,6.9726,7.0547,7.1523,7.1953,7.1992,7.1992,7.1992,7.1992,7.1992,7.1992,7.1992,7.1992,7.1992,7.1992,7.1992,7.1992,7.1992,7.1992,7.1992,7.1992,7.1992,7.1992,7.1992,7.1992,7.1992,7.1992,7.1992,7.1992,7.1992,7.1992,7.1992,7.1992,7.1992,7.1992,7.1992,7.1992,7.168,7.1562,7.1328,7.082,7.043,7.1172,7.1875,7.207,7.2226,7.2187,7.2226,7.25,6.7855,6.7902,6.8762,6.9158,6.9164,6.9362,6.944,6.9403,6.9447,6.984,7.027,6.9648,6.9219,6.8984,6.8398,6.7969,6.8008,6.8594,6.8711,6.8789,6.9062,6.9609,7.0234,7.0586,7.0937,7.1914,7.168,7.1836,7.1992,7.1992,7.1992,7.1992,7.1992,7.1992,7.1797,7.1406,7.1523,7.1328,7.082,7.039,7.0625,7.0312,6.9922,6.9765,6.8984,6.8594,6.8906,6.8203,6.8164,6.8281,6.875,6.8828,6.8164,6.8086,6.8398,6.8711,6.8281,6.8047,6.793,6.789,6.7539,6.6992,6.7539,6.7422,6.7344,6.7578,6.8711,7.125,7.1953,7.1914,7.1992,7.1992,7.1992,7.1992,7.1992,7.1992,7.1992,7.1992,7.1992,7.1992,7.1992,7.1992,7.1992,7.1992,7.1992,7.1992,7.1992,7.1992,7.1992,7.1992,7.1992,7.1992,7.1992,7.1992,7.1992,7.1992,7.1992,7.1992,7.1992,7.1992,7.1992,7.1992,7.1992,7.2031,7.1953,7.164,7.1015,7.0781,7.1445,7.2031,7.2305,7.25,7.2656,7.3047,7.3476,6.6954,6.7033,6.7891,6.8242,6.8364,6.8999,6.9353,6.9316,6.9246,6.9444,6.9483,6.8746,6.8357,6.8162,6.75,6.7148,6.7148,6.7305,6.75,6.7617,6.8086,6.8711,6.9414,6.9531,7.0234,7.1172,7.1055,7.1367,7.1562,7.1719,7.1992,7.1992,7.1992,7.1992,7.1953,7.1758,7.1914,7.1953,7.1719,7.164,7.1719,7.1601,7.1523,7.1094,7.0234,6.9531,6.9648,6.8515,6.7695,6.8164,6.832,6.793,6.7344,6.7812,6.7695,6.7422,6.7109,6.707,6.7148,6.7305,6.7265,6.6992,6.7187,6.7031,6.7383,6.8398,6.9805,7.164,7.1992,7.1992,7.1992,7.1992,7.1992,7.1992,7.1992,7.1992,7.1992,7.1992,7.1992,7.1992,7.1992,7.1992,7.1992,7.1992,7.1992,7.1992,7.1992,7.1992,7.1992,7.1992,7.1992,7.1992,7.1992,7.1992,7.1992,7.1992,7.1992,7.1992,7.1992,7.1992,7.1992,7.1992,7.207,7.2109,7.2109,7.2226,7.1953,7.1875,7.2031,7.2461,7.3086,7.3242,7.3281,7.375,7.4258,6.6796,6.6835,6.7226,6.7342,6.7421,6.7778,6.7937,6.7939,6.7947,6.8225,6.8461,6.7803,6.7455,6.7377,6.7029,6.6914,6.6913,6.6914,6.6914,6.6875,6.7305,6.7695,6.8008,6.8437,6.918,6.9375,7.0039,7.0156,7.0547,7.1328,7.1992,7.1953,7.1992,7.1992,7.1992,7.1992,7.1992,7.1992,7.1953,7.1992,7.1992,7.1953,7.1758,7.1289,7.0547,7.0234,6.9765,6.918,6.8203,6.8398,6.832,6.793,6.7226,6.7226,6.7265,6.7031,6.6914,6.6914,6.6953,6.7344,6.7265,6.7187,6.7305,6.7734,6.8125,6.9101,7.0469,7.1836,7.1992,7.1992,7.1953,7.1992,7.1992,7.1953,7.1797,7.1914,7.1914,7.1992,7.1992,7.1992,7.1992,7.1992,7.1992,7.1992,7.1992,7.1992,7.1992,7.1992,7.1992,7.1992,7.1992,7.1992,7.1992,7.1992,7.1992,7.1992,7.1992,7.1992,7.207,7.2031,7.1992,7.2031,7.2187,7.25,7.2734,7.2812,7.2812,7.2656,7.2461,7.3203,7.4062,7.3984,7.3906,7.418,7.4687,6.6796,6.6796,6.6796,6.6796,6.6796,6.6796,6.6835,6.6837,6.6883,6.7199,6.7476,6.7171,6.6901,6.6904,6.6908,6.691,6.691,6.6913,6.6914,6.6875,6.6719,6.6758,6.6953,6.7344,6.7226,6.7148,6.8711,6.9101,6.9297,7.0078,7.1289,7.168,7.1914,7.1953,7.1992,7.1992,7.1992,7.1992,7.1992,7.1992,7.1992,7.1992,7.164,7.1211,7.0781,7.0508,7.0156,6.9453,6.8984,6.914,6.8828,6.8437,6.7851,6.7578,6.7695,6.7617,6.7617,6.7344,6.7383,6.75,6.7461,6.7422,6.7734,6.8359,6.918,7.0039,7.082,7.1914,7.1992,7.1875,7.1719,7.164,7.1367,7.1328,7.1406,7.1562,7.1797,7.2031,7.2109,7.1992,7.1992,7.1992,7.1992,7.1992,7.1992,7.1992,7.1992,7.1992,7.1992,7.1992,7.1992,7.1992,7.1992,7.1992,7.1992,7.1992,7.1992,7.2109,7.2187,7.2109,7.2109,7.2265,7.25,7.2851,7.3164,7.3203,7.3047,7.2969,7.293,7.3555,7.4062,7.4414,7.4531,7.4805,7.5234,6.6796,6.6796,6.6796,6.6796,6.6796,6.6796,6.6796,6.6796,6.6798,6.6838,6.6995,6.6848,6.6856,6.6862,6.6863,6.6865,6.6904,6.691,6.6911,6.6639,6.6211,6.6211,6.6133,6.5859,6.5781,6.707,6.7656,6.7734,6.8203,6.8984,7.0039,7.0742,7.1367,7.1797,7.207,7.2148,7.2187,7.2187,7.2187,7.207,7.2031,7.1992,7.1914,7.1719,7.1211,7.1015,7.164,7.043,6.9805,7.0195,6.9844,6.9297,6.8828,6.8476,6.8515,6.8633,6.8359,6.8125,6.8125,6.7734,6.7148,6.7226,6.7734,6.875,6.9805,7.0351,7.1133,7.168,7.168,7.1562,7.1172,7.0781,7.0976,7.125,7.1601,7.1719,7.1992,7.2344,7.2344,7.2109,7.2109,7.2305,7.2344,7.2422,7.2109,7.207,7.1992,7.1992,7.1992,7.1992,7.1992,7.1992,7.1992,7.1992,7.2031,7.2109,7.2461,7.2617,7.2695,7.2461,7.2265,7.25,7.2539,7.2851,7.3086,7.3203,7.3437,7.3633,7.3789,7.3828,7.4101,7.4531,7.5078,7.5469,7.5976,6.6796,6.6796,6.6796,6.6796,6.6796,6.6796,6.6796,6.6796,6.6796,6.6796,6.6796,6.6801,6.6806,6.6849,6.6855,6.6856,6.6857,6.6904,6.6867,6.6595,6.6167,6.5582,6.5192,6.4725,6.4375,6.4765,6.5273,6.543,6.5078,6.75,6.8594,6.9453,7.0586,7.1445,7.1875,7.2422,7.2656,7.2734,7.2695,7.2578,7.2031,7.1992,7.1992,7.1914,7.1836,7.164,7.1836,7.1367,7.1015,7.082,7.082,7.039,6.9765,6.9453,6.9492,6.957,6.914,6.8984,6.8945,6.8594,6.8437,6.8359,6.8437,6.8789,7.0117,7.0273,7.0625,7.0976,7.1172,7.1133,7.1562,7.1523,7.164,7.1836,7.1875,7.1875,7.2109,7.2422,7.2656,7.2422,7.2695,7.2969,7.2969,7.2969,7.25,7.2148,7.207,7.1992,7.1992,7.207,7.2109,7.2109,7.2109,7.2265,7.2344,7.2617,7.3008,7.3164,7.3281,7.3125,7.289,7.2187,7.2305,7.2656,7.3203,7.3633,7.4023,7.4453,7.457,7.4453,7.4531,7.4765,7.539,7.6015,7.6445,6.6796,6.6796,6.6796,6.6796,6.6796,6.6796,6.6796,6.6796,6.6796,6.6796,6.6796,6.6796,6.6796,6.6799,6.6803,6.6808,6.6733,6.6622,6.6664,6.6237,6.5458,6.4912,6.4445,6.3901,6.3239,6.2811,6.3515,6.4101,6.3555,6.6328,6.7539,6.8437,6.9687,7.1055,7.1953,7.2539,7.3047,7.3242,7.293,7.2695,7.2031,7.1992,7.1992,7.1992,7.1914,7.1953,7.1992,7.1758,7.1601,7.1484,7.1406,7.1289,7.0742,7.0312,7.0312,7.0156,6.9922,6.9805,6.9805,6.957,6.957,6.957,6.9375,6.957,7.0039,7.0547,7.1133,7.1172,7.1055,7.1055,7.1797,7.1445,7.1133,7.1055,7.1484,7.164,7.1953,7.2305,7.2656,7.2812,7.3086,7.3281,7.3437,7.3398,7.3281,7.2695,7.2148,7.207,7.1992,7.2109,7.2305,7.2305,7.2305,7.25,7.2734,7.3437,7.4062,7.4336,7.4336,7.4062,7.3711,7.2969,7.2773,7.3515,7.4023,7.4258,7.4219,7.4101,7.4492,7.4961,7.5117,7.5351,7.5625,7.6211,7.6445,6.6835,6.6796,6.6835,6.6835,6.6796,6.6796,6.6796,6.6796,6.6796,6.6796,6.6796,6.6796,6.6718,6.6718,6.6721,6.6722,6.6528,6.6145,6.6188,6.6228,6.5022,6.4519,6.4207,6.3661,6.2883,6.3746,6.3944,6.3632,6.3164,6.6055,6.707,6.8008,6.9765,7.1328,7.1953,7.2031,7.25,7.3047,7.2539,7.2265,7.2031,7.1992,7.1992,7.1992,7.1992,7.1992,7.1992,7.1992,7.1836,7.1836,7.1836,7.1758,7.164,7.1015,7.1094,7.1562,7.0976,7.0742,7.0664,6.9961,7.0117,7.0469,7.0234,7.0351,7.1367,7.1719,7.1484,7.1211,7.1484,7.1328,7.1172,7.0859,7.0703,7.0976,7.1523,7.1836,7.2226,7.2734,7.3164,7.3086,7.3164,7.3359,7.3633,7.3828,7.3906,7.3437,7.2539,7.2265,7.2461,7.2851,7.332,7.3437,7.3515,7.3711,7.414,7.4609,7.5117,7.539,7.543,7.5156,7.4765,7.414,7.418,7.457,7.4453,7.4336,7.3906,7.3437,7.4453,7.5508,7.5781,7.6015,7.6211,7.6445,7.6758,6.7654,6.7654,6.7654,6.7342,6.6835,6.6796,6.6796,6.6796,6.6796,6.6796,6.6796,6.6796,6.6445,6.6289,6.6523,6.6562,6.6133,6.6563,6.6685,6.653,6.5129,6.5205,6.4857,6.3886,6.2992,6.3387,6.351,6.3826,6.3944,6.6406,6.793,6.8984,7.039,7.1914,7.2656,7.2851,7.3086,7.3203,7.2969,7.2656,7.207,7.1992,7.1992,7.1992,7.1992,7.1992,7.1992,7.1992,7.1992,7.1992,7.1992,7.1992,7.1992,7.1523,7.168,7.1953,7.1562,7.1601,7.1562,7.1289,7.1289,7.1211,7.0781,7.0586,7.1015,7.0156,7.0351,7.0976,7.125,7.1211,7.1445,7.1562,7.168,7.2344,7.2773,7.2734,7.3047,7.3633,7.3984,7.3437,7.3281,7.3867,7.4297,7.4687,7.4844,7.4844,7.414,7.414,7.4336,7.4726,7.5156,7.5234,7.5312,7.539,7.5664,7.6328,7.6289,7.6289,7.6367,7.625,7.5781,7.5156,7.5156,7.5351,7.4844,7.4336,7.457,7.4844,7.543,7.6094,7.6445,7.6601,7.6719,7.6953,7.7305,6.8552,6.8552,6.8552,6.8044,6.7264,6.6952,6.6796,6.6796,6.6796,6.6796,6.6796,6.6796,6.6562,6.6328,6.6445,6.664,6.6053,6.6172,6.6679,6.6562,6.5586,6.5587,6.5238,6.4421,6.3958,6.3847,6.405,6.4369,6.4842,6.7069,6.8867,7.0273,7.1406,7.207,7.2617,7.2695,7.293,7.3008,7.289,7.2461,7.2109,7.1992,7.1992,7.1992,7.1992,7.1992,7.1992,7.1992,7.1992,7.1992,7.1992,7.1992,7.1992,7.1992,7.1992,7.1992,7.1992,7.1992,7.1914,7.1914,7.1797,7.1836,7.0859,7.0703,7.0937,7.0664,7.0703,7.0976,7.0859,7.1289,7.1836,7.2031,7.2344,7.2969,7.3008,7.2969,7.3086,7.3594,7.3984,7.3476,7.4023,7.457,7.5156,7.5508,7.5859,7.5898,7.5859,7.5976,7.6015,7.6211,7.668,7.7031,7.6875,7.6758,7.7305,7.8242,7.8008,7.7305,7.7109,7.6992,7.6523,7.5859,7.5976,7.6015,7.5547,7.539,7.6015,7.6445,7.6523,7.6836,7.7305,7.7383,7.7265,7.7539,7.793,6.9333,6.9372,6.9411,6.8864,6.8005,6.7224,6.6874,6.6796,6.6796,6.6796,6.6796,6.6796,6.664,6.6679,6.6757,6.6679,6.6523,6.6014,6.6328,6.6328,6.5625,6.5898,6.582,6.5158,6.4772,6.4934,6.5137,6.5341,6.5856,6.8045,7.0078,7.1289,7.1797,7.2109,7.2187,7.2265,7.2539,7.2695,7.2539,7.2226,7.1992,7.2148,7.2265,7.2344,7.2422,7.2383,7.2344,7.2265,7.2109,7.2031,7.1992,7.1992,7.1992,7.1992,7.1992,7.1992,7.1992,7.1992,7.1992,7.1992,7.1992,7.1992,7.1875,7.1914,7.1797,7.1484,7.1484,7.1562,7.164,7.1836,7.2148,7.2226,7.2344,7.2539,7.2617,7.2617,7.2695,7.3047,7.3515,7.3945,7.4922,7.5703,7.6406,7.6836,7.6797,7.7265,7.7265,7.707,7.7109,7.6992,7.7617,7.8828,7.8555,7.8047,7.8633,7.9297,7.8789,7.7773,7.7578,7.7383,7.6914,7.6562,7.6562,7.6445,7.625,7.6328,7.664,7.6914,7.7148,7.7539,7.8008,7.7656,7.7383,7.8203,7.8632,6.8472,6.8513,6.9137,6.8903,6.8121,6.781,6.7381,6.6835,6.6796,6.6796,6.6796,6.6796,6.6562,6.6014,6.6523,6.6406,6.6289,6.6289,6.6562,6.6406,6.6133,6.6406,6.625,6.582,6.551,6.5631,6.5912,6.6389,6.7727,6.9568,7.082,7.1875,7.1992,7.1992,7.1992,7.1992,7.2226,7.2305,7.2109,7.207,7.2187,7.2461,7.2617,7.2773,7.3242,7.3203,7.293,7.289,7.2695,7.2148,7.2031,7.1992,7.1992,7.1992,7.1992,7.1992,7.1992,7.1992,7.1992,7.1992,7.1992,7.1992,7.1992,7.1992,7.1992,7.1992,7.1992,7.1992,7.2031,7.2109,7.25,7.2734,7.3008,7.3281,7.3359,7.3398,7.3515,7.375,7.418,7.4726,7.5742,7.6289,7.707,7.7539,7.7617,7.832,7.8555,7.8242,7.8008,7.7851,7.8281,7.9492,7.9805,7.914,7.9062,7.9609,7.8945,7.832,7.793,7.7578,7.7187,7.6953,7.6992,7.6992,7.6914,7.6914,7.7031,7.7383,7.7851,7.8164,7.8515,7.7969,7.7734,7.8555,7.918,6.863,6.8669,6.9176,6.8903,6.8082,6.7379,6.6912,6.6796,6.6796,6.6796,6.6796,6.6796,6.6523,6.625,6.6562,6.6562,6.625,6.6523,6.6757,6.6757,6.6796,6.6757,6.6562,6.6328,6.6172,6.6291,6.6648,6.7242,6.8817,7.0583,7.1992,7.1992,7.1992,7.1992,7.1992,7.1992,7.1992,7.2031,7.1992,7.1992,7.2226,7.2539,7.2695,7.3047,7.3711,7.3711,7.3476,7.3476,7.332,7.2656,7.2539,7.25,7.2539,7.2539,7.2539,7.25,7.2148,7.207,7.1992,7.1992,7.1992,7.2031,7.2031,7.1992,7.1992,7.1992,7.1992,7.1992,7.207,7.2265,7.2812,7.3359,7.3906,7.4414,7.4492,7.4531,7.4687,7.4883,7.5273,7.5664,7.6172,7.664,7.7187,7.7734,7.8047,7.8086,7.8359,7.8515,7.8398,7.8398,7.8867,7.9805,8.0156,8.0117,7.9961,7.9297,7.8515,7.793,7.7734,7.7422,7.7265,7.7265,7.7265,7.75,7.7734,7.7812,7.7969,7.8242,7.8633,7.8945,7.9219,7.8984,7.8711,7.8867,7.9453,6.8904,6.8865,6.9139,6.8708,6.7927,6.6639,6.6327,6.6757,6.6796,6.6796,6.6796,6.6796,6.6757,6.664,6.6757,6.6796,6.6601,6.6757,6.6796,6.6796,6.6796,6.6796,6.6796,6.6757,6.6562,6.6718,6.6995,6.7511,6.9279,7.0892,7.1953,7.1953,7.1992,7.1992,7.1992,7.1992,7.1992,7.1992,7.1992,7.1992,7.207,7.2109,7.2109,7.2383,7.2969,7.3476,7.3555,7.3828,7.4219,7.3594,7.3398,7.3359,7.3398,7.3398,7.3398,7.3125,7.2695,7.2578,7.2383,7.2265,7.2305,7.2265,7.2187,7.2422,7.2578,7.2109,7.2031,7.2461,7.2656,7.3281,7.3906,7.4258,7.4687,7.5234,7.5508,7.5508,7.5586,7.582,7.6133,7.6445,7.664,7.7109,7.7539,7.8086,7.8359,7.8047,7.8008,7.8476,7.8476,7.8555,7.9062,7.9765,7.9726,7.9648,7.9101,7.8437,7.7734,7.7305,7.7344,7.7344,7.7226,7.7344,7.7539,7.7851,7.8242,7.8789,7.9062,7.918,7.9336,7.9805,8.0,8.0039,7.9922,7.9726,7.9297,6.5508,6.5664,6.6913,6.7654,6.8004,6.7654,6.7146,6.6835,6.6796,6.6796,6.6796,6.6796,6.6796,6.6796,6.6796,6.6796,6.6796,6.6796,6.6796,6.6796,6.6796,6.6796,6.6796,6.6796,6.6796,6.6796,6.6995,6.7588,6.893,7.058,7.168,7.125,7.1562,7.1992,7.1992,7.1992,7.1992,7.1992,7.1992,7.1992,7.2031,7.2656,7.3008,7.3164,7.3633,7.3711,7.3828,7.4062,7.3945,7.3515,7.4023,7.4219,7.4297,7.4258,7.4258,7.414,7.3437,7.3359,7.332,7.2969,7.2812,7.332,7.3476,7.3594,7.3359,7.25,7.2383,7.2969,7.3672,7.4414,7.4883,7.5117,7.543,7.5976,7.6445,7.6445,7.6445,7.668,7.6914,7.707,7.7187,7.75,7.789,7.8203,7.8555,7.8555,7.8437,7.8476,7.8203,7.8203,7.8515,7.9023,7.8906,7.8672,7.8203,7.789,7.7383,7.7226,7.7265,7.7226,7.7265,7.75,7.7773,7.8281,7.875,7.9414,7.9805,7.9648,7.9922,8.039,8.0547,8.0508,8.0664,8.0547,7.9648,6.4298,6.4454,6.5703,6.6756,6.7381,6.7146,6.6873,6.6757,6.6445,6.6484,6.6796,6.6796,6.6796,6.6796,6.6796,6.6796,6.6796,6.6796,6.6796,6.6796,6.6796,6.6796,6.6796,6.6796,6.6796,6.6874,6.7735,6.8448,6.8894,7.0578,7.1719,7.1328,7.1797,7.1992,7.1992,7.1992,7.1992,7.1992,7.1992,7.1992,7.1992,7.2461,7.2734,7.2969,7.332,7.3515,7.3867,7.4101,7.4219,7.4258,7.4765,7.4726,7.4805,7.4961,7.4883,7.457,7.418,7.4062,7.418,7.3984,7.3594,7.414,7.4297,7.4219,7.4297,7.3633,7.3672,7.4297,7.5312,7.6094,7.5586,7.5625,7.6055,7.6601,7.6836,7.6875,7.6875,7.6992,7.7109,7.7148,7.7226,7.7265,7.7578,7.7578,7.789,7.8047,7.8047,7.8125,7.789,7.7851,7.8164,7.832,7.8242,7.8047,7.7695,7.75,7.7305,7.7226,7.7265,7.7539,7.7734,7.7851,7.8086,7.8945,7.9726,8.0273,8.0508,8.0312,8.039,8.0781,8.0898,8.0898,8.1054,8.1094,8.0273,6.4064,6.4376,6.5116,6.5975,6.664,6.6092,6.6092,6.6484,6.6053,6.6094,6.6562,6.6718,6.6796,6.6796,6.6796,6.6796,6.6796,6.6796,6.6796,6.6796,6.6796,6.6796,6.6796,6.6796,6.6796,6.7265,6.8124,6.8607,6.8974,7.0656,7.164,7.1836,7.1953,7.1992,7.1992,7.1992,7.1992,7.1992,7.1992,7.1992,7.1992,7.1992,7.207,7.2344,7.2656,7.3086,7.3398,7.3945,7.4453,7.5,7.539,7.543,7.5469,7.5625,7.5625,7.5351,7.4961,7.4961,7.5,7.4687,7.4726,7.4922,7.4805,7.4844,7.4961,7.5117,7.5195,7.5664,7.664,7.6836,7.6328,7.6211,7.668,7.6953,7.7109,7.7226,7.7226,7.7226,7.7226,7.7226,7.7226,7.7226,7.7226,7.7226,7.7305,7.7422,7.7461,7.75,7.7539,7.7617,7.7812,7.7773,7.7656,7.7422,7.7265,7.7265,7.7226,7.7344,7.7461,7.789,7.8281,7.8476,7.9062,8.0117,8.082,8.0859,8.1094,8.1054,8.1172,8.0976,8.1015,8.0937,8.0898,8.0859,8.0586,6.3008,6.4298,6.4493,6.543,6.664,6.6601,6.6289,6.5975,6.6328,6.6328,6.5975,6.6484,6.6796,6.6796,6.6796,6.6796,6.6796,6.6796,6.6796,6.6796,6.6796,6.6796,6.6796,6.6796,6.6796,6.7304,6.7931,6.8294,6.9168,7.0381,7.1015,7.1133,7.1836,7.1992,7.1992,7.1992,7.1992,7.1992,7.1992,7.1992,7.1992,7.1992,7.1992,7.2109,7.2148,7.2226,7.2617,7.3828,7.4375,7.5039,7.5859,7.6055,7.6055,7.6172,7.6406,7.6094,7.5703,7.5781,7.5703,7.5195,7.5195,7.6015,7.5976,7.5937,7.6133,7.6445,7.6484,7.6484,7.7148,7.7148,7.6836,7.6836,7.7109,7.7109,7.7187,7.7226,7.7226,7.7226,7.7226,7.7226,7.7226,7.7226,7.7226,7.7226,7.7226,7.7305,7.7305,7.7344,7.7344,7.7383,7.7461,7.7344,7.7226,7.7226,7.7226,7.7226,7.7226,7.7422,7.7812,7.8476,7.8984,7.9258,7.9922,8.0664,8.082,8.0781,8.1054,8.1406,8.0976,8.0742,8.0898,8.0937,8.0859,8.0898,8.0859]}]]